Wetterdaten: aktuell Mittwoch, 28.07.2021 12:01
Datum Zeit Temp. A. Temp Gart Temp -5cm Temp -5cm Temp -50cm Temp -100cm Luftf.2m Feuchte Mess Bodenf -5cm Bodenf -50cm Bodenf-100cm Luftdruck Regen Wind Richtung Richtung ET UV Solar Taupunkt Windchill Windben
28.07.2021 12:01 25,4 C 25,6 C 36,1 C 22,2 C 18,9 C 17,2 C 61 % 64 % 2 cb 10 cb 6 cb 1011,1 hPa 0,0 l/m 3,2 km/h (1 Bft) O-NO 67 0,000 mm 6,0 UV-I 863 W/m 17,3 C 25,4 C 6,4 km/h (2 Bft)
28.07.2021 12:00 25,3 C 25,6 C 36,1 C 22,2 C 18,9 C 17,2 C 62 % 63 % 2 cb 10 cb 6 cb 1011,2 hPa 0,0 l/m 1,6 km/h (1 Bft) O-NO 67 0,483 mm 5,9 UV-I 867 W/m 17,5 C 25,3 C 4,8 km/h (1 Bft)
28.07.2021 11:59 25,4 C 25,6 C 36,1 C 22,2 C 18,9 C 17,2 C 60 % 63 % 2 cb 10 cb 6 cb 1011,2 hPa 0,0 l/m 6,4 km/h (2 Bft) O-NO 67 0,000 mm 5,7 UV-I 824 W/m 17,1 C 25,4 C 11,3 km/h (2 Bft)
28.07.2021 11:58 25,6 C 25,6 C 37,2 C 22,2 C 18,9 C 17,2 C 59 % 66 % 2 cb 10 cb 6 cb 1011,2 hPa 0,0 l/m 4,8 km/h (1 Bft) N-NO 22 0,000 mm 5,8 UV-I 842 W/m 17,0 C 25,6 C 9,7 km/h (2 Bft)
28.07.2021 11:57 25,6 C 25,6 C 36,7 C 22,2 C 18,9 C 17,2 C 57 % 63 % 2 cb 10 cb 6 cb 1011,2 hPa 0,0 l/m 4,8 km/h (1 Bft) O-SO 112 0,000 mm 5,7 UV-I 810 W/m 16,4 C 25,6 C 8,0 km/h (2 Bft)
28.07.2021 11:56 25,7 C 25,6 C 36,1 C 22,2 C 18,9 C 17,2 C 60 % 63 % 2 cb 10 cb 6 cb 1011,2 hPa 0,0 l/m 4,8 km/h (1 Bft) N-NO 22 0,000 mm 5,7 UV-I 831 W/m 17,3 C 25,7 C 8,0 km/h (2 Bft)
28.07.2021 11:55 25,8 C 25,0 C 36,1 C 22,2 C 18,9 C 17,2 C 60 % 63 % 2 cb 10 cb 6 cb 1011,2 hPa 0,0 l/m 6,4 km/h (2 Bft) N-NO 22 0,000 mm 5,6 UV-I 823 W/m 17,4 C 25,8 C 9,7 km/h (2 Bft)
28.07.2021 11:54 25,7 C 25,0 C 35,6 C 22,2 C 18,9 C 17,2 C 60 % 62 % 2 cb 10 cb 6 cb 1011,2 hPa 0,0 l/m 3,2 km/h (1 Bft) NO 45 0,000 mm 5,6 UV-I 756 W/m 17,3 C 25,7 C 6,4 km/h (2 Bft)
28.07.2021 11:53 25,7 C 25,0 C 35,6 C 22,2 C 18,9 C 17,2 C 61 % 65 % 2 cb 10 cb 6 cb 1011,2 hPa 0,0 l/m 4,8 km/h (1 Bft) N-NO 22 0,000 mm 5,4 UV-I 793 W/m 17,6 C 25,7 C 8,0 km/h (2 Bft)
28.07.2021 11:52 25,6 C 25,0 C 36,1 C 22,2 C 18,9 C 17,2 C 60 % 66 % 2 cb 10 cb 6 cb 1011,2 hPa 0,0 l/m 6,4 km/h (2 Bft) NO 45 0,000 mm 5,5 UV-I 800 W/m 17,2 C 25,6 C 8,0 km/h (2 Bft)
28.07.2021 11:51 25,6 C 25,0 C 36,1 C 22,2 C 18,9 C 17,2 C 59 % 66 % 2 cb 10 cb 6 cb 1011,3 hPa 0,0 l/m 8,0 km/h (2 Bft) N-NO 22 0,000 mm 5,1 UV-I 722 W/m 17,0 C 25,2 C 12,9 km/h (3 Bft)
28.07.2021 11:50 25,4 C 25,0 C 36,7 C 22,2 C 18,9 C 17,2 C 60 % 65 % 2 cb 10 cb 6 cb 1011,2 hPa 0,0 l/m 3,2 km/h (1 Bft) O-NO 67 0,000 mm 5,4 UV-I 722 W/m 17,1 C 25,4 C 4,8 km/h (1 Bft)
28.07.2021 11:49 25,3 C 25,0 C 36,1 C 22,2 C 18,9 C 17,2 C 61 % 65 % 2 cb 10 cb 6 cb 1011,2 hPa 0,0 l/m 3,2 km/h (1 Bft) O 90 0,000 mm 5,3 UV-I 722 W/m 17,2 C 25,3 C 8,0 km/h (2 Bft)
28.07.2021 11:48 25,2 C 25,0 C 36,1 C 22,2 C 18,9 C 17,2 C 60 % 64 % 2 cb 10 cb 6 cb 1011,2 hPa 0,0 l/m 3,2 km/h (1 Bft) O-NO 67 0,000 mm 5,0 UV-I 642 W/m 16,9 C 25,2 C 4,8 km/h (1 Bft)
28.07.2021 11:47 25,1 C 25,0 C 36,1 C 22,2 C 18,9 C 17,2 C 61 % 64 % 2 cb 10 cb 6 cb 1011,2 hPa 0,0 l/m 4,8 km/h (1 Bft) O-NO 67 0,000 mm 5,3 UV-I 742 W/m 17,0 C 25,1 C 11,3 km/h (2 Bft)
28.07.2021 11:46 25,0 C 25,0 C 35,6 C 21,7 C 18,9 C 17,2 C 60 % 63 % 2 cb 10 cb 6 cb 1011,2 hPa 0,0 l/m 3,2 km/h (1 Bft) O-SO 112 0,000 mm 5,4 UV-I 722 W/m 16,7 C 25,0 C 4,8 km/h (1 Bft)
28.07.2021 11:45 25,0 C 25,0 C 35,0 C 21,7 C 18,9 C 17,2 C 60 % 62 % 2 cb 10 cb 6 cb 1011,2 hPa 0,0 l/m 3,2 km/h (1 Bft) O-SO 112 0,000 mm 5,5 UV-I 791 W/m 16,7 C 25,0 C 6,4 km/h (2 Bft)
28.07.2021 11:44 25,2 C 25,0 C 35,6 C 21,7 C 18,9 C 17,2 C 61 % 63 % 2 cb 10 cb 6 cb 1011,2 hPa 0,0 l/m 4,8 km/h (1 Bft) O-SO 112 0,000 mm 5,5 UV-I 786 W/m 17,1 C 25,2 C 8,0 km/h (2 Bft)
28.07.2021 11:43 25,2 C 25,0 C 36,1 C 21,7 C 18,9 C 17,2 C 59 % 63 % 2 cb 10 cb 6 cb 1011,2 hPa 0,0 l/m 6,4 km/h (2 Bft) O-NO 67 0,000 mm 5,5 UV-I 788 W/m 16,6 C 25,2 C 8,0 km/h (2 Bft)
28.07.2021 11:42 25,3 C 25,0 C 36,7 C 21,7 C 18,9 C 17,2 C 62 % 66 % 2 cb 10 cb 6 cb 1011,2 hPa 0,0 l/m 6,4 km/h (2 Bft) O 90 0,000 mm 5,3 UV-I 759 W/m 17,5 C 25,3 C 12,9 km/h (3 Bft)
28.07.2021 11:41 25,2 C 25,0 C 36,7 C 21,7 C 18,9 C 17,2 C 63 % 67 % 2 cb 10 cb 6 cb 1011,2 hPa 0,0 l/m 3,2 km/h (1 Bft) O-NO 67 0,000 mm 5,3 UV-I 715 W/m 17,6 C 25,2 C 6,4 km/h (2 Bft)
28.07.2021 11:40 25,1 C 25,0 C 36,7 C 21,7 C 18,9 C 17,2 C 62 % 67 % 2 cb 10 cb 6 cb 1011,2 hPa 0,0 l/m 6,4 km/h (2 Bft) O 90 0,000 mm 5,1 UV-I 779 W/m 17,3 C 25,1 C 9,7 km/h (2 Bft)
28.07.2021 11:39 25,2 C 24,4 C 37,2 C 21,7 C 18,9 C 17,2 C 62 % 67 % 2 cb 10 cb 6 cb 1011,2 hPa 0,0 l/m 4,8 km/h (1 Bft) O 90 0,000 mm 5,1 UV-I 779 W/m 17,4 C 25,2 C 9,7 km/h (2 Bft)
28.07.2021 11:38 24,9 C 24,4 C 36,7 C 21,7 C 18,9 C 17,2 C 64 % 66 % 2 cb 10 cb 6 cb 1011,2 hPa 0,0 l/m 3,2 km/h (1 Bft) N 360 0,000 mm 5,4 UV-I 779 W/m 17,6 C 24,9 C 4,8 km/h (1 Bft)
28.07.2021 11:37 24,5 C 24,4 C 36,7 C 21,7 C 18,9 C 17,2 C 64 % 65 % 2 cb 10 cb 6 cb 1011,3 hPa 0,0 l/m 3,2 km/h (1 Bft) O-SO 112 0,000 mm 5,3 UV-I 752 W/m 17,2 C 24,5 C 4,8 km/h (1 Bft)
28.07.2021 11:36 24,4 C 24,4 C 36,1 C 21,7 C 18,9 C 17,2 C 62 % 66 % 2 cb 10 cb 6 cb 1011,3 hPa 0,0 l/m 8,0 km/h (2 Bft) O 90 0,000 mm 5,3 UV-I 752 W/m 16,6 C 24,0 C 11,3 km/h (2 Bft)
28.07.2021 11:35 24,4 C 24,4 C 36,7 C 21,7 C 18,9 C 17,2 C 61 % 66 % 2 cb 10 cb 6 cb 1011,3 hPa 0,0 l/m 3,2 km/h (1 Bft) SO 135 0,000 mm 5,2 UV-I 752 W/m 16,4 C 24,4 C 4,8 km/h (1 Bft)
28.07.2021 11:34 24,4 C 24,4 C 36,1 C 21,7 C 18,9 C 17,2 C 61 % 67 % 2 cb 10 cb 6 cb 1011,3 hPa 0,0 l/m 1,6 km/h (1 Bft) SO 135 0,000 mm 5,2 UV-I 747 W/m 16,4 C 24,4 C 3,2 km/h (1 Bft)
28.07.2021 11:33 24,5 C 24,4 C 36,1 C 21,7 C 18,9 C 17,2 C 60 % 64 % 2 cb 10 cb 6 cb 1011,3 hPa 0,0 l/m 3,2 km/h (1 Bft) SO 135 0,000 mm 5,2 UV-I 747 W/m 16,2 C 24,5 C 4,8 km/h (1 Bft)
28.07.2021 11:32 24,6 C 24,4 C 35,6 C 21,7 C 18,9 C 17,2 C 60 % 65 % 2 cb 10 cb 6 cb 1011,3 hPa 0,0 l/m 4,8 km/h (1 Bft) SO 135 0,000 mm 5,2 UV-I 745 W/m 16,3 C 24,6 C 6,4 km/h (2 Bft)
28.07.2021 11:31 24,7 C 24,4 C 36,1 C 21,7 C 18,9 C 17,2 C 60 % 62 % 2 cb 10 cb 6 cb 1011,3 hPa 0,0 l/m 3,2 km/h (1 Bft) O 90 0,000 mm 5,2 UV-I 721 W/m 16,4 C 24,7 C 6,4 km/h (2 Bft)
28.07.2021 11:30 24,7 C 24,4 C 35,6 C 21,7 C 18,9 C 17,2 C 59 % 65 % 2 cb 10 cb 6 cb 1011,3 hPa 0,0 l/m 3,2 km/h (1 Bft) NO 45 0,000 mm 5,1 UV-I 737 W/m 16,1 C 24,7 C 8,0 km/h (2 Bft)
28.07.2021 11:29 24,7 C 24,4 C 35,6 C 21,7 C 18,9 C 17,2 C 58 % 64 % 2 cb 10 cb 6 cb 1011,3 hPa 0,0 l/m 6,4 km/h (2 Bft) NO 45 0,000 mm 5,1 UV-I 737 W/m 15,9 C 24,7 C 8,0 km/h (2 Bft)
28.07.2021 11:28 24,7 C 24,4 C 35,6 C 21,7 C 18,9 C 17,2 C 59 % 64 % 2 cb 10 cb 6 cb 1011,3 hPa 0,0 l/m 4,8 km/h (1 Bft) N-NO 22 0,000 mm 5,1 UV-I 735 W/m 16,1 C 24,7 C 9,7 km/h (2 Bft)
28.07.2021 11:27 24,6 C 24,4 C 36,1 C 21,7 C 18,9 C 17,2 C 60 % 66 % 2 cb 10 cb 6 cb 1011,3 hPa 0,0 l/m 4,8 km/h (1 Bft) O-NO 67 0,000 mm 5,1 UV-I 735 W/m 16,3 C 24,6 C 8,0 km/h (2 Bft)
28.07.2021 11:26 24,7 C 24,4 C 36,1 C 21,7 C 18,9 C 17,2 C 59 % 65 % 2 cb 10 cb 6 cb 1011,3 hPa 0,0 l/m 4,8 km/h (1 Bft) O-NO 67 0,000 mm 5,1 UV-I 731 W/m 16,1 C 24,7 C 9,7 km/h (2 Bft)
28.07.2021 11:25 24,8 C 24,4 C 35,6 C 21,7 C 18,9 C 17,2 C 61 % 65 % 2 cb 10 cb 6 cb 1011,3 hPa 0,0 l/m 9,7 km/h (2 Bft) O 90 0,000 mm 5,0 UV-I 728 W/m 16,8 C 24,0 C 12,9 km/h (3 Bft)
28.07.2021 11:24 24,8 C 23,9 C 35,6 C 21,7 C 18,9 C 17,2 C 62 % 64 % 2 cb 10 cb 6 cb 1011,3 hPa 0,0 l/m 4,8 km/h (1 Bft) W-NW 292 0,000 mm 5,0 UV-I 722 W/m 17,0 C 24,8 C 9,7 km/h (2 Bft)
28.07.2021 11:23 24,7 C 23,9 C 36,7 C 21,7 C 18,9 C 17,2 C 60 % 66 % 2 cb 10 cb 6 cb 1011,4 hPa 0,0 l/m 1,6 km/h (1 Bft) W-NW 292 0,000 mm 4,9 UV-I 721 W/m 16,4 C 24,7 C 3,2 km/h (1 Bft)
28.07.2021 11:22 24,7 C 23,9 C 36,1 C 21,7 C 18,9 C 17,2 C 60 % 65 % 2 cb 10 cb 6 cb 1011,3 hPa 0,0 l/m 1,6 km/h (1 Bft) W-NW 292 0,000 mm 4,9 UV-I 719 W/m 16,4 C 24,7 C 3,2 km/h (1 Bft)
28.07.2021 11:21 24,8 C 23,9 C 36,1 C 21,7 C 18,9 C 17,2 C 60 % 64 % 2 cb 10 cb 6 cb 1011,4 hPa 0,0 l/m 3,2 km/h (1 Bft) W-NW 292 0,000 mm 4,9 UV-I 717 W/m 16,5 C 24,8 C 6,4 km/h (2 Bft)
28.07.2021 11:20 24,9 C 23,9 C 36,7 C 21,7 C 18,9 C 17,2 C 58 % 63 % 2 cb 10 cb 6 cb 1011,4 hPa 0,0 l/m 6,4 km/h (2 Bft) N-NW 337 0,000 mm 4,9 UV-I 714 W/m 16,1 C 24,9 C 8,0 km/h (2 Bft)
28.07.2021 11:19 25,0 C 23,9 C 36,1 C 21,7 C 18,9 C 17,2 C 59 % 65 % 2 cb 10 cb 6 cb 1011,4 hPa 0,0 l/m 8,0 km/h (2 Bft) N-NW 337 0,000 mm 4,9 UV-I 714 W/m 16,4 C 24,6 C 9,7 km/h (2 Bft)
28.07.2021 11:18 25,0 C 23,9 C 35,6 C 21,7 C 18,9 C 17,2 C 58 % 64 % 2 cb 10 cb 6 cb 1011,4 hPa 0,0 l/m 4,8 km/h (1 Bft) N 360 0,000 mm 4,8 UV-I 714 W/m 16,1 C 25,0 C 8,0 km/h (2 Bft)
28.07.2021 11:17 24,9 C 23,9 C 35,6 C 21,1 C 18,9 C 17,2 C 60 % 65 % 2 cb 10 cb 6 cb 1011,4 hPa 0,0 l/m 3,2 km/h (1 Bft) N 360 0,000 mm 4,8 UV-I 712 W/m 16,6 C 24,9 C 6,4 km/h (2 Bft)
28.07.2021 11:16 24,7 C 23,9 C 34,4 C 21,1 C 18,9 C 17,2 C 60 % 65 % 2 cb 10 cb 6 cb 1011,3 hPa 0,0 l/m 1,6 km/h (1 Bft) NO 45 0,000 mm 4,8 UV-I 708 W/m 16,4 C 24,7 C 4,8 km/h (1 Bft)
28.07.2021 11:15 24,7 C 23,9 C 34,4 C 21,1 C 18,9 C 17,2 C 59 % 66 % 2 cb 10 cb 6 cb 1011,4 hPa 0,0 l/m 1,6 km/h (1 Bft) O-NO 67 0,000 mm 4,8 UV-I 710 W/m 16,1 C 24,7 C 3,2 km/h (1 Bft)
28.07.2021 11:14 24,8 C 23,9 C 34,4 C 21,1 C 18,9 C 17,2 C 59 % 66 % 2 cb 10 cb 6 cb 1011,4 hPa 0,0 l/m 3,2 km/h (1 Bft) O-NO 67 0,000 mm 4,8 UV-I 708 W/m 16,2 C 24,8 C 6,4 km/h (2 Bft)
28.07.2021 11:13 25,0 C 23,9 C 34,4 C 21,1 C 18,9 C 17,2 C 61 % 65 % 2 cb 10 cb 6 cb 1011,4 hPa 0,0 l/m 3,2 km/h (1 Bft) NO 45 0,000 mm 4,7 UV-I 708 W/m 16,9 C 25,0 C 6,4 km/h (2 Bft)
28.07.2021 11:12 25,0 C 23,9 C 33,9 C 21,1 C 18,9 C 17,2 C 59 % 66 % 3 cb 10 cb 6 cb 1011,4 hPa 0,0 l/m 3,2 km/h (1 Bft) NO 45 0,000 mm 4,7 UV-I 710 W/m 16,4 C 25,0 C 4,8 km/h (1 Bft)
28.07.2021 11:11 25,1 C 23,9 C 33,9 C 21,1 C 18,9 C 17,2 C 58 % 65 % 3 cb 10 cb 6 cb 1011,4 hPa 0,0 l/m 4,8 km/h (1 Bft) NO 45 0,000 mm 4,7 UV-I 707 W/m 16,2 C 25,1 C 6,4 km/h (2 Bft)
28.07.2021 11:10 25,2 C 23,9 C 34,4 C 21,1 C 18,9 C 17,2 C 57 % 65 % 3 cb 10 cb 6 cb 1011,4 hPa 0,0 l/m 8,0 km/h (2 Bft) N-NO 22 0,000 mm 4,7 UV-I 701 W/m 16,1 C 24,8 C 11,3 km/h (2 Bft)
28.07.2021 11:09 25,2 C 23,9 C 34,4 C 21,1 C 18,9 C 17,2 C 63 % 68 % 3 cb 10 cb 6 cb 1011,4 hPa 0,0 l/m 4,8 km/h (1 Bft) NO 45 0,000 mm 4,6 UV-I 698 W/m 17,6 C 25,2 C 9,7 km/h (2 Bft)
28.07.2021 11:08 24,9 C 23,9 C 34,4 C 21,1 C 18,9 C 17,2 C 64 % 68 % 3 cb 10 cb 6 cb 1011,4 hPa 0,0 l/m 1,6 km/h (1 Bft) NO 45 0,000 mm 4,6 UV-I 696 W/m 17,6 C 24,9 C 4,8 km/h (1 Bft)
28.07.2021 11:07 24,7 C 23,3 C 33,9 C 21,1 C 18,9 C 17,2 C 61 % 69 % 3 cb 10 cb 6 cb 1011,4 hPa 0,0 l/m 3,2 km/h (1 Bft) NO 45 0,000 mm 4,6 UV-I 696 W/m 16,7 C 24,7 C 6,4 km/h (2 Bft)
28.07.2021 11:06 24,6 C 23,3 C 33,9 C 21,1 C 18,9 C 17,2 C 62 % 70 % 3 cb 10 cb 6 cb 1011,5 hPa 0,0 l/m 1,6 km/h (1 Bft) NO 45 0,000 mm 4,5 UV-I 693 W/m 16,8 C 24,6 C 4,8 km/h (1 Bft)
28.07.2021 11:05 24,6 C 23,3 C 33,3 C 21,1 C 18,9 C 17,2 C 62 % 69 % 3 cb 10 cb 6 cb 1011,4 hPa 0,0 l/m 1,6 km/h (1 Bft) N-NO 22 0,000 mm 4,4 UV-I 686 W/m 16,8 C 24,6 C 3,2 km/h (1 Bft)
28.07.2021 11:04 24,6 C 23,3 C 33,3 C 21,1 C 18,9 C 17,2 C 64 % 69 % 3 cb 10 cb 6 cb 1011,5 hPa 0,0 l/m 4,8 km/h (1 Bft) N-NO 22 0,000 mm 4,4 UV-I 691 W/m 17,3 C 24,6 C 8,0 km/h (2 Bft)
28.07.2021 11:03 24,4 C 23,3 C 33,3 C 21,1 C 18,9 C 17,2 C 65 % 67 % 3 cb 10 cb 6 cb 1011,5 hPa 0,0 l/m 4,8 km/h (1 Bft) N-NO 22 0,000 mm 3,9 UV-I 701 W/m 17,4 C 24,4 C 9,7 km/h (2 Bft)
28.07.2021 11:02 24,2 C 23,3 C 32,2 C 21,1 C 18,9 C 17,2 C 65 % 67 % 3 cb 10 cb 6 cb 1011,5 hPa 0,0 l/m 3,2 km/h (1 Bft) N 360 0,000 mm 4,4 UV-I 703 W/m 17,2 C 24,2 C 4,8 km/h (1 Bft)
28.07.2021 11:01 24,1 C 23,3 C 31,7 C 21,1 C 18,9 C 17,2 C 61 % 66 % 3 cb 10 cb 6 cb 1011,6 hPa 0,0 l/m 4,8 km/h (1 Bft) N 360 0,000 mm 4,4 UV-I 684 W/m 16,1 C 24,1 C 8,0 km/h (2 Bft)
28.07.2021 11:00 24,1 C 23,3 C 30,6 C 21,1 C 18,9 C 17,2 C 62 % 67 % 3 cb 10 cb 6 cb 1011,6 hPa 0,0 l/m 8,0 km/h (2 Bft) N 360 0,305 mm 4,3 UV-I 664 W/m 16,4 C 23,7 C 11,3 km/h (2 Bft)
28.07.2021 10:59 24,2 C 23,3 C 29,4 C 21,1 C 18,9 C 17,2 C 62 % 67 % 3 cb 10 cb 6 cb 1011,5 hPa 0,0 l/m 6,4 km/h (2 Bft) N-NW 337 0,000 mm 4,3 UV-I 664 W/m 16,4 C 24,2 C 9,7 km/h (2 Bft)
28.07.2021 10:58 24,2 C 23,3 C 27,8 C 21,1 C 18,9 C 17,2 C 64 % 66 % 3 cb 10 cb 6 cb 1011,6 hPa 0,0 l/m 3,2 km/h (1 Bft) N-NW 337 0,000 mm 4,2 UV-I 631 W/m 16,9 C 24,2 C 6,4 km/h (2 Bft)
28.07.2021 10:57 24,2 C 23,3 C 26,7 C 21,1 C 18,9 C 17,2 C 63 % 66 % 3 cb 10 cb 6 cb 1011,6 hPa 0,0 l/m 3,2 km/h (1 Bft) N-NW 337 0,000 mm 4,0 UV-I 120 W/m 16,7 C 24,2 C 9,7 km/h (2 Bft)
28.07.2021 10:56 24,2 C 23,3 C 26,7 C 21,1 C 18,9 C 17,2 C 62 % 67 % 3 cb 10 cb 6 cb 1011,6 hPa 0,0 l/m 1,6 km/h (1 Bft) N-NW 337 0,000 mm 3,8 UV-I 120 W/m 16,4 C 24,2 C 3,2 km/h (1 Bft)
28.07.2021 10:55 24,3 C 23,3 C 27,2 C 21,1 C 18,9 C 17,2 C 62 % 67 % 3 cb 10 cb 6 cb 1011,6 hPa 0,0 l/m 3,2 km/h (1 Bft) N-NW 337 0,000 mm 2,5 UV-I 120 W/m 16,5 C 24,3 C 6,4 km/h (2 Bft)
28.07.2021 10:54 24,5 C 23,3 C 27,8 C 21,1 C 18,9 C 17,2 C 64 % 69 % 3 cb 10 cb 6 cb 1011,6 hPa 0,0 l/m 3,2 km/h (1 Bft) N 360 0,000 mm 2,4 UV-I 128 W/m 17,2 C 24,5 C 6,4 km/h (2 Bft)
28.07.2021 10:53 24,4 C 23,3 C 27,8 C 21,1 C 18,9 C 17,2 C 64 % 68 % 3 cb 10 cb 6 cb 1011,6 hPa 0,0 l/m 1,6 km/h (1 Bft) N 360 0,000 mm 2,5 UV-I 329 W/m 17,1 C 24,4 C 3,2 km/h (1 Bft)
28.07.2021 10:52 24,4 C 23,3 C 28,3 C 21,1 C 18,9 C 17,2 C 63 % 68 % 3 cb 10 cb 6 cb 1011,6 hPa 0,0 l/m 3,2 km/h (1 Bft) N 360 0,000 mm 3,2 UV-I 329 W/m 16,9 C 24,4 C 6,4 km/h (2 Bft)
28.07.2021 10:51 24,2 C 23,3 C 28,3 C 21,1 C 18,9 C 17,2 C 63 % 69 % 3 cb 10 cb 6 cb 1011,6 hPa 0,0 l/m 3,2 km/h (1 Bft) N 360 0,000 mm 3,0 UV-I 334 W/m 16,7 C 24,2 C 8,0 km/h (2 Bft)
28.07.2021 10:50 24,2 C 23,3 C 28,9 C 21,1 C 18,9 C 17,2 C 62 % 70 % 3 cb 10 cb 6 cb 1011,7 hPa 0,0 l/m 6,4 km/h (2 Bft) N-NO 22 0,000 mm 3,1 UV-I 309 W/m 16,4 C 24,2 C 8,0 km/h (2 Bft)
28.07.2021 10:49 24,2 C 22,8 C 30,6 C 21,1 C 18,9 C 17,2 C 63 % 69 % 3 cb 10 cb 6 cb 1011,7 hPa 0,0 l/m 4,8 km/h (1 Bft) NO 45 0,000 mm 3,5 UV-I 684 W/m 16,7 C 24,2 C 6,4 km/h (2 Bft)
28.07.2021 10:48 24,3 C 22,8 C 30,0 C 21,1 C 18,9 C 17,2 C 61 % 70 % 3 cb 10 cb 6 cb 1011,6 hPa 0,0 l/m 4,8 km/h (1 Bft) N-NO 22 0,000 mm 4,0 UV-I 684 W/m 16,3 C 24,3 C 6,4 km/h (2 Bft)
28.07.2021 10:47 24,4 C 22,8 C 29,4 C 21,1 C 18,9 C 17,2 C 62 % 71 % 3 cb 10 cb 6 cb 1011,6 hPa 0,0 l/m 6,4 km/h (2 Bft) N-NO 22 0,000 mm 4,2 UV-I 694 W/m 16,6 C 24,4 C 9,7 km/h (2 Bft)
28.07.2021 10:46 24,5 C 22,8 C 28,9 C 21,1 C 18,9 C 17,2 C 63 % 70 % 3 cb 10 cb 6 cb 1011,6 hPa 0,0 l/m 6,4 km/h (2 Bft) N-NO 22 0,000 mm 4,0 UV-I 640 W/m 17,0 C 24,5 C 8,0 km/h (2 Bft)
28.07.2021 10:45 24,6 C 22,8 C 29,4 C 21,1 C 18,9 C 17,2 C 66 % 69 % 3 cb 10 cb 6 cb 1011,6 hPa 0,0 l/m 6,4 km/h (2 Bft) N-NO 22 0,000 mm 4,0 UV-I 621 W/m 17,8 C 24,6 C 8,0 km/h (2 Bft)
28.07.2021 10:44 24,6 C 22,8 C 28,9 C 21,1 C 18,9 C 17,2 C 65 % 69 % 3 cb 10 cb 6 cb 1011,6 hPa 0,0 l/m 4,8 km/h (1 Bft) N-NW 337 0,000 mm 4,1 UV-I 691 W/m 17,6 C 24,6 C 8,0 km/h (2 Bft)
28.07.2021 10:43 24,6 C 22,8 C 28,9 C 21,1 C 18,9 C 17,2 C 64 % 71 % 3 cb 10 cb 6 cb 1011,6 hPa 0,0 l/m 4,8 km/h (1 Bft) N 360 0,000 mm 4,1 UV-I 693 W/m 17,3 C 24,6 C 9,7 km/h (2 Bft)
28.07.2021 10:42 24,6 C 22,8 C 28,9 C 21,1 C 18,9 C 17,2 C 66 % 73 % 3 cb 10 cb 6 cb 1011,6 hPa 0,0 l/m 4,8 km/h (1 Bft) N 360 0,000 mm 4,1 UV-I 700 W/m 17,8 C 24,6 C 6,4 km/h (2 Bft)
28.07.2021 10:41 24,4 C 22,8 C 28,9 C 21,1 C 18,9 C 17,2 C 66 % 73 % 3 cb 10 cb 6 cb 1011,7 hPa 0,0 l/m 3,2 km/h (1 Bft) NW 315 0,000 mm 4,2 UV-I 710 W/m 17,6 C 24,4 C 4,8 km/h (1 Bft)
28.07.2021 10:40 24,5 C 22,8 C 28,9 C 21,1 C 18,9 C 17,2 C 66 % 71 % 3 cb 10 cb 6 cb 1011,6 hPa 0,0 l/m 1,6 km/h (1 Bft) NW 315 0,000 mm 4,2 UV-I 721 W/m 17,7 C 24,5 C 3,2 km/h (1 Bft)
28.07.2021 10:39 24,5 C 22,8 C 28,3 C 21,1 C 18,9 C 17,2 C 68 % 71 % 3 cb 10 cb 6 cb 1011,6 hPa 0,0 l/m 3,2 km/h (1 Bft) N 360 0,000 mm 4,2 UV-I 729 W/m 18,2 C 24,5 C 6,4 km/h (2 Bft)
28.07.2021 10:38 24,3 C 22,8 C 27,8 C 21,1 C 18,9 C 17,2 C 67 % 71 % 3 cb 10 cb 6 cb 1011,7 hPa 0,0 l/m 1,6 km/h (1 Bft) N-NO 22 0,000 mm 4,2 UV-I 751 W/m 17,8 C 24,3 C 4,8 km/h (1 Bft)
28.07.2021 10:37 24,1 C 22,8 C 27,2 C 21,1 C 18,9 C 17,2 C 66 % 70 % 3 cb 10 cb 6 cb 1011,8 hPa 0,0 l/m 3,2 km/h (1 Bft) N-NO 22 0,000 mm 4,1 UV-I 768 W/m 17,3 C 24,1 C 4,8 km/h (1 Bft)
28.07.2021 10:36 23,9 C 22,8 C 27,2 C 21,1 C 18,9 C 17,2 C 65 % 72 % 3 cb 10 cb 6 cb 1011,8 hPa 0,0 l/m 3,2 km/h (1 Bft) N-NO 22 0,000 mm 4,2 UV-I 761 W/m 16,9 C 23,9 C 4,8 km/h (1 Bft)
28.07.2021 10:35 23,9 C 22,8 C 26,7 C 21,1 C 18,9 C 17,2 C 65 % 71 % 3 cb 10 cb 6 cb 1011,8 hPa 0,0 l/m 4,8 km/h (1 Bft) N-NO 22 0,000 mm 3,7 UV-I 698 W/m 16,9 C 23,9 C 6,4 km/h (2 Bft)
28.07.2021 10:34 23,7 C 22,8 C 26,7 C 21,1 C 18,9 C 17,2 C 67 % 71 % 3 cb 10 cb 6 cb 1011,8 hPa 0,0 l/m 0,0 km/h (0 Bft) N-NO 22 0,000 mm 4,0 UV-I 503 W/m 17,2 C 23,7 C 3,2 km/h (1 Bft)
28.07.2021 10:33 23,7 C 22,8 C 26,1 C 21,1 C 18,9 C 17,2 C 67 % 71 % 3 cb 10 cb 6 cb 1011,8 hPa 0,0 l/m 1,6 km/h (1 Bft) N-NO 22 0,000 mm 3,9 UV-I 503 W/m 17,2 C 23,7 C 3,2 km/h (1 Bft)
28.07.2021 10:32 23,7 C 22,2 C 25,6 C 21,1 C 18,9 C 17,2 C 66 % 70 % 3 cb 10 cb 6 cb 1011,8 hPa 0,0 l/m 1,6 km/h (1 Bft) N-NO 22 0,000 mm 3,9 UV-I 503 W/m 17,0 C 23,7 C 3,2 km/h (1 Bft)
28.07.2021 10:31 23,7 C 22,2 C 25,6 C 21,1 C 18,9 C 17,2 C 65 % 70 % 3 cb 10 cb 6 cb 1011,8 hPa 0,0 l/m 3,2 km/h (1 Bft) N-NO 22 0,000 mm 3,7 UV-I 584 W/m 16,7 C 23,7 C 4,8 km/h (1 Bft)
28.07.2021 10:30 23,7 C 22,2 C 25,6 C 21,1 C 18,9 C 17,2 C 66 % 71 % 3 cb 10 cb 6 cb 1011,7 hPa 0,0 l/m 1,6 km/h (1 Bft) N-NO 22 0,000 mm 3,5 UV-I 362 W/m 17,0 C 23,7 C 3,2 km/h (1 Bft)
28.07.2021 10:29 23,7 C 22,2 C 25,0 C 21,1 C 18,9 C 17,2 C 64 % 72 % 3 cb 10 cb 6 cb 1011,8 hPa 0,0 l/m 3,2 km/h (1 Bft) N-NO 22 0,000 mm 3,6 UV-I 362 W/m 16,5 C 23,7 C 4,8 km/h (1 Bft)
28.07.2021 10:28 23,8 C 22,2 C 25,0 C 21,1 C 18,9 C 17,2 C 67 % 71 % 3 cb 10 cb 6 cb 1011,8 hPa 0,0 l/m 1,6 km/h (1 Bft) N-NO 22 0,000 mm 3,0 UV-I 362 W/m 17,3 C 23,8 C 3,2 km/h (1 Bft)
28.07.2021 10:27 23,8 C 22,2 C 24,4 C 21,1 C 18,9 C 17,2 C 66 % 72 % 3 cb 10 cb 6 cb 1011,8 hPa 0,0 l/m 0,0 km/h (0 Bft) N-NO 22 0,000 mm 2,9 UV-I 362 W/m 17,1 C 23,8 C 1,6 km/h (1 Bft)
28.07.2021 10:26 23,5 C 22,2 C 24,4 C 21,1 C 18,9 C 17,2 C 67 % 72 % 3 cb 10 cb 6 cb 1011,8 hPa 0,0 l/m 1,6 km/h (1 Bft) N-NO 22 0,000 mm 3,5 UV-I 274 W/m 17,0 C 23,5 C 3,2 km/h (1 Bft)
28.07.2021 10:25 23,4 C 22,2 C 23,9 C 21,1 C 18,9 C 17,2 C 67 % 72 % 3 cb 10 cb 6 cb 1011,8 hPa 0,0 l/m 3,2 km/h (1 Bft) N-NO 22 0,000 mm 2,5 UV-I 251 W/m 16,9 C 23,4 C 4,8 km/h (1 Bft)
28.07.2021 10:24 23,4 C 22,2 C 23,9 C 21,1 C 18,9 C 17,2 C 68 % 71 % 3 cb 10 cb 6 cb 1011,8 hPa 0,0 l/m 1,6 km/h (1 Bft) NO 45 0,000 mm 2,5 UV-I 209 W/m 17,1 C 23,4 C 3,2 km/h (1 Bft)
28.07.2021 10:23 23,4 C 22,2 C 23,9 C 21,1 C 18,9 C 17,2 C 67 % 71 % 3 cb 10 cb 6 cb 1011,7 hPa 0,0 l/m 1,6 km/h (1 Bft) NO 45 0,000 mm 2,4 UV-I 204 W/m 16,9 C 23,4 C 1,6 km/h (1 Bft)
28.07.2021 10:22 23,3 C 22,2 C 24,4 C 21,1 C 18,9 C 17,2 C 66 % 72 % 3 cb 10 cb 6 cb 1011,7 hPa 0,0 l/m 1,6 km/h (1 Bft) NO 45 0,000 mm 2,4 UV-I 220 W/m 16,6 C 23,3 C 3,2 km/h (1 Bft)
28.07.2021 10:21 23,3 C 22,2 C 24,4 C 21,1 C 18,9 C 17,2 C 65 % 71 % 3 cb 10 cb 6 cb 1011,7 hPa 0,0 l/m 3,2 km/h (1 Bft) NO 45 0,000 mm 2,5 UV-I 204 W/m 16,3 C 23,3 C 6,4 km/h (2 Bft)
28.07.2021 10:20 23,5 C 22,2 C 24,4 C 21,1 C 18,9 C 17,2 C 65 % 71 % 3 cb 10 cb 6 cb 1011,6 hPa 0,0 l/m 3,2 km/h (1 Bft) N 360 0,000 mm 3,1 UV-I 192 W/m 16,5 C 23,5 C 4,8 km/h (1 Bft)
28.07.2021 10:19 23,6 C 22,2 C 24,4 C 21,1 C 18,9 C 17,2 C 67 % 71 % 3 cb 10 cb 6 cb 1011,6 hPa 0,0 l/m 4,8 km/h (1 Bft) N 360 0,000 mm 2,5 UV-I 269 W/m 17,1 C 23,6 C 4,8 km/h (1 Bft)
28.07.2021 10:18 23,6 C 22,2 C 25,0 C 20,6 C 18,9 C 17,2 C 65 % 72 % 3 cb 10 cb 6 cb 1011,7 hPa 0,0 l/m 3,2 km/h (1 Bft) N 360 0,000 mm 2,5 UV-I 330 W/m 16,6 C 23,6 C 6,4 km/h (2 Bft)
28.07.2021 10:17 23,6 C 22,2 C 25,0 C 20,6 C 18,9 C 17,2 C 66 % 71 % 3 cb 10 cb 6 cb 1011,6 hPa 0,0 l/m 1,6 km/h (1 Bft) N-NW 337 0,000 mm 2,4 UV-I 330 W/m 16,9 C 23,6 C 4,8 km/h (1 Bft)
28.07.2021 10:16 23,4 C 22,2 C 25,0 C 20,6 C 18,9 C 17,2 C 67 % 70 % 3 cb 10 cb 6 cb 1011,6 hPa 0,0 l/m 0,0 km/h (0 Bft) N-NW 337 0,000 mm 2,4 UV-I 230 W/m 16,9 C 23,4 C 3,2 km/h (1 Bft)
28.07.2021 10:15 23,3 C 22,2 C 24,4 C 20,6 C 18,9 C 17,2 C 66 % 69 % 3 cb 10 cb 6 cb 1011,6 hPa 0,0 l/m 1,6 km/h (1 Bft) N-NW 337 0,000 mm 2,6 UV-I 230 W/m 16,6 C 23,3 C 3,2 km/h (1 Bft)
28.07.2021 10:14 23,3 C 22,2 C 25,0 C 20,6 C 18,9 C 17,2 C 66 % 70 % 3 cb 10 cb 6 cb 1011,6 hPa 0,0 l/m 1,6 km/h (1 Bft) N-NW 337 0,000 mm 2,3 UV-I 230 W/m 16,6 C 23,3 C 3,2 km/h (1 Bft)
28.07.2021 10:13 23,2 C 22,2 C 25,0 C 20,6 C 18,9 C 17,2 C 66 % 70 % 3 cb 10 cb 6 cb 1011,7 hPa 0,0 l/m 1,6 km/h (1 Bft) N-NW 337 0,000 mm 2,9 UV-I 258 W/m 16,5 C 23,2 C 4,8 km/h (1 Bft)
28.07.2021 10:12 23,2 C 21,7 C 25,0 C 20,6 C 18,9 C 17,2 C 67 % 71 % 3 cb 10 cb 6 cb 1011,6 hPa 0,0 l/m 3,2 km/h (1 Bft) N-NW 337 0,000 mm 2,4 UV-I 258 W/m 16,7 C 23,2 C 6,4 km/h (2 Bft)
28.07.2021 10:11 23,2 C 21,7 C 25,0 C 20,6 C 18,9 C 17,2 C 68 % 72 % 3 cb 10 cb 6 cb 1011,6 hPa 0,0 l/m 3,2 km/h (1 Bft) S-SW 202 0,000 mm 2,6 UV-I 345 W/m 17,0 C 23,2 C 4,8 km/h (1 Bft)
28.07.2021 10:10 23,1 C 21,7 C 25,0 C 20,6 C 18,9 C 17,2 C 69 % 71 % 3 cb 10 cb 6 cb 1011,6 hPa 0,0 l/m 1,6 km/h (1 Bft) S-SW 202 0,000 mm 2,5 UV-I 267 W/m 17,1 C 23,1 C 3,2 km/h (1 Bft)
28.07.2021 10:09 23,2 C 21,7 C 25,0 C 20,6 C 18,9 C 17,2 C 68 % 71 % 3 cb 10 cb 6 cb 1011,7 hPa 0,0 l/m 1,6 km/h (1 Bft) S-SW 202 0,000 mm 2,4 UV-I 248 W/m 17,0 C 23,2 C 3,2 km/h (1 Bft)
28.07.2021 10:08 23,2 C 21,7 C 25,0 C 20,6 C 18,9 C 17,2 C 69 % 71 % 3 cb 10 cb 6 cb 1011,6 hPa 0,0 l/m 1,6 km/h (1 Bft) S-SW 202 0,000 mm 2,5 UV-I 265 W/m 17,2 C 23,2 C 3,2 km/h (1 Bft)
28.07.2021 10:07 23,1 C 21,7 C 25,0 C 20,6 C 18,9 C 17,2 C 70 % 73 % 3 cb 10 cb 6 cb 1011,7 hPa 0,0 l/m 0,0 km/h (0 Bft) S-SW 202 0,000 mm 2,7 UV-I 617 W/m 17,3 C 23,1 C 1,6 km/h (1 Bft)
28.07.2021 10:06 22,9 C 21,7 C 25,0 C 20,6 C 18,9 C 17,2 C 70 % 76 % 3 cb 10 cb 6 cb 1011,6 hPa 0,0 l/m 0,0 km/h (0 Bft) S-SW 202 0,000 mm 3,2 UV-I 617 W/m 17,1 C 22,9 C 1,6 km/h (1 Bft)
28.07.2021 10:05 22,7 C 21,7 C 24,4 C 20,6 C 18,9 C 17,2 C 72 % 76 % 3 cb 10 cb 6 cb 1011,6 hPa 0,0 l/m 0,0 km/h (0 Bft) S-SW 202 0,000 mm 3,3 UV-I 633 W/m 17,4 C 22,7 C 1,6 km/h (1 Bft)
28.07.2021 10:04 22,4 C 21,7 C 23,9 C 20,6 C 18,9 C 17,2 C 71 % 75 % 3 cb 10 cb 6 cb 1011,6 hPa 0,0 l/m 0,0 km/h (0 Bft) S-SW 202 0,000 mm 3,1 UV-I 589 W/m 16,9 C 22,4 C 1,6 km/h (1 Bft)
28.07.2021 10:03 22,4 C 21,7 C 23,9 C 20,6 C 18,9 C 17,2 C 74 % 75 % 3 cb 10 cb 6 cb 1011,7 hPa 0,0 l/m 1,6 km/h (1 Bft) S-SW 202 0,000 mm 3,1 UV-I 591 W/m 17,5 C 22,4 C 3,2 km/h (1 Bft)
28.07.2021 10:02 22,3 C 21,7 C 23,3 C 20,6 C 18,9 C 17,2 C 74 % 76 % 3 cb 10 cb 6 cb 1011,6 hPa 0,0 l/m 1,6 km/h (1 Bft) S-SW 202 0,000 mm 3,2 UV-I 566 W/m 17,4 C 22,3 C 3,2 km/h (1 Bft)
28.07.2021 10:01 22,3 C 21,7 C 23,3 C 20,6 C 18,9 C 17,2 C 74 % 76 % 3 cb 10 cb 6 cb 1011,8 hPa 0,0 l/m 3,2 km/h (1 Bft) S-SW 202 0,000 mm 3,2 UV-I 605 W/m 17,4 C 22,3 C 4,8 km/h (1 Bft)
28.07.2021 10:00 22,2 C 21,7 C 22,8 C 20,6 C 18,9 C 17,2 C 74 % 76 % 3 cb 10 cb 6 cb 1011,8 hPa 0,0 l/m 4,8 km/h (1 Bft) S-SW 202 0,254 mm 3,0 UV-I 557 W/m 17,3 C 22,2 C 6,4 km/h (2 Bft)
28.07.2021 09:59 22,2 C 21,7 C 22,8 C 20,6 C 18,9 C 17,2 C 73 % 75 % 3 cb 10 cb 6 cb 1011,7 hPa 0,0 l/m 3,2 km/h (1 Bft) S-SW 202 0,000 mm 3,1 UV-I 578 W/m 17,1 C 22,2 C 4,8 km/h (1 Bft)
28.07.2021 09:58 22,2 C 21,7 C 22,8 C 20,6 C 18,9 C 17,2 C 74 % 75 % 3 cb 10 cb 6 cb 1011,8 hPa 0,0 l/m 3,2 km/h (1 Bft) S-SW 202 0,000 mm 3,1 UV-I 570 W/m 17,3 C 22,2 C 4,8 km/h (1 Bft)
28.07.2021 09:57 22,1 C 21,7 C 22,8 C 20,6 C 18,9 C 17,2 C 73 % 75 % 3 cb 10 cb 6 cb 1011,8 hPa 0,0 l/m 3,2 km/h (1 Bft) S-SW 202 0,000 mm 3,1 UV-I 568 W/m 17,0 C 22,1 C 3,2 km/h (1 Bft)
28.07.2021 09:56 22,1 C 21,7 C 22,8 C 20,6 C 18,9 C 17,2 C 75 % 74 % 3 cb 10 cb 6 cb 1011,8 hPa 0,0 l/m 3,2 km/h (1 Bft) S-SW 202 0,000 mm 3,0 UV-I 564 W/m 17,5 C 22,1 C 4,8 km/h (1 Bft)
28.07.2021 09:55 21,9 C 21,7 C 22,8 C 20,6 C 18,9 C 17,2 C 75 % 76 % 3 cb 10 cb 6 cb 1011,8 hPa 0,0 l/m 3,2 km/h (1 Bft) S-SW 202 0,000 mm 3,0 UV-I 557 W/m 17,3 C 21,9 C 4,8 km/h (1 Bft)
28.07.2021 09:54 21,8 C 21,7 C 22,8 C 20,6 C 18,9 C 17,2 C 74 % 75 % 3 cb 10 cb 6 cb 1011,8 hPa 0,0 l/m 3,2 km/h (1 Bft) S-SW 202 0,000 mm 3,0 UV-I 555 W/m 17,0 C 21,8 C 4,8 km/h (1 Bft)
28.07.2021 09:53 21,6 C 21,7 C 22,8 C 20,6 C 18,9 C 17,2 C 76 % 76 % 3 cb 10 cb 6 cb 1011,8 hPa 0,0 l/m 3,2 km/h (1 Bft) S-SW 202 0,000 mm 3,0 UV-I 555 W/m 17,2 C 21,6 C 4,8 km/h (1 Bft)
28.07.2021 09:52 21,5 C 21,7 C 22,2 C 20,6 C 18,9 C 17,2 C 77 % 75 % 3 cb 10 cb 6 cb 1011,9 hPa 0,0 l/m 4,8 km/h (1 Bft) S-SW 202 0,000 mm 3,0 UV-I 554 W/m 17,3 C 21,5 C 4,8 km/h (1 Bft)
28.07.2021 09:51 21,4 C 21,1 C 22,2 C 20,6 C 18,9 C 17,2 C 77 % 75 % 3 cb 10 cb 6 cb 1011,9 hPa 0,0 l/m 3,2 km/h (1 Bft) S-SW 202 0,000 mm 2,9 UV-I 552 W/m 17,2 C 21,4 C 4,8 km/h (1 Bft)
28.07.2021 09:50 21,4 C 21,1 C 22,2 C 20,6 C 18,9 C 17,2 C 75 % 76 % 3 cb 10 cb 6 cb 1011,9 hPa 0,0 l/m 1,6 km/h (1 Bft) S-SW 202 0,000 mm 2,9 UV-I 550 W/m 16,8 C 21,4 C 3,2 km/h (1 Bft)
28.07.2021 09:49 21,4 C 21,1 C 22,2 C 20,6 C 18,9 C 17,2 C 76 % 76 % 3 cb 10 cb 6 cb 1011,9 hPa 0,0 l/m 3,2 km/h (1 Bft) S-SW 202 0,000 mm 2,9 UV-I 545 W/m 17,0 C 21,4 C 4,8 km/h (1 Bft)
28.07.2021 09:48 21,6 C 21,1 C 22,2 C 20,6 C 18,9 C 17,2 C 78 % 76 % 3 cb 10 cb 6 cb 1011,9 hPa 0,0 l/m 4,8 km/h (1 Bft) S-SW 202 0,000 mm 2,8 UV-I 545 W/m 17,6 C 21,6 C 6,4 km/h (2 Bft)
28.07.2021 09:47 21,6 C 21,1 C 22,2 C 20,6 C 18,9 C 17,2 C 78 % 77 % 3 cb 10 cb 6 cb 1011,9 hPa 0,0 l/m 1,6 km/h (1 Bft) S-SW 202 0,000 mm 2,8 UV-I 543 W/m 17,6 C 21,6 C 4,8 km/h (1 Bft)
28.07.2021 09:46 21,7 C 21,1 C 22,2 C 20,6 C 18,9 C 17,2 C 79 % 77 % 3 cb 10 cb 6 cb 1012,0 hPa 0,0 l/m 3,2 km/h (1 Bft) S-SW 202 0,000 mm 2,8 UV-I 543 W/m 17,9 C 21,7 C 4,8 km/h (1 Bft)
28.07.2021 09:45 21,7 C 21,1 C 22,2 C 20,6 C 18,9 C 17,2 C 80 % 77 % 3 cb 10 cb 6 cb 1012,0 hPa 0,0 l/m 1,6 km/h (1 Bft) S-SW 202 0,000 mm 2,8 UV-I 541 W/m 18,1 C 21,7 C 4,8 km/h (1 Bft)
28.07.2021 09:44 21,6 C 21,1 C 22,2 C 20,6 C 18,9 C 17,2 C 79 % 77 % 3 cb 10 cb 6 cb 1012,0 hPa 0,0 l/m 3,2 km/h (1 Bft) S-SW 202 0,000 mm 2,7 UV-I 540 W/m 17,8 C 21,6 C 4,8 km/h (1 Bft)
28.07.2021 09:43 21,6 C 21,1 C 22,2 C 20,6 C 18,9 C 17,2 C 80 % 78 % 3 cb 10 cb 6 cb 1012,1 hPa 0,0 l/m 4,8 km/h (1 Bft) S-SW 202 0,000 mm 2,7 UV-I 540 W/m 18,0 C 21,6 C 6,4 km/h (2 Bft)
28.07.2021 09:42 21,7 C 21,1 C 22,2 C 20,6 C 18,9 C 17,2 C 81 % 78 % 3 cb 10 cb 6 cb 1012,0 hPa 0,0 l/m 4,8 km/h (1 Bft) S-SW 202 0,000 mm 2,7 UV-I 545 W/m 18,3 C 21,7 C 6,4 km/h (2 Bft)
28.07.2021 09:41 21,6 C 21,1 C 22,2 C 20,6 C 18,9 C 17,2 C 81 % 78 % 3 cb 10 cb 6 cb 1012,1 hPa 0,0 l/m 4,8 km/h (1 Bft) S-SW 202 0,000 mm 2,7 UV-I 552 W/m 18,2 C 21,6 C 6,4 km/h (2 Bft)
28.07.2021 09:40 21,5 C 21,1 C 22,2 C 20,6 C 18,9 C 17,2 C 80 % 77 % 3 cb 10 cb 6 cb 1012,1 hPa 0,0 l/m 4,8 km/h (1 Bft) S-SW 202 0,000 mm 2,7 UV-I 552 W/m 17,9 C 21,5 C 6,4 km/h (2 Bft)
28.07.2021 09:39 21,4 C 21,1 C 22,2 C 20,6 C 18,9 C 17,2 C 80 % 77 % 3 cb 10 cb 6 cb 1012,1 hPa 0,0 l/m 4,8 km/h (1 Bft) S-SW 202 0,000 mm 2,6 UV-I 552 W/m 17,8 C 21,4 C 6,4 km/h (2 Bft)
28.07.2021 09:38 21,5 C 21,1 C 22,2 C 20,6 C 18,9 C 17,2 C 79 % 78 % 3 cb 10 cb 6 cb 1012,1 hPa 0,0 l/m 4,8 km/h (1 Bft) S-SW 202 0,000 mm 2,6 UV-I 552 W/m 17,7 C 21,5 C 6,4 km/h (2 Bft)
28.07.2021 09:37 21,6 C 21,1 C 22,8 C 20,6 C 18,9 C 17,2 C 80 % 79 % 3 cb 10 cb 6 cb 1012,1 hPa 0,0 l/m 4,8 km/h (1 Bft) S-SW 202 0,000 mm 2,6 UV-I 543 W/m 18,0 C 21,6 C 8,0 km/h (2 Bft)
28.07.2021 09:36 21,6 C 21,1 C 22,8 C 20,6 C 18,9 C 17,2 C 81 % 79 % 3 cb 10 cb 6 cb 1012,2 hPa 0,0 l/m 4,8 km/h (1 Bft) S 180 0,000 mm 2,6 UV-I 543 W/m 18,2 C 21,6 C 4,8 km/h (1 Bft)
28.07.2021 09:35 21,7 C 21,1 C 22,8 C 20,6 C 18,9 C 17,2 C 82 % 79 % 3 cb 10 cb 6 cb 1012,2 hPa 0,0 l/m 1,6 km/h (1 Bft) SW 225 0,000 mm 2,6 UV-I 541 W/m 18,5 C 21,7 C 4,8 km/h (1 Bft)
28.07.2021 09:34 21,6 C 21,1 C 22,2 C 20,6 C 18,9 C 17,2 C 83 % 79 % 3 cb 10 cb 6 cb 1012,2 hPa 0,0 l/m 3,2 km/h (1 Bft) S-SW 202 0,000 mm 2,6 UV-I 547 W/m 18,6 C 21,6 C 4,8 km/h (1 Bft)
28.07.2021 09:33 21,5 C 21,1 C 22,2 C 20,6 C 18,9 C 17,2 C 82 % 79 % 3 cb 10 cb 6 cb 1012,2 hPa 0,0 l/m 3,2 km/h (1 Bft) S-SW 202 0,000 mm 2,5 UV-I 548 W/m 18,3 C 21,5 C 4,8 km/h (1 Bft)
28.07.2021 09:32 21,5 C 21,1 C 22,8 C 20,6 C 18,9 C 17,2 C 82 % 79 % 3 cb 10 cb 6 cb 1012,2 hPa 0,0 l/m 3,2 km/h (1 Bft) S-SW 202 0,000 mm 2,5 UV-I 563 W/m 18,3 C 21,5 C 4,8 km/h (1 Bft)
28.07.2021 09:31 21,5 C 21,1 C 22,2 C 20,6 C 18,9 C 17,2 C 82 % 79 % 3 cb 10 cb 6 cb 1012,2 hPa 0,0 l/m 4,8 km/h (1 Bft) S-SW 202 0,000 mm 2,5 UV-I 563 W/m 18,3 C 21,5 C 6,4 km/h (2 Bft)
28.07.2021 09:30 21,5 C 21,1 C 22,8 C 20,6 C 18,9 C 17,2 C 82 % 80 % 3 cb 10 cb 6 cb 1012,2 hPa 0,0 l/m 3,2 km/h (1 Bft) S-SW 202 0,000 mm 2,5 UV-I 557 W/m 18,3 C 21,5 C 4,8 km/h (1 Bft)
28.07.2021 09:29 21,5 C 21,1 C 22,8 C 20,6 C 18,9 C 17,2 C 83 % 81 % 3 cb 10 cb 6 cb 1012,2 hPa 0,0 l/m 4,8 km/h (1 Bft) S-SW 202 0,000 mm 2,5 UV-I 555 W/m 18,5 C 21,5 C 8,0 km/h (2 Bft)
28.07.2021 09:28 21,5 C 21,1 C 22,8 C 20,6 C 18,9 C 17,2 C 84 % 81 % 3 cb 10 cb 6 cb 1012,2 hPa 0,0 l/m 3,2 km/h (1 Bft) SW 225 0,000 mm 2,4 UV-I 559 W/m 18,7 C 21,5 C 6,4 km/h (2 Bft)
28.07.2021 09:27 21,3 C 21,1 C 22,8 C 20,6 C 18,9 C 17,2 C 84 % 81 % 3 cb 10 cb 6 cb 1012,2 hPa 0,0 l/m 3,2 km/h (1 Bft) S-SW 202 0,000 mm 2,3 UV-I 563 W/m 18,5 C 21,3 C 4,8 km/h (1 Bft)
28.07.2021 09:26 21,2 C 21,1 C 22,2 C 20,6 C 18,9 C 17,2 C 84 % 80 % 3 cb 10 cb 6 cb 1012,2 hPa 0,0 l/m 1,6 km/h (1 Bft) S-SW 202 0,000 mm 2,3 UV-I 571 W/m 18,4 C 21,2 C 3,2 km/h (1 Bft)
28.07.2021 09:25 21,1 C 21,1 C 22,2 C 20,6 C 18,9 C 17,2 C 83 % 80 % 3 cb 10 cb 6 cb 1012,1 hPa 0,0 l/m 3,2 km/h (1 Bft) S-SW 202 0,000 mm 2,2 UV-I 302 W/m 18,1 C 21,1 C 4,8 km/h (1 Bft)
28.07.2021 09:24 21,1 C 21,1 C 22,2 C 20,6 C 18,9 C 17,2 C 84 % 80 % 3 cb 10 cb 6 cb 1012,1 hPa 0,0 l/m 1,6 km/h (1 Bft) S-SW 202 0,000 mm 2,2 UV-I 302 W/m 18,3 C 21,1 C 3,2 km/h (1 Bft)
28.07.2021 09:23 21,0 C 21,1 C 22,2 C 20,6 C 18,9 C 17,2 C 83 % 80 % 3 cb 10 cb 6 cb 1012,2 hPa 0,0 l/m 4,8 km/h (1 Bft) SW 225 0,000 mm 2,0 UV-I 302 W/m 18,0 C 21,0 C 6,4 km/h (2 Bft)
28.07.2021 09:22 21,1 C 21,1 C 22,2 C 20,6 C 18,9 C 17,2 C 84 % 81 % 3 cb 10 cb 6 cb 1012,1 hPa 0,0 l/m 4,8 km/h (1 Bft) SW 225 0,000 mm 1,6 UV-I 211 W/m 18,3 C 21,1 C 6,4 km/h (2 Bft)
28.07.2021 09:21 21,0 C 21,1 C 22,2 C 20,6 C 18,9 C 17,2 C 84 % 80 % 3 cb 10 cb 6 cb 1012,1 hPa 0,0 l/m 3,2 km/h (1 Bft) SW 225 0,000 mm 2,2 UV-I 223 W/m 18,2 C 21,0 C 4,8 km/h (1 Bft)
28.07.2021 09:20 21,0 C 21,1 C 21,7 C 20,6 C 18,9 C 17,2 C 84 % 80 % 3 cb 10 cb 6 cb 1012,1 hPa 0,0 l/m 4,8 km/h (1 Bft) SW 225 0,000 mm 1,5 UV-I 223 W/m 18,2 C 21,0 C 4,8 km/h (1 Bft)
28.07.2021 09:19 21,0 C 21,1 C 21,7 C 20,6 C 18,9 C 17,2 C 84 % 80 % 3 cb 10 cb 6 cb 1012,2 hPa 0,0 l/m 3,2 km/h (1 Bft) SW 225 0,000 mm 1,5 UV-I 225 W/m 18,2 C 21,0 C 4,8 km/h (1 Bft)
28.07.2021 09:18 21,0 C 20,6 C 21,7 C 20,6 C 18,9 C 17,2 C 84 % 80 % 3 cb 10 cb 6 cb 1012,2 hPa 0,0 l/m 3,2 km/h (1 Bft) SW 225 0,000 mm 1,4 UV-I 211 W/m 18,2 C 21,0 C 4,8 km/h (1 Bft)
28.07.2021 09:17 20,9 C 20,6 C 21,7 C 20,6 C 18,9 C 17,2 C 84 % 80 % 3 cb 10 cb 6 cb 1012,2 hPa 0,0 l/m 1,6 km/h (1 Bft) SW 225 0,000 mm 1,4 UV-I 202 W/m 18,1 C 20,9 C 4,8 km/h (1 Bft)
28.07.2021 09:16 20,9 C 20,6 C 21,7 C 20,6 C 18,9 C 17,2 C 84 % 80 % 3 cb 10 cb 6 cb 1012,2 hPa 0,0 l/m 3,2 km/h (1 Bft) SW 225 0,000 mm 1,3 UV-I 200 W/m 18,1 C 20,9 C 4,8 km/h (1 Bft)
28.07.2021 09:15 20,9 C 20,6 C 21,7 C 20,6 C 18,9 C 17,2 C 84 % 80 % 3 cb 10 cb 6 cb 1012,2 hPa 0,0 l/m 3,2 km/h (1 Bft) SW 225 0,000 mm 1,3 UV-I 202 W/m 18,1 C 20,9 C 4,8 km/h (1 Bft)
28.07.2021 09:14 20,9 C 20,6 C 21,7 C 20,6 C 18,9 C 17,2 C 84 % 80 % 3 cb 10 cb 6 cb 1012,2 hPa 0,0 l/m 1,6 km/h (1 Bft) SW 225 0,000 mm 1,2 UV-I 195 W/m 18,1 C 20,9 C 4,8 km/h (1 Bft)
28.07.2021 09:13 20,9 C 20,6 C 21,7 C 20,6 C 18,9 C 17,2 C 84 % 80 % 3 cb 10 cb 6 cb 1012,3 hPa 0,0 l/m 4,8 km/h (1 Bft) S-SW 202 0,000 mm 1,2 UV-I 197 W/m 18,1 C 20,9 C 6,4 km/h (2 Bft)
28.07.2021 09:12 20,9 C 20,6 C 21,7 C 20,6 C 18,9 C 17,2 C 84 % 79 % 3 cb 10 cb 6 cb 1012,3 hPa 0,0 l/m 4,8 km/h (1 Bft) S-SW 202 0,000 mm 1,2 UV-I 202 W/m 18,1 C 20,9 C 4,8 km/h (1 Bft)
28.07.2021 09:11 20,9 C 20,6 C 22,2 C 20,6 C 18,9 C 17,2 C 84 % 79 % 3 cb 10 cb 6 cb 1012,3 hPa 0,0 l/m 4,8 km/h (1 Bft) S-SW 202 0,000 mm 1,2 UV-I 211 W/m 18,1 C 20,9 C 6,4 km/h (2 Bft)
28.07.2021 09:10 20,8 C 20,6 C 22,2 C 20,6 C 18,9 C 17,2 C 84 % 79 % 3 cb 10 cb 6 cb 1012,3 hPa 0,0 l/m 4,8 km/h (1 Bft) S-SW 202 0,000 mm 1,2 UV-I 218 W/m 18,0 C 20,8 C 6,4 km/h (2 Bft)
28.07.2021 09:09 20,8 C 20,6 C 22,2 C 20,6 C 18,9 C 17,2 C 83 % 79 % 3 cb 10 cb 6 cb 1012,3 hPa 0,0 l/m 6,4 km/h (2 Bft) S-SW 202 0,000 mm 1,3 UV-I 232 W/m 17,8 C 20,8 C 8,0 km/h (2 Bft)
28.07.2021 09:08 20,9 C 20,6 C 22,2 C 20,6 C 18,9 C 17,2 C 83 % 79 % 3 cb 10 cb 6 cb 1012,3 hPa 0,0 l/m 6,4 km/h (2 Bft) S-SW 202 0,000 mm 1,3 UV-I 241 W/m 17,9 C 20,9 C 8,0 km/h (2 Bft)
28.07.2021 09:07 20,9 C 20,6 C 22,2 C 20,6 C 18,9 C 17,2 C 83 % 80 % 3 cb 10 cb 6 cb 1012,2 hPa 0,0 l/m 4,8 km/h (1 Bft) S-SW 202 0,000 mm 1,3 UV-I 241 W/m 17,9 C 20,9 C 6,4 km/h (2 Bft)
28.07.2021 09:06 20,9 C 20,6 C 22,2 C 20,6 C 18,9 C 17,2 C 83 % 80 % 3 cb 10 cb 6 cb 1012,3 hPa 0,0 l/m 3,2 km/h (1 Bft) S-SW 202 0,000 mm 1,3 UV-I 243 W/m 17,9 C 20,9 C 4,8 km/h (1 Bft)
28.07.2021 09:05 20,9 C 20,6 C 21,7 C 20,6 C 18,9 C 17,2 C 83 % 79 % 3 cb 10 cb 6 cb 1012,3 hPa 0,0 l/m 3,2 km/h (1 Bft) S-SW 202 0,000 mm 1,3 UV-I 244 W/m 17,9 C 20,9 C 4,8 km/h (1 Bft)
28.07.2021 09:04 20,9 C 20,6 C 21,7 C 20,6 C 18,9 C 17,2 C 83 % 79 % 3 cb 10 cb 6 cb 1012,3 hPa 0,0 l/m 3,2 km/h (1 Bft) S-SW 202 0,000 mm 1,3 UV-I 248 W/m 17,9 C 20,9 C 6,4 km/h (2 Bft)
28.07.2021 09:03 20,9 C 20,6 C 21,7 C 20,6 C 18,9 C 17,2 C 83 % 79 % 3 cb 10 cb 6 cb 1012,3 hPa 0,0 l/m 1,6 km/h (1 Bft) S-SW 202 0,000 mm 1,3 UV-I 253 W/m 17,9 C 20,9 C 4,8 km/h (1 Bft)
28.07.2021 09:02 20,9 C 20,6 C 21,7 C 20,6 C 18,9 C 17,2 C 83 % 79 % 3 cb 10 cb 6 cb 1012,3 hPa 0,0 l/m 3,2 km/h (1 Bft) S-SW 202 0,000 mm 1,2 UV-I 246 W/m 17,9 C 20,9 C 6,4 km/h (2 Bft)
28.07.2021 09:01 20,9 C 20,6 C 22,2 C 20,6 C 18,9 C 17,2 C 82 % 79 % 3 cb 10 cb 6 cb 1012,3 hPa 0,0 l/m 4,8 km/h (1 Bft) S-SW 202 0,000 mm 1,3 UV-I 272 W/m 17,7 C 20,9 C 4,8 km/h (1 Bft)
28.07.2021 09:00 21,0 C 20,6 C 22,2 C 20,6 C 18,9 C 17,2 C 83 % 80 % 3 cb 10 cb 6 cb 1012,3 hPa 0,0 l/m 1,6 km/h (1 Bft) S-SW 202 0,152 mm 1,4 UV-I 315 W/m 18,0 C 21,0 C 4,8 km/h (1 Bft)
28.07.2021 08:59 20,9 C 20,6 C 22,2 C 20,6 C 18,9 C 17,2 C 83 % 80 % 3 cb 10 cb 6 cb 1012,3 hPa 0,0 l/m 1,6 km/h (1 Bft) S-SW 202 0,000 mm 1,6 UV-I 274 W/m 17,9 C 20,9 C 3,2 km/h (1 Bft)
28.07.2021 08:58 20,9 C 20,6 C 22,2 C 20,6 C 18,9 C 17,2 C 83 % 79 % 3 cb 10 cb 6 cb 1012,3 hPa 0,0 l/m 1,6 km/h (1 Bft) S-SW 202 0,000 mm 1,3 UV-I 274 W/m 17,9 C 20,9 C 3,2 km/h (1 Bft)
28.07.2021 08:57 20,9 C 20,6 C 21,7 C 20,6 C 18,9 C 17,2 C 83 % 79 % 3 cb 10 cb 6 cb 1012,4 hPa 0,0 l/m 4,8 km/h (1 Bft) S-SW 202 0,000 mm 1,2 UV-I 258 W/m 17,9 C 20,9 C 6,4 km/h (2 Bft)
28.07.2021 08:56 20,9 C 20,6 C 21,7 C 20,6 C 18,9 C 17,2 C 83 % 79 % 3 cb 10 cb 6 cb 1012,4 hPa 0,0 l/m 3,2 km/h (1 Bft) S-SW 202 0,000 mm 1,2 UV-I 255 W/m 17,9 C 20,9 C 4,8 km/h (1 Bft)
28.07.2021 08:55 20,9 C 20,6 C 21,7 C 20,6 C 18,9 C 17,2 C 82 % 79 % 3 cb 10 cb 6 cb 1012,3 hPa 0,0 l/m 3,2 km/h (1 Bft) S-SW 202 0,000 mm 1,2 UV-I 253 W/m 17,7 C 20,9 C 4,8 km/h (1 Bft)
28.07.2021 08:54 20,9 C 20,6 C 21,7 C 20,6 C 18,9 C 17,2 C 82 % 79 % 3 cb 10 cb 6 cb 1012,4 hPa 0,0 l/m 3,2 km/h (1 Bft) S-SW 202 0,000 mm 1,2 UV-I 251 W/m 17,7 C 20,9 C 4,8 km/h (1 Bft)
28.07.2021 08:53 20,9 C 20,6 C 21,7 C 20,6 C 18,9 C 17,2 C 82 % 79 % 3 cb 10 cb 6 cb 1012,3 hPa 0,0 l/m 4,8 km/h (1 Bft) S-SW 202 0,000 mm 1,2 UV-I 251 W/m 17,7 C 20,9 C 6,4 km/h (2 Bft)
28.07.2021 08:52 20,9 C 20,6 C 21,7 C 20,6 C 18,9 C 17,2 C 82 % 79 % 3 cb 10 cb 6 cb 1012,3 hPa 0,0 l/m 4,8 km/h (1 Bft) S-SW 202 0,000 mm 1,2 UV-I 253 W/m 17,7 C 20,9 C 6,4 km/h (2 Bft)
28.07.2021 08:51 20,8 C 20,6 C 21,7 C 20,6 C 18,9 C 17,2 C 83 % 79 % 3 cb 10 cb 6 cb 1012,3 hPa 0,0 l/m 4,8 km/h (1 Bft) SW 225 0,000 mm 1,3 UV-I 257 W/m 17,8 C 20,8 C 8,0 km/h (2 Bft)
28.07.2021 08:50 20,8 C 20,6 C 21,7 C 20,6 C 18,9 C 17,2 C 82 % 79 % 3 cb 10 cb 6 cb 1012,3 hPa 0,0 l/m 4,8 km/h (1 Bft) S-SW 202 0,000 mm 1,2 UV-I 248 W/m 17,6 C 20,8 C 6,4 km/h (2 Bft)
28.07.2021 08:49 20,8 C 20,6 C 21,7 C 20,6 C 18,9 C 17,2 C 82 % 80 % 3 cb 10 cb 6 cb 1012,4 hPa 0,0 l/m 4,8 km/h (1 Bft) SW 225 0,000 mm 1,2 UV-I 246 W/m 17,6 C 20,8 C 6,4 km/h (2 Bft)
28.07.2021 08:48 20,8 C 20,6 C 21,7 C 20,6 C 18,9 C 17,2 C 83 % 81 % 3 cb 10 cb 6 cb 1012,4 hPa 0,0 l/m 6,4 km/h (2 Bft) SW 225 0,000 mm 1,2 UV-I 246 W/m 17,8 C 20,8 C 8,0 km/h (2 Bft)
28.07.2021 08:47 20,8 C 20,6 C 21,7 C 20,6 C 18,9 C 17,2 C 85 % 81 % 3 cb 10 cb 6 cb 1012,4 hPa 0,0 l/m 6,4 km/h (2 Bft) SW 225 0,000 mm 1,2 UV-I 257 W/m 18,2 C 20,8 C 9,7 km/h (2 Bft)
28.07.2021 08:46 20,8 C 20,6 C 21,7 C 20,6 C 18,9 C 17,2 C 84 % 81 % 3 cb 10 cb 6 cb 1012,4 hPa 0,0 l/m 4,8 km/h (1 Bft) S-SW 202 0,000 mm 1,1 UV-I 243 W/m 18,0 C 20,8 C 6,4 km/h (2 Bft)
28.07.2021 08:45 20,7 C 20,6 C 21,7 C 20,6 C 18,9 C 17,2 C 84 % 81 % 3 cb 10 cb 6 cb 1012,4 hPa 0,0 l/m 4,8 km/h (1 Bft) S-SW 202 0,000 mm 1,1 UV-I 264 W/m 17,9 C 20,7 C 8,0 km/h (2 Bft)
28.07.2021 08:44 20,7 C 20,6 C 21,7 C 20,6 C 18,9 C 17,2 C 84 % 81 % 3 cb 10 cb 6 cb 1012,3 hPa 0,0 l/m 4,8 km/h (1 Bft) S-SW 202 0,000 mm 1,1 UV-I 241 W/m 17,9 C 20,7 C 6,4 km/h (2 Bft)
28.07.2021 08:43 20,7 C 20,6 C 21,7 C 20,6 C 18,9 C 17,2 C 85 % 81 % 3 cb 10 cb 6 cb 1012,3 hPa 0,0 l/m 6,4 km/h (2 Bft) SW 225 0,000 mm 1,1 UV-I 274 W/m 18,1 C 20,7 C 8,0 km/h (2 Bft)
28.07.2021 08:42 20,8 C 20,6 C 21,7 C 20,6 C 18,9 C 17,2 C 86 % 82 % 3 cb 10 cb 6 cb 1012,4 hPa 0,0 l/m 4,8 km/h (1 Bft) SW 225 0,000 mm 1,1 UV-I 241 W/m 18,4 C 20,8 C 6,4 km/h (2 Bft)
28.07.2021 08:41 20,8 C 20,6 C 21,7 C 20,6 C 18,9 C 17,2 C 85 % 81 % 3 cb 10 cb 6 cb 1012,3 hPa 0,0 l/m 3,2 km/h (1 Bft) SW 225 0,000 mm 1,1 UV-I 230 W/m 18,2 C 20,8 C 6,4 km/h (2 Bft)
28.07.2021 08:40 20,7 C 20,6 C 21,7 C 20,6 C 18,9 C 17,2 C 85 % 81 % 3 cb 10 cb 6 cb 1012,3 hPa 0,0 l/m 6,4 km/h (2 Bft) SW 225 0,000 mm 1,1 UV-I 232 W/m 18,1 C 20,7 C 8,0 km/h (2 Bft)
28.07.2021 08:39 20,7 C 20,6 C 21,7 C 20,6 C 18,9 C 17,2 C 85 % 81 % 3 cb 10 cb 6 cb 1012,4 hPa 0,0 l/m 4,8 km/h (1 Bft) SW 225 0,000 mm 1,1 UV-I 234 W/m 18,1 C 20,7 C 6,4 km/h (2 Bft)
28.07.2021 08:38 20,7 C 20,6 C 21,1 C 20,6 C 18,9 C 17,2 C 85 % 81 % 3 cb 10 cb 6 cb 1012,3 hPa 0,0 l/m 4,8 km/h (1 Bft) SW 225 0,000 mm 1,1 UV-I 236 W/m 18,1 C 20,7 C 8,0 km/h (2 Bft)
28.07.2021 08:37 20,7 C 20,0 C 21,1 C 20,6 C 18,9 C 17,2 C 85 % 81 % 3 cb 10 cb 6 cb 1012,3 hPa 0,0 l/m 4,8 km/h (1 Bft) SW 225 0,000 mm 1,1 UV-I 241 W/m 18,1 C 20,7 C 6,4 km/h (2 Bft)
28.07.2021 08:36 20,7 C 20,0 C 21,1 C 20,6 C 18,9 C 17,2 C 85 % 81 % 3 cb 10 cb 6 cb 1012,3 hPa 0,0 l/m 4,8 km/h (1 Bft) SW 225 0,000 mm 1,1 UV-I 274 W/m 18,1 C 20,7 C 8,0 km/h (2 Bft)
28.07.2021 08:35 20,7 C 20,0 C 21,1 C 20,6 C 18,9 C 17,2 C 84 % 80 % 3 cb 10 cb 6 cb 1012,4 hPa 0,0 l/m 3,2 km/h (1 Bft) SW 225 0,000 mm 1,1 UV-I 316 W/m 17,9 C 20,7 C 6,4 km/h (2 Bft)
28.07.2021 08:34 20,6 C 20,0 C 21,1 C 20,6 C 18,9 C 17,2 C 84 % 80 % 3 cb 10 cb 6 cb 1012,4 hPa 0,0 l/m 6,4 km/h (2 Bft) SW 225 0,000 mm 1,0 UV-I 239 W/m 17,8 C 20,6 C 8,0 km/h (2 Bft)
28.07.2021 08:33 20,6 C 20,0 C 21,1 C 20,6 C 18,9 C 17,2 C 84 % 80 % 3 cb 10 cb 6 cb 1012,3 hPa 0,0 l/m 6,4 km/h (2 Bft) SW 225 0,000 mm 1,0 UV-I 223 W/m 17,8 C 20,6 C 9,7 km/h (2 Bft)
28.07.2021 08:32 20,6 C 20,0 C 21,1 C 20,6 C 18,9 C 17,2 C 84 % 80 % 3 cb 10 cb 6 cb 1012,3 hPa 0,0 l/m 4,8 km/h (1 Bft) SW 225 0,000 mm 1,0 UV-I 221 W/m 17,8 C 20,6 C 6,4 km/h (2 Bft)
28.07.2021 08:31 20,6 C 20,0 C 21,1 C 20,6 C 18,9 C 17,2 C 84 % 80 % 3 cb 10 cb 6 cb 1012,4 hPa 0,0 l/m 8,0 km/h (2 Bft) SW 225 0,000 mm 1,0 UV-I 220 W/m 17,8 C 20,0 C 9,7 km/h (2 Bft)
28.07.2021 08:30 20,6 C 20,0 C 21,1 C 20,6 C 18,9 C 17,2 C 83 % 80 % 3 cb 10 cb 6 cb 1012,4 hPa 0,0 l/m 4,8 km/h (1 Bft) SW 225 0,000 mm 1,0 UV-I 216 W/m 17,6 C 20,6 C 8,0 km/h (2 Bft)
28.07.2021 08:29 20,6 C 20,0 C 21,1 C 20,6 C 18,9 C 17,2 C 83 % 79 % 3 cb 10 cb 6 cb 1012,4 hPa 0,0 l/m 3,2 km/h (1 Bft) S-SW 202 0,000 mm 0,9 UV-I 211 W/m 17,6 C 20,6 C 4,8 km/h (1 Bft)
28.07.2021 08:28 20,6 C 20,0 C 20,6 C 20,6 C 18,9 C 17,2 C 83 % 79 % 3 cb 10 cb 6 cb 1012,4 hPa 0,0 l/m 4,8 km/h (1 Bft) S-SW 202 0,000 mm 0,9 UV-I 204 W/m 17,6 C 20,6 C 6,4 km/h (2 Bft)
28.07.2021 08:27 20,6 C 20,0 C 20,6 C 20,6 C 18,9 C 17,2 C 83 % 79 % 3 cb 10 cb 6 cb 1012,4 hPa 0,0 l/m 3,2 km/h (1 Bft) S-SW 202 0,000 mm 0,9 UV-I 193 W/m 17,6 C 20,6 C 4,8 km/h (1 Bft)
28.07.2021 08:26 20,6 C 20,0 C 20,6 C 20,6 C 18,9 C 17,2 C 82 % 80 % 3 cb 10 cb 6 cb 1012,5 hPa 0,0 l/m 4,8 km/h (1 Bft) S-SW 202 0,000 mm 0,9 UV-I 195 W/m 17,4 C 20,6 C 6,4 km/h (2 Bft)
28.07.2021 08:25 20,6 C 20,0 C 20,6 C 20,6 C 18,9 C 17,2 C 83 % 80 % 3 cb 10 cb 6 cb 1012,5 hPa 0,0 l/m 4,8 km/h (1 Bft) S-SW 202 0,000 mm 0,9 UV-I 195 W/m 17,6 C 20,6 C 6,4 km/h (2 Bft)
28.07.2021 08:24 20,6 C 20,0 C 20,6 C 20,6 C 18,9 C 17,2 C 83 % 80 % 3 cb 10 cb 6 cb 1012,5 hPa 0,0 l/m 4,8 km/h (1 Bft) S-SW 202 0,000 mm 0,9 UV-I 204 W/m 17,6 C 20,6 C 6,4 km/h (2 Bft)
28.07.2021 08:23 20,6 C 20,0 C 20,6 C 20,6 C 18,9 C 17,2 C 83 % 80 % 3 cb 10 cb 6 cb 1012,5 hPa 0,0 l/m 3,2 km/h (1 Bft) S-SW 202 0,000 mm 0,9 UV-I 232 W/m 17,6 C 20,6 C 4,8 km/h (1 Bft)
28.07.2021 08:22 20,7 C 20,0 C 20,6 C 20,6 C 18,9 C 17,2 C 82 % 80 % 3 cb 10 cb 6 cb 1012,5 hPa 0,0 l/m 4,8 km/h (1 Bft) S-SW 202 0,000 mm 0,9 UV-I 197 W/m 17,5 C 20,7 C 6,4 km/h (2 Bft)
28.07.2021 08:21 20,7 C 20,0 C 20,6 C 20,6 C 18,9 C 17,2 C 82 % 80 % 3 cb 10 cb 6 cb 1012,5 hPa 0,0 l/m 6,4 km/h (2 Bft) S-SW 202 0,000 mm 0,9 UV-I 193 W/m 17,5 C 20,7 C 8,0 km/h (2 Bft)
28.07.2021 08:20 20,8 C 20,0 C 20,6 C 20,6 C 18,9 C 17,2 C 82 % 80 % 3 cb 10 cb 6 cb 1012,5 hPa 0,0 l/m 4,8 km/h (1 Bft) S-SW 202 0,000 mm 0,9 UV-I 185 W/m 17,6 C 20,8 C 8,0 km/h (2 Bft)
28.07.2021 08:19 20,8 C 20,0 C 20,6 C 20,6 C 18,9 C 17,2 C 82 % 80 % 3 cb 10 cb 6 cb 1012,5 hPa 0,0 l/m 4,8 km/h (1 Bft) S-SW 202 0,000 mm 0,9 UV-I 176 W/m 17,6 C 20,8 C 4,8 km/h (1 Bft)
28.07.2021 08:18 20,8 C 20,0 C 20,6 C 20,6 C 18,9 C 17,2 C 82 % 80 % 3 cb 10 cb 6 cb 1012,5 hPa 0,0 l/m 4,8 km/h (1 Bft) S-SW 202 0,000 mm 0,8 UV-I 169 W/m 17,6 C 20,8 C 6,4 km/h (2 Bft)
28.07.2021 08:17 20,8 C 20,0 C 20,6 C 20,6 C 18,9 C 17,2 C 82 % 80 % 3 cb 10 cb 6 cb 1012,5 hPa 0,0 l/m 4,8 km/h (1 Bft) S-SW 202 0,000 mm 0,9 UV-I 260 W/m 17,6 C 20,8 C 6,4 km/h (2 Bft)
28.07.2021 08:16 20,8 C 20,0 C 20,6 C 20,6 C 18,9 C 17,2 C 82 % 80 % 3 cb 10 cb 6 cb 1012,5 hPa 0,0 l/m 6,4 km/h (2 Bft) S-SW 202 0,000 mm 0,8 UV-I 178 W/m 17,6 C 20,8 C 8,0 km/h (2 Bft)
28.07.2021 08:15 20,7 C 20,0 C 20,6 C 20,6 C 18,9 C 17,2 C 81 % 79 % 3 cb 10 cb 6 cb 1012,5 hPa 0,0 l/m 4,8 km/h (1 Bft) S-SW 202 0,000 mm 0,8 UV-I 155 W/m 17,3 C 20,7 C 6,4 km/h (2 Bft)
28.07.2021 08:14 20,7 C 20,0 C 20,6 C 20,6 C 18,9 C 17,2 C 81 % 79 % 3 cb 10 cb 6 cb 1012,5 hPa 0,0 l/m 6,4 km/h (2 Bft) S-SW 202 0,000 mm 0,8 UV-I 211 W/m 17,3 C 20,7 C 6,4 km/h (2 Bft)
28.07.2021 08:13 20,7 C 20,0 C 20,6 C 20,6 C 18,9 C 17,2 C 82 % 80 % 3 cb 10 cb 6 cb 1012,5 hPa 0,0 l/m 4,8 km/h (1 Bft) S-SW 202 0,000 mm 0,8 UV-I 258 W/m 17,5 C 20,7 C 6,4 km/h (2 Bft)
28.07.2021 08:12 20,7 C 20,0 C 20,6 C 20,6 C 18,9 C 17,2 C 81 % 80 % 3 cb 10 cb 6 cb 1012,4 hPa 0,0 l/m 4,8 km/h (1 Bft) S-SW 202 0,000 mm 0,8 UV-I 220 W/m 17,3 C 20,7 C 6,4 km/h (2 Bft)
28.07.2021 08:11 20,6 C 20,0 C 20,6 C 20,6 C 18,9 C 17,2 C 82 % 81 % 3 cb 10 cb 6 cb 1012,5 hPa 0,0 l/m 4,8 km/h (1 Bft) S-SW 202 0,000 mm 0,8 UV-I 200 W/m 17,4 C 20,6 C 6,4 km/h (2 Bft)
28.07.2021 08:10 20,6 C 20,0 C 20,6 C 20,6 C 18,9 C 17,2 C 81 % 81 % 3 cb 10 cb 6 cb 1012,5 hPa 0,0 l/m 3,2 km/h (1 Bft) SW 225 0,000 mm 0,8 UV-I 292 W/m 17,2 C 20,6 C 4,8 km/h (1 Bft)
28.07.2021 08:09 20,6 C 20,0 C 20,0 C 20,6 C 18,9 C 17,2 C 81 % 81 % 3 cb 10 cb 6 cb 1012,5 hPa 0,0 l/m 4,8 km/h (1 Bft) SW 225 0,000 mm 0,8 UV-I 230 W/m 17,2 C 20,6 C 6,4 km/h (2 Bft)
28.07.2021 08:08 20,5 C 20,0 C 20,0 C 20,6 C 18,9 C 17,2 C 81 % 81 % 3 cb 10 cb 6 cb 1012,5 hPa 0,0 l/m 4,8 km/h (1 Bft) SW 225 0,000 mm 0,8 UV-I 230 W/m 17,1 C 20,5 C 6,4 km/h (2 Bft)
28.07.2021 08:07 20,5 C 20,0 C 20,0 C 20,6 C 18,9 C 17,2 C 82 % 81 % 3 cb 10 cb 6 cb 1012,5 hPa 0,0 l/m 3,2 km/h (1 Bft) SW 225 0,000 mm 0,7 UV-I 179 W/m 17,3 C 20,5 C 4,8 km/h (1 Bft)
28.07.2021 08:06 20,5 C 20,0 C 20,0 C 20,6 C 18,9 C 17,2 C 82 % 81 % 3 cb 10 cb 6 cb 1012,5 hPa 0,0 l/m 3,2 km/h (1 Bft) SW 225 0,000 mm 0,7 UV-I 120 W/m 17,3 C 20,5 C 4,8 km/h (1 Bft)
28.07.2021 08:05 20,5 C 20,0 C 20,0 C 20,6 C 18,9 C 17,2 C 82 % 81 % 3 cb 10 cb 6 cb 1012,4 hPa 0,0 l/m 3,2 km/h (1 Bft) SW 225 0,000 mm 0,6 UV-I 109 W/m 17,3 C 20,5 C 4,8 km/h (1 Bft)
28.07.2021 08:04 20,5 C 20,0 C 19,4 C 20,6 C 18,9 C 17,2 C 82 % 81 % 3 cb 10 cb 6 cb 1012,5 hPa 0,0 l/m 3,2 km/h (1 Bft) SW 225 0,000 mm 0,6 UV-I 105 W/m 17,3 C 20,5 C 4,8 km/h (1 Bft)
28.07.2021 08:03 20,5 C 20,0 C 19,4 C 20,6 C 18,9 C 17,2 C 82 % 81 % 3 cb 10 cb 6 cb 1012,4 hPa 0,0 l/m 3,2 km/h (1 Bft) SW 225 0,000 mm 0,6 UV-I 97 W/m 17,3 C 20,5 C 4,8 km/h (1 Bft)
28.07.2021 08:02 20,5 C 20,0 C 19,4 C 20,6 C 18,9 C 17,2 C 83 % 81 % 3 cb 10 cb 6 cb 1012,5 hPa 0,0 l/m 3,2 km/h (1 Bft) SW 225 0,000 mm 0,6 UV-I 93 W/m 17,5 C 20,5 C 4,8 km/h (1 Bft)
28.07.2021 08:01 20,5 C 20,0 C 19,4 C 20,6 C 18,9 C 17,2 C 83 % 81 % 3 cb 10 cb 6 cb 1012,5 hPa 0,0 l/m 3,2 km/h (1 Bft) SW 225 0,000 mm 0,6 UV-I 91 W/m 17,5 C 20,5 C 4,8 km/h (1 Bft)
28.07.2021 08:00 20,5 C 20,0 C 19,4 C 20,6 C 18,9 C 17,2 C 83 % 81 % 3 cb 10 cb 6 cb 1012,4 hPa 0,0 l/m 4,8 km/h (1 Bft) SW 225 0,102 mm 0,5 UV-I 90 W/m 17,5 C 20,5 C 6,4 km/h (2 Bft)
28.07.2021 07:59 20,5 C 20,0 C 19,4 C 20,6 C 18,9 C 17,2 C 83 % 80 % 3 cb 10 cb 6 cb 1012,4 hPa 0,0 l/m 3,2 km/h (1 Bft) SW 225 0,000 mm 0,5 UV-I 88 W/m 17,5 C 20,5 C 4,8 km/h (1 Bft)
28.07.2021 07:58 20,5 C 20,0 C 19,4 C 20,6 C 18,9 C 17,2 C 83 % 80 % 3 cb 10 cb 6 cb 1012,4 hPa 0,0 l/m 3,2 km/h (1 Bft) SW 225 0,000 mm 0,5 UV-I 86 W/m 17,5 C 20,5 C 4,8 km/h (1 Bft)
28.07.2021 07:57 20,5 C 20,0 C 19,4 C 20,6 C 18,9 C 17,2 C 83 % 80 % 3 cb 10 cb 6 cb 1012,4 hPa 0,0 l/m 0,0 km/h (0 Bft) SW 225 0,000 mm 0,5 UV-I 86 W/m 17,5 C 20,5 C 1,6 km/h (1 Bft)
28.07.2021 07:56 20,4 C 20,0 C 19,4 C 20,6 C 18,9 C 17,2 C 82 % 80 % 3 cb 10 cb 6 cb 1012,4 hPa 0,0 l/m 3,2 km/h (1 Bft) SW 225 0,000 mm 0,5 UV-I 86 W/m 17,2 C 20,4 C 6,4 km/h (2 Bft)
28.07.2021 07:55 20,5 C 20,0 C 19,4 C 20,6 C 18,9 C 17,2 C 83 % 81 % 3 cb 10 cb 6 cb 1012,4 hPa 0,0 l/m 4,8 km/h (1 Bft) SW 225 0,000 mm 0,5 UV-I 90 W/m 17,5 C 20,5 C 6,4 km/h (2 Bft)
28.07.2021 07:54 20,5 C 20,0 C 20,0 C 20,6 C 18,9 C 17,2 C 83 % 81 % 3 cb 10 cb 6 cb 1012,4 hPa 0,0 l/m 4,8 km/h (1 Bft) SW 225 0,000 mm 0,5 UV-I 90 W/m 17,5 C 20,5 C 6,4 km/h (2 Bft)
28.07.2021 07:53 20,4 C 20,0 C 20,0 C 20,6 C 18,9 C 17,2 C 83 % 81 % 3 cb 10 cb 6 cb 1012,5 hPa 0,0 l/m 3,2 km/h (1 Bft) S-SW 202 0,000 mm 0,5 UV-I 128 W/m 17,4 C 20,4 C 6,4 km/h (2 Bft)
28.07.2021 07:52 20,4 C 20,0 C 20,0 C 20,6 C 18,9 C 17,2 C 83 % 81 % 3 cb 10 cb 6 cb 1012,4 hPa 0,0 l/m 4,8 km/h (1 Bft) S-SW 202 0,000 mm 0,5 UV-I 107 W/m 17,4 C 20,4 C 6,4 km/h (2 Bft)
28.07.2021 07:51 20,4 C 20,0 C 20,0 C 20,6 C 18,9 C 17,2 C 83 % 81 % 3 cb 10 cb 6 cb 1012,5 hPa 0,0 l/m 4,8 km/h (1 Bft) S-SW 202 0,000 mm 0,0 UV-I 104 W/m 17,4 C 20,4 C 6,4 km/h (2 Bft)
28.07.2021 07:50 20,4 C 20,0 C 20,0 C 20,6 C 18,9 C 17,2 C 83 % 81 % 3 cb 10 cb 6 cb 1012,4 hPa 0,0 l/m 4,8 km/h (1 Bft) SW 225 0,000 mm 0,0 UV-I 102 W/m 17,4 C 20,4 C 8,0 km/h (2 Bft)
28.07.2021 07:49 20,4 C 19,4 C 20,0 C 20,6 C 18,9 C 17,2 C 83 % 81 % 3 cb 10 cb 6 cb 1012,5 hPa 0,0 l/m 4,8 km/h (1 Bft) S-SW 202 0,000 mm 0,0 UV-I 111 W/m 17,4 C 20,4 C 8,0 km/h (2 Bft)
28.07.2021 07:48 20,4 C 19,4 C 20,0 C 20,6 C 18,9 C 17,2 C 84 % 82 % 3 cb 10 cb 6 cb 1012,5 hPa 0,0 l/m 4,8 km/h (1 Bft) S 180 0,000 mm 0,0 UV-I 111 W/m 17,6 C 20,4 C 8,0 km/h (2 Bft)
28.07.2021 07:47 20,4 C 19,4 C 20,0 C 20,6 C 18,9 C 17,2 C 84 % 82 % 3 cb 10 cb 6 cb 1012,5 hPa 0,0 l/m 4,8 km/h (1 Bft) S 180 0,000 mm 0,0 UV-I 132 W/m 17,6 C 20,4 C 9,7 km/h (2 Bft)
28.07.2021 07:46 20,4 C 19,4 C 20,0 C 20,6 C 18,9 C 17,2 C 84 % 82 % 3 cb 10 cb 6 cb 1012,5 hPa 0,0 l/m 6,4 km/h (2 Bft) S-SW 202 0,000 mm 0,0 UV-I 137 W/m 17,6 C 20,4 C 9,7 km/h (2 Bft)
28.07.2021 07:45 20,4 C 19,4 C 20,0 C 20,6 C 18,9 C 17,2 C 85 % 83 % 3 cb 10 cb 6 cb 1012,5 hPa 0,0 l/m 6,4 km/h (2 Bft) S-SW 202 0,000 mm 0,0 UV-I 149 W/m 17,8 C 20,4 C 8,0 km/h (2 Bft)
28.07.2021 07:44 20,4 C 19,4 C 20,0 C 20,6 C 18,9 C 17,2 C 86 % 83 % 3 cb 10 cb 6 cb 1012,5 hPa 0,0 l/m 6,4 km/h (2 Bft) S-SW 202 0,000 mm 0,0 UV-I 171 W/m 18,0 C 20,4 C 8,0 km/h (2 Bft)
28.07.2021 07:43 20,4 C 19,4 C 20,0 C 20,6 C 18,9 C 17,2 C 86 % 83 % 3 cb 10 cb 6 cb 1012,5 hPa 0,0 l/m 6,4 km/h (2 Bft) S-SW 202 0,000 mm 0,0 UV-I 190 W/m 18,0 C 20,4 C 9,7 km/h (2 Bft)
28.07.2021 07:42 20,4 C 19,4 C 20,0 C 20,6 C 18,9 C 17,2 C 86 % 83 % 3 cb 10 cb 6 cb 1012,6 hPa 0,0 l/m 6,4 km/h (2 Bft) S-SW 202 0,000 mm 0,0 UV-I 193 W/m 18,0 C 20,4 C 9,7 km/h (2 Bft)
28.07.2021 07:41 20,4 C 19,4 C 20,0 C 20,6 C 18,9 C 17,2 C 86 % 83 % 3 cb 10 cb 6 cb 1012,6 hPa 0,0 l/m 6,4 km/h (2 Bft) S-SW 202 0,000 mm 0,0 UV-I 192 W/m 18,0 C 20,4 C 9,7 km/h (2 Bft)
28.07.2021 07:40 20,3 C 19,4 C 20,0 C 20,6 C 18,9 C 17,2 C 86 % 83 % 3 cb 10 cb 6 cb 1012,5 hPa 0,0 l/m 8,0 km/h (2 Bft) S-SW 202 0,000 mm 0,0 UV-I 190 W/m 17,9 C 19,7 C 11,3 km/h (2 Bft)
28.07.2021 07:39 20,3 C 19,4 C 20,0 C 20,6 C 18,9 C 17,2 C 86 % 83 % 3 cb 10 cb 6 cb 1012,6 hPa 0,0 l/m 6,4 km/h (2 Bft) S-SW 202 0,000 mm 0,0 UV-I 195 W/m 17,9 C 20,3 C 8,0 km/h (2 Bft)
28.07.2021 07:38 20,3 C 19,4 C 20,0 C 20,6 C 18,9 C 17,2 C 86 % 83 % 3 cb 10 cb 6 cb 1012,6 hPa 0,0 l/m 6,4 km/h (2 Bft) S-SW 202 0,000 mm 0,0 UV-I 197 W/m 17,9 C 20,3 C 9,7 km/h (2 Bft)
28.07.2021 07:37 20,3 C 19,4 C 20,0 C 20,6 C 18,9 C 17,2 C 86 % 83 % 3 cb 10 cb 6 cb 1012,6 hPa 0,0 l/m 6,4 km/h (2 Bft) SW 225 0,000 mm 0,0 UV-I 192 W/m 17,9 C 20,3 C 9,7 km/h (2 Bft)
28.07.2021 07:36 20,3 C 19,4 C 20,0 C 20,6 C 18,9 C 17,2 C 86 % 83 % 3 cb 10 cb 6 cb 1012,6 hPa 0,0 l/m 6,4 km/h (2 Bft) SW 225 0,000 mm 0,0 UV-I 179 W/m 17,9 C 20,3 C 9,7 km/h (2 Bft)
28.07.2021 07:35 20,3 C 19,4 C 20,0 C 20,6 C 18,9 C 17,2 C 86 % 83 % 3 cb 10 cb 6 cb 1012,6 hPa 0,0 l/m 9,7 km/h (2 Bft) S-SW 202 0,000 mm 0,0 UV-I 156 W/m 17,9 C 19,1 C 11,3 km/h (2 Bft)
28.07.2021 07:34 20,3 C 19,4 C 20,0 C 20,6 C 18,9 C 17,2 C 86 % 83 % 3 cb 10 cb 6 cb 1012,7 hPa 0,0 l/m 8,0 km/h (2 Bft) SW 225 0,000 mm 0,0 UV-I 144 W/m 17,9 C 19,7 C 9,7 km/h (2 Bft)
28.07.2021 07:33 20,4 C 19,4 C 20,0 C 20,6 C 18,9 C 17,2 C 86 % 83 % 3 cb 10 cb 6 cb 1012,6 hPa 0,0 l/m 6,4 km/h (2 Bft) S-SW 202 0,000 mm 0,0 UV-I 158 W/m 18,0 C 20,4 C 11,3 km/h (2 Bft)
28.07.2021 07:32 20,3 C 19,4 C 20,0 C 20,6 C 18,9 C 17,2 C 86 % 83 % 3 cb 10 cb 6 cb 1012,6 hPa 0,0 l/m 6,4 km/h (2 Bft) S-SW 202 0,000 mm 0,0 UV-I 172 W/m 17,9 C 20,3 C 9,7 km/h (2 Bft)
28.07.2021 07:31 20,3 C 19,4 C 20,0 C 20,6 C 18,9 C 17,2 C 86 % 83 % 3 cb 10 cb 6 cb 1012,6 hPa 0,0 l/m 6,4 km/h (2 Bft) S-SW 202 0,000 mm 0,0 UV-I 174 W/m 17,9 C 20,3 C 9,7 km/h (2 Bft)
28.07.2021 07:30 20,3 C 19,4 C 20,0 C 20,6 C 18,9 C 17,2 C 86 % 83 % 3 cb 10 cb 6 cb 1012,6 hPa 0,0 l/m 8,0 km/h (2 Bft) S-SW 202 0,000 mm 0,0 UV-I 174 W/m 17,9 C 19,7 C 11,3 km/h (2 Bft)
28.07.2021 07:29 20,3 C 19,4 C 20,0 C 20,6 C 18,9 C 17,2 C 86 % 83 % 3 cb 10 cb 6 cb 1012,7 hPa 0,0 l/m 8,0 km/h (2 Bft) S-SW 202 0,000 mm 0,0 UV-I 244 W/m 17,9 C 19,7 C 9,7 km/h (2 Bft)
28.07.2021 07:28 20,3 C 19,4 C 20,0 C 20,6 C 18,9 C 17,2 C 86 % 84 % 3 cb 10 cb 6 cb 1012,7 hPa 0,0 l/m 6,4 km/h (2 Bft) S-SW 202 0,000 mm 0,0 UV-I 227 W/m 17,9 C 20,3 C 9,7 km/h (2 Bft)
28.07.2021 07:27 20,3 C 19,4 C 20,0 C 20,6 C 18,9 C 17,2 C 86 % 84 % 3 cb 10 cb 6 cb 1012,7 hPa 0,0 l/m 8,0 km/h (2 Bft) S-SW 202 0,000 mm 0,0 UV-I 257 W/m 17,9 C 19,7 C 11,3 km/h (2 Bft)
28.07.2021 07:26 20,3 C 19,4 C 20,0 C 20,6 C 18,9 C 17,2 C 86 % 84 % 3 cb 10 cb 6 cb 1012,7 hPa 0,0 l/m 4,8 km/h (1 Bft) S-SW 202 0,000 mm 0,0 UV-I 265 W/m 17,9 C 20,3 C 9,7 km/h (2 Bft)
28.07.2021 07:25 20,3 C 19,4 C 20,0 C 20,6 C 18,9 C 17,2 C 86 % 84 % 3 cb 10 cb 6 cb 1012,7 hPa 0,0 l/m 6,4 km/h (2 Bft) SW 225 0,000 mm 0,0 UV-I 202 W/m 17,9 C 20,3 C 9,7 km/h (2 Bft)
28.07.2021 07:24 20,3 C 19,4 C 20,0 C 20,6 C 18,9 C 17,2 C 86 % 84 % 3 cb 10 cb 6 cb 1012,7 hPa 0,0 l/m 4,8 km/h (1 Bft) S-SW 202 0,000 mm 0,0 UV-I 155 W/m 17,9 C 20,3 C 8,0 km/h (2 Bft)
28.07.2021 07:23 20,3 C 19,4 C 20,0 C 20,6 C 18,9 C 17,2 C 86 % 83 % 3 cb 10 cb 6 cb 1012,7 hPa 0,0 l/m 6,4 km/h (2 Bft) SW 225 0,000 mm 0,0 UV-I 155 W/m 17,9 C 20,3 C 9,7 km/h (2 Bft)
28.07.2021 07:22 20,3 C 19,4 C 20,0 C 20,6 C 18,9 C 17,2 C 86 % 83 % 3 cb 10 cb 6 cb 1012,6 hPa 0,0 l/m 6,4 km/h (2 Bft) SW 225 0,000 mm 0,0 UV-I 141 W/m 17,9 C 20,3 C 9,7 km/h (2 Bft)
28.07.2021 07:21 20,3 C 19,4 C 20,0 C 20,6 C 18,9 C 17,2 C 86 % 83 % 3 cb 10 cb 6 cb 1012,6 hPa 0,0 l/m 8,0 km/h (2 Bft) S-SW 202 0,000 mm 0,0 UV-I 137 W/m 17,9 C 19,7 C 11,3 km/h (2 Bft)
28.07.2021 07:20 20,3 C 19,4 C 20,0 C 20,6 C 18,9 C 17,2 C 85 % 83 % 3 cb 10 cb 6 cb 1012,6 hPa 0,0 l/m 9,7 km/h (2 Bft) S-SW 202 0,000 mm 0,0 UV-I 134 W/m 17,7 C 19,1 C 11,3 km/h (2 Bft)
28.07.2021 07:19 20,3 C 19,4 C 20,0 C 20,6 C 18,9 C 17,2 C 86 % 84 % 3 cb 10 cb 6 cb 1012,6 hPa 0,0 l/m 8,0 km/h (2 Bft) S-SW 202 0,000 mm 0,0 UV-I 132 W/m 17,9 C 19,7 C 11,3 km/h (2 Bft)
28.07.2021 07:18 20,3 C 19,4 C 20,0 C 20,6 C 18,9 C 17,2 C 86 % 84 % 3 cb 10 cb 6 cb 1012,6 hPa 0,0 l/m 8,0 km/h (2 Bft) S-SW 202 0,000 mm 0,0 UV-I 128 W/m 17,9 C 19,7 C 11,3 km/h (2 Bft)
28.07.2021 07:17 20,3 C 19,4 C 20,0 C 20,6 C 18,9 C 17,2 C 86 % 84 % 3 cb 10 cb 6 cb 1012,7 hPa 0,0 l/m 8,0 km/h (2 Bft) S-SW 202 0,000 mm 0,0 UV-I 127 W/m 17,9 C 19,7 C 9,7 km/h (2 Bft)
28.07.2021 07:16 20,3 C 19,4 C 20,0 C 20,6 C 18,9 C 17,2 C 85 % 84 % 3 cb 10 cb 6 cb 1012,6 hPa 0,0 l/m 6,4 km/h (2 Bft) S-SW 202 0,000 mm 0,0 UV-I 125 W/m 17,7 C 20,3 C 8,0 km/h (2 Bft)
28.07.2021 07:15 20,3 C 19,4 C 20,0 C 20,6 C 18,9 C 17,2 C 85 % 85 % 3 cb 10 cb 6 cb 1012,7 hPa 0,0 l/m 6,4 km/h (2 Bft) SW 225 0,000 mm 0,0 UV-I 123 W/m 17,7 C 20,3 C 8,0 km/h (2 Bft)
28.07.2021 07:14 20,2 C 18,9 C 20,0 C 20,6 C 18,9 C 17,2 C 86 % 85 % 3 cb 10 cb 6 cb 1012,6 hPa 0,0 l/m 6,4 km/h (2 Bft) S-SW 202 0,000 mm 0,0 UV-I 123 W/m 17,8 C 20,2 C 8,0 km/h (2 Bft)
28.07.2021 07:13 20,2 C 19,4 C 20,0 C 20,6 C 18,9 C 17,2 C 87 % 86 % 3 cb 10 cb 6 cb 1012,7 hPa 0,0 l/m 6,4 km/h (2 Bft) S-SW 202 0,000 mm 0,0 UV-I 121 W/m 18,0 C 20,2 C 8,0 km/h (2 Bft)
28.07.2021 07:12 20,2 C 19,4 C 20,0 C 20,6 C 18,9 C 17,2 C 87 % 86 % 3 cb 10 cb 6 cb 1012,6 hPa 0,0 l/m 6,4 km/h (2 Bft) S-SW 202 0,000 mm 0,0 UV-I 121 W/m 18,0 C 20,2 C 8,0 km/h (2 Bft)
28.07.2021 07:11 20,2 C 18,9 C 20,0 C 20,6 C 18,9 C 17,2 C 87 % 86 % 3 cb 10 cb 6 cb 1012,7 hPa 0,0 l/m 6,4 km/h (2 Bft) S-SW 202 0,000 mm 0,0 UV-I 120 W/m 18,0 C 20,2 C 9,7 km/h (2 Bft)
28.07.2021 07:10 20,2 C 18,9 C 20,0 C 20,6 C 18,9 C 17,2 C 87 % 86 % 3 cb 10 cb 6 cb 1012,6 hPa 0,0 l/m 6,4 km/h (2 Bft) SW 225 0,000 mm 0,0 UV-I 120 W/m 18,0 C 20,2 C 8,0 km/h (2 Bft)
28.07.2021 07:09 20,1 C 19,4 C 20,0 C 20,6 C 18,9 C 17,2 C 88 % 86 % 3 cb 10 cb 6 cb 1012,7 hPa 0,0 l/m 4,8 km/h (1 Bft) S 180 0,000 mm 0,0 UV-I 120 W/m 18,0 C 20,1 C 8,0 km/h (2 Bft)
28.07.2021 07:08 20,1 C 18,9 C 20,0 C 20,6 C 18,9 C 17,2 C 89 % 86 % 3 cb 10 cb 6 cb 1012,6 hPa 0,0 l/m 3,2 km/h (1 Bft) S 180 0,000 mm 0,0 UV-I 120 W/m 18,2 C 20,1 C 3,2 km/h (1 Bft)
28.07.2021 07:07 20,1 C 18,9 C 20,0 C 20,6 C 18,9 C 17,2 C 90 % 86 % 3 cb 10 cb 6 cb 1012,6 hPa 0,0 l/m 3,2 km/h (1 Bft) S 180 0,000 mm 0,0 UV-I 123 W/m 18,4 C 20,1 C 6,4 km/h (2 Bft)
28.07.2021 07:06 20,0 C 18,9 C 20,0 C 20,6 C 18,9 C 17,2 C 91 % 86 % 3 cb 10 cb 6 cb 1012,7 hPa 0,0 l/m 1,6 km/h (1 Bft) S-SW 202 0,000 mm 0,0 UV-I 192 W/m 18,5 C 20,0 C 3,2 km/h (1 Bft)
28.07.2021 07:05 19,9 C 18,9 C 20,0 C 20,6 C 18,9 C 17,2 C 91 % 86 % 3 cb 10 cb 6 cb 1012,6 hPa 0,0 l/m 1,6 km/h (1 Bft) S-SW 202 0,000 mm 0,0 UV-I 188 W/m 18,4 C 19,9 C 4,8 km/h (1 Bft)
28.07.2021 07:04 19,9 C 18,9 C 20,0 C 20,6 C 18,9 C 17,2 C 91 % 86 % 3 cb 10 cb 6 cb 1012,7 hPa 0,0 l/m 3,2 km/h (1 Bft) SW 225 0,000 mm 0,0 UV-I 183 W/m 18,4 C 19,9 C 6,4 km/h (2 Bft)
28.07.2021 07:03 19,8 C 18,9 C 20,0 C 20,6 C 18,9 C 17,2 C 91 % 86 % 3 cb 10 cb 6 cb 1012,7 hPa 0,0 l/m 3,2 km/h (1 Bft) SW 225 0,000 mm 0,0 UV-I 169 W/m 18,3 C 19,8 C 8,0 km/h (2 Bft)
28.07.2021 07:02 19,8 C 18,9 C 20,0 C 20,6 C 18,9 C 17,2 C 92 % 86 % 3 cb 10 cb 6 cb 1012,8 hPa 0,0 l/m 4,8 km/h (1 Bft) SW 225 0,000 mm 0,0 UV-I 163 W/m 18,5 C 19,8 C 6,4 km/h (2 Bft)
28.07.2021 07:01 19,7 C 18,9 C 19,4 C 20,6 C 18,9 C 17,2 C 92 % 86 % 3 cb 10 cb 6 cb 1012,8 hPa 0,0 l/m 1,6 km/h (1 Bft) SW 225 0,000 mm 0,0 UV-I 165 W/m 18,4 C 19,7 C 1,6 km/h (1 Bft)
28.07.2021 07:00 19,7 C 18,9 C 19,4 C 20,6 C 18,9 C 17,2 C 92 % 86 % 3 cb 10 cb 6 cb 1012,8 hPa 0,0 l/m 3,2 km/h (1 Bft) SW 225 0,051 mm 0,0 UV-I 171 W/m 18,4 C 19,7 C 4,8 km/h (1 Bft)
28.07.2021 06:59 19,7 C 18,9 C 19,4 C 20,6 C 18,9 C 17,2 C 92 % 86 % 3 cb 10 cb 6 cb 1012,8 hPa 0,0 l/m 3,2 km/h (1 Bft) SW 225 0,000 mm 0,0 UV-I 167 W/m 18,4 C 19,7 C 4,8 km/h (1 Bft)
28.07.2021 06:58 19,7 C 18,9 C 19,4 C 20,6 C 18,9 C 17,2 C 92 % 85 % 3 cb 10 cb 6 cb 1012,8 hPa 0,0 l/m 3,2 km/h (1 Bft) SW 225 0,000 mm 0,0 UV-I 174 W/m 18,4 C 19,7 C 4,8 km/h (1 Bft)
28.07.2021 06:57 19,6 C 18,9 C 19,4 C 20,6 C 18,9 C 17,2 C 92 % 85 % 3 cb 10 cb 6 cb 1012,8 hPa 0,0 l/m 3,2 km/h (1 Bft) SW 225 0,000 mm 0,0 UV-I 176 W/m 18,3 C 19,6 C 4,8 km/h (1 Bft)
28.07.2021 06:56 19,6 C 18,9 C 19,4 C 20,6 C 18,9 C 17,2 C 92 % 85 % 3 cb 10 cb 6 cb 1012,8 hPa 0,0 l/m 3,2 km/h (1 Bft) SW 225 0,000 mm 0,0 UV-I 171 W/m 18,3 C 19,6 C 6,4 km/h (2 Bft)
28.07.2021 06:55 19,6 C 18,9 C 19,4 C 20,6 C 18,9 C 17,2 C 92 % 85 % 3 cb 10 cb 6 cb 1012,8 hPa 0,0 l/m 4,8 km/h (1 Bft) SW 225 0,000 mm 0,0 UV-I 160 W/m 18,3 C 19,6 C 6,4 km/h (2 Bft)
28.07.2021 06:54 19,5 C 18,9 C 19,4 C 20,6 C 18,9 C 17,2 C 91 % 85 % 3 cb 10 cb 6 cb 1012,8 hPa 0,0 l/m 4,8 km/h (1 Bft) SW 225 0,000 mm 0,0 UV-I 160 W/m 18,0 C 19,5 C 6,4 km/h (2 Bft)
28.07.2021 06:53 19,4 C 18,9 C 19,4 C 20,6 C 18,9 C 17,2 C 91 % 85 % 3 cb 10 cb 6 cb 1012,8 hPa 0,0 l/m 3,2 km/h (1 Bft) W-SW 247 0,000 mm 0,0 UV-I 137 W/m 17,9 C 19,4 C 6,4 km/h (2 Bft)
28.07.2021 06:52 19,4 C 18,9 C 18,9 C 20,6 C 18,9 C 17,2 C 91 % 85 % 3 cb 10 cb 6 cb 1012,8 hPa 0,0 l/m 4,8 km/h (1 Bft) W-SW 247 0,000 mm 0,0 UV-I 134 W/m 17,9 C 19,4 C 4,8 km/h (1 Bft)
28.07.2021 06:51 19,4 C 18,9 C 18,9 C 20,6 C 18,9 C 17,2 C 91 % 85 % 3 cb 10 cb 6 cb 1012,8 hPa 0,0 l/m 4,8 km/h (1 Bft) W-SW 247 0,000 mm 0,0 UV-I 128 W/m 17,9 C 19,4 C 6,4 km/h (2 Bft)
28.07.2021 06:50 19,4 C 18,9 C 18,9 C 20,6 C 18,9 C 17,2 C 91 % 85 % 3 cb 10 cb 6 cb 1012,8 hPa 0,0 l/m 3,2 km/h (1 Bft) W-SW 247 0,000 mm 0,0 UV-I 116 W/m 17,9 C 19,4 C 4,8 km/h (1 Bft)
28.07.2021 06:49 19,4 C 18,9 C 18,9 C 20,6 C 18,9 C 17,2 C 91 % 84 % 3 cb 10 cb 6 cb 1012,8 hPa 0,0 l/m 3,2 km/h (1 Bft) W-SW 247 0,000 mm 0,0 UV-I 104 W/m 17,9 C 19,4 C 4,8 km/h (1 Bft)
28.07.2021 06:48 19,4 C 18,9 C 18,9 C 20,6 C 18,9 C 17,2 C 91 % 84 % 3 cb 10 cb 6 cb 1012,8 hPa 0,0 l/m 3,2 km/h (1 Bft) W-SW 247 0,000 mm 0,0 UV-I 98 W/m 17,9 C 19,4 C 4,8 km/h (1 Bft)
28.07.2021 06:47 19,4 C 18,9 C 18,9 C 20,6 C 18,9 C 17,2 C 91 % 84 % 3 cb 10 cb 6 cb 1012,8 hPa 0,0 l/m 3,2 km/h (1 Bft) W-SW 247 0,000 mm 0,0 UV-I 88 W/m 17,9 C 19,4 C 4,8 km/h (1 Bft)
28.07.2021 06:46 19,4 C 18,9 C 18,9 C 20,6 C 18,9 C 17,2 C 91 % 84 % 3 cb 10 cb 6 cb 1012,8 hPa 0,0 l/m 4,8 km/h (1 Bft) W-SW 247 0,000 mm 0,0 UV-I 86 W/m 17,9 C 19,4 C 6,4 km/h (2 Bft)
28.07.2021 06:45 19,4 C 18,9 C 18,3 C 20,6 C 18,9 C 17,2 C 90 % 84 % 3 cb 10 cb 6 cb 1012,8 hPa 0,0 l/m 4,8 km/h (1 Bft) W-SW 247 0,000 mm 0,0 UV-I 83 W/m 17,7 C 19,4 C 4,8 km/h (1 Bft)
28.07.2021 06:44 19,4 C 18,9 C 18,3 C 20,6 C 18,9 C 17,2 C 91 % 84 % 3 cb 10 cb 6 cb 1012,8 hPa 0,0 l/m 4,8 km/h (1 Bft) W-SW 247 0,000 mm 0,0 UV-I 79 W/m 17,9 C 19,4 C 6,4 km/h (2 Bft)
28.07.2021 06:43 19,4 C 18,9 C 18,3 C 20,6 C 18,9 C 17,2 C 90 % 84 % 3 cb 10 cb 6 cb 1012,8 hPa 0,0 l/m 3,2 km/h (1 Bft) W-SW 247 0,000 mm 0,0 UV-I 74 W/m 17,7 C 19,4 C 4,8 km/h (1 Bft)
28.07.2021 06:42 19,4 C 18,9 C 18,3 C 20,6 C 18,9 C 17,2 C 90 % 84 % 3 cb 10 cb 6 cb 1012,9 hPa 0,0 l/m 1,6 km/h (1 Bft) W-SW 247 0,000 mm 0,0 UV-I 70 W/m 17,7 C 19,4 C 4,8 km/h (1 Bft)
28.07.2021 06:41 19,4 C 18,9 C 18,3 C 20,6 C 18,9 C 17,2 C 90 % 84 % 3 cb 10 cb 6 cb 1012,9 hPa 0,0 l/m 1,6 km/h (1 Bft) W-SW 247 0,000 mm 0,0 UV-I 62 W/m 17,7 C 19,4 C 3,2 km/h (1 Bft)
28.07.2021 06:40 19,5 C 18,9 C 18,3 C 20,6 C 18,9 C 17,2 C 90 % 84 % 3 cb 10 cb 6 cb 1012,8 hPa 0,0 l/m 4,8 km/h (1 Bft) W-SW 247 0,000 mm 0,0 UV-I 56 W/m 17,8 C 19,5 C 8,0 km/h (2 Bft)
28.07.2021 06:39 19,5 C 18,9 C 18,3 C 20,6 C 18,9 C 17,2 C 90 % 84 % 3 cb 10 cb 6 cb 1012,8 hPa 0,0 l/m 4,8 km/h (1 Bft) SW 225 0,000 mm 0,0 UV-I 54 W/m 17,8 C 19,5 C 8,0 km/h (2 Bft)
28.07.2021 06:38 19,5 C 18,9 C 18,3 C 20,6 C 18,9 C 17,2 C 90 % 84 % 3 cb 10 cb 6 cb 1012,8 hPa 0,0 l/m 3,2 km/h (1 Bft) SW 225 0,000 mm 0,0 UV-I 53 W/m 17,8 C 19,5 C 6,4 km/h (2 Bft)
28.07.2021 06:37 19,5 C 18,9 C 18,3 C 20,6 C 18,9 C 17,2 C 90 % 84 % 3 cb 10 cb 6 cb 1012,8 hPa 0,0 l/m 4,8 km/h (1 Bft) SW 225 0,000 mm 0,0 UV-I 53 W/m 17,8 C 19,5 C 8,0 km/h (2 Bft)
28.07.2021 06:36 19,4 C 18,9 C 18,3 C 20,6 C 18,9 C 17,2 C 90 % 83 % 3 cb 10 cb 6 cb 1012,9 hPa 0,0 l/m 4,8 km/h (1 Bft) SW 225 0,000 mm 0,0 UV-I 49 W/m 17,7 C 19,4 C 6,4 km/h (2 Bft)
28.07.2021 06:35 19,4 C 18,9 C 18,3 C 20,6 C 18,9 C 17,2 C 89 % 83 % 3 cb 10 cb 6 cb 1012,9 hPa 0,0 l/m 4,8 km/h (1 Bft) SW 225 0,000 mm 0,0 UV-I 47 W/m 17,5 C 19,4 C 8,0 km/h (2 Bft)
28.07.2021 06:34 19,4 C 18,9 C 18,3 C 20,6 C 18,9 C 17,2 C 89 % 83 % 3 cb 10 cb 6 cb 1012,8 hPa 0,0 l/m 4,8 km/h (1 Bft) W-SW 247 0,000 mm 0,0 UV-I 46 W/m 17,5 C 19,4 C 8,0 km/h (2 Bft)
28.07.2021 06:33 19,4 C 18,9 C 18,3 C 20,6 C 18,9 C 17,2 C 89 % 83 % 3 cb 10 cb 6 cb 1012,9 hPa 0,0 l/m 4,8 km/h (1 Bft) W-SW 247 0,000 mm 0,0 UV-I 46 W/m 17,5 C 19,4 C 6,4 km/h (2 Bft)
28.07.2021 06:32 19,4 C 18,9 C 18,3 C 20,6 C 18,9 C 17,2 C 88 % 83 % 3 cb 10 cb 6 cb 1012,8 hPa 0,0 l/m 4,8 km/h (1 Bft) W-SW 247 0,000 mm 0,0 UV-I 44 W/m 17,4 C 19,4 C 6,4 km/h (2 Bft)
28.07.2021 06:31 19,4 C 18,9 C 18,3 C 20,6 C 18,9 C 17,2 C 88 % 83 % 3 cb 10 cb 6 cb 1012,9 hPa 0,0 l/m 4,8 km/h (1 Bft) W-SW 247 0,000 mm 0,0 UV-I 44 W/m 17,4 C 19,4 C 8,0 km/h (2 Bft)
28.07.2021 06:30 19,4 C 18,9 C 18,3 C 20,6 C 18,9 C 17,2 C 88 % 82 % 3 cb 10 cb 6 cb 1012,8 hPa 0,0 l/m 4,8 km/h (1 Bft) SW 225 0,000 mm 0,0 UV-I 46 W/m 17,4 C 19,4 C 6,4 km/h (2 Bft)
28.07.2021 06:29 19,4 C 18,9 C 18,3 C 20,6 C 18,9 C 17,2 C 88 % 82 % 3 cb 10 cb 6 cb 1012,8 hPa 0,0 l/m 4,8 km/h (1 Bft) SW 225 0,000 mm 0,0 UV-I 47 W/m 17,4 C 19,4 C 8,0 km/h (2 Bft)
28.07.2021 06:28 19,3 C 18,9 C 18,3 C 20,6 C 18,9 C 17,2 C 88 % 82 % 3 cb 10 cb 6 cb 1012,8 hPa 0,0 l/m 6,4 km/h (2 Bft) SW 225 0,000 mm 0,0 UV-I 47 W/m 17,3 C 19,3 C 8,0 km/h (2 Bft)
28.07.2021 06:27 19,3 C 18,9 C 18,3 C 20,6 C 18,9 C 17,2 C 87 % 82 % 3 cb 10 cb 6 cb 1012,8 hPa 0,0 l/m 8,0 km/h (2 Bft) W-SW 247 0,000 mm 0,0 UV-I 47 W/m 17,1 C 18,6 C 9,7 km/h (2 Bft)
28.07.2021 06:26 19,2 C 18,9 C 18,3 C 20,6 C 18,9 C 17,2 C 87 % 82 % 3 cb 10 cb 6 cb 1012,8 hPa 0,0 l/m 6,4 km/h (2 Bft) W-SW 247 0,000 mm 0,0 UV-I 47 W/m 17,0 C 19,2 C 8,0 km/h (2 Bft)
28.07.2021 06:25 19,2 C 18,9 C 18,3 C 20,6 C 18,9 C 17,2 C 87 % 82 % 3 cb 10 cb 6 cb 1012,8 hPa 0,0 l/m 4,8 km/h (1 Bft) W-SW 247 0,000 mm 0,0 UV-I 46 W/m 17,0 C 19,2 C 6,4 km/h (2 Bft)
28.07.2021 06:24 19,2 C 18,9 C 18,3 C 20,6 C 18,9 C 17,2 C 87 % 82 % 3 cb 10 cb 6 cb 1012,8 hPa 0,0 l/m 4,8 km/h (1 Bft) W-SW 247 0,000 mm 0,0 UV-I 42 W/m 17,0 C 19,2 C 6,4 km/h (2 Bft)
28.07.2021 06:23 19,2 C 18,9 C 18,3 C 20,6 C 18,9 C 17,2 C 87 % 82 % 3 cb 10 cb 6 cb 1012,8 hPa 0,0 l/m 4,8 km/h (1 Bft) W-SW 247 0,000 mm 0,0 UV-I 40 W/m 17,0 C 19,2 C 6,4 km/h (2 Bft)
28.07.2021 06:22 19,2 C 18,9 C 18,3 C 20,6 C 18,9 C 17,2 C 87 % 82 % 3 cb 10 cb 6 cb 1012,8 hPa 0,0 l/m 3,2 km/h (1 Bft) W-SW 247 0,000 mm 0,0 UV-I 40 W/m 17,0 C 19,2 C 4,8 km/h (1 Bft)
28.07.2021 06:21 19,2 C 18,9 C 18,3 C 20,6 C 18,9 C 17,2 C 87 % 82 % 3 cb 10 cb 6 cb 1012,8 hPa 0,0 l/m 3,2 km/h (1 Bft) W-SW 247 0,000 mm 0,0 UV-I 39 W/m 17,0 C 19,2 C 4,8 km/h (1 Bft)
28.07.2021 06:20 19,2 C 18,9 C 18,3 C 20,6 C 18,9 C 17,2 C 87 % 82 % 3 cb 10 cb 6 cb 1012,8 hPa 0,0 l/m 3,2 km/h (1 Bft) W-SW 247 0,000 mm 0,0 UV-I 37 W/m 17,0 C 19,2 C 4,8 km/h (1 Bft)
28.07.2021 06:19 19,2 C 18,9 C 18,3 C 20,6 C 18,9 C 17,2 C 87 % 82 % 3 cb 10 cb 6 cb 1012,9 hPa 0,0 l/m 3,2 km/h (1 Bft) W-SW 247 0,000 mm 0,0 UV-I 33 W/m 17,0 C 19,2 C 6,4 km/h (2 Bft)
28.07.2021 06:18 19,2 C 18,9 C 18,3 C 20,6 C 18,9 C 17,2 C 87 % 82 % 3 cb 10 cb 6 cb 1012,8 hPa 0,0 l/m 3,2 km/h (1 Bft) W-SW 247 0,000 mm 0,0 UV-I 32 W/m 17,0 C 19,2 C 6,4 km/h (2 Bft)
28.07.2021 06:17 19,2 C 18,9 C 18,3 C 20,6 C 18,9 C 17,2 C 87 % 82 % 3 cb 10 cb 6 cb 1012,9 hPa 0,0 l/m 4,8 km/h (1 Bft) SW 225 0,000 mm 0,0 UV-I 32 W/m 17,0 C 19,2 C 8,0 km/h (2 Bft)
28.07.2021 06:16 19,2 C 18,9 C 18,3 C 20,6 C 18,9 C 17,2 C 87 % 82 % 3 cb 10 cb 6 cb 1012,9 hPa 0,0 l/m 6,4 km/h (2 Bft) SW 225 0,000 mm 0,0 UV-I 30 W/m 17,0 C 19,2 C 9,7 km/h (2 Bft)
28.07.2021 06:15 19,1 C 18,9 C 18,3 C 20,6 C 18,9 C 17,2 C 87 % 82 % 3 cb 10 cb 6 cb 1012,9 hPa 0,0 l/m 8,0 km/h (2 Bft) SW 225 0,000 mm 0,0 UV-I 30 W/m 16,9 C 18,4 C 12,9 km/h (3 Bft)
28.07.2021 06:14 19,1 C 18,9 C 18,3 C 20,6 C 18,9 C 17,2 C 87 % 83 % 3 cb 10 cb 6 cb 1012,9 hPa 0,0 l/m 8,0 km/h (2 Bft) SW 225 0,000 mm 0,0 UV-I 28 W/m 16,9 C 18,4 C 11,3 km/h (2 Bft)
28.07.2021 06:13 19,2 C 18,9 C 18,3 C 20,6 C 18,9 C 17,2 C 87 % 83 % 3 cb 10 cb 6 cb 1012,9 hPa 0,0 l/m 9,7 km/h (2 Bft) W-SW 247 0,000 mm 0,0 UV-I 26 W/m 17,0 C 17,9 C 14,5 km/h (3 Bft)
28.07.2021 06:12 19,2 C 18,9 C 18,3 C 20,6 C 18,9 C 17,2 C 87 % 83 % 3 cb 10 cb 6 cb 1012,9 hPa 0,0 l/m 6,4 km/h (2 Bft) W-SW 247 0,000 mm 0,0 UV-I 25 W/m 17,0 C 19,2 C 11,3 km/h (2 Bft)
28.07.2021 06:11 19,2 C 18,9 C 18,3 C 20,6 C 18,9 C 17,2 C 88 % 83 % 3 cb 10 cb 6 cb 1012,9 hPa 0,0 l/m 6,4 km/h (2 Bft) SW 225 0,000 mm 0,0 UV-I 23 W/m 17,2 C 19,2 C 11,3 km/h (2 Bft)
28.07.2021 06:10 19,2 C 18,9 C 18,3 C 20,6 C 18,9 C 17,2 C 88 % 83 % 3 cb 10 cb 6 cb 1012,9 hPa 0,0 l/m 6,4 km/h (2 Bft) W-SW 247 0,000 mm 0,0 UV-I 21 W/m 17,2 C 19,2 C 8,0 km/h (2 Bft)
28.07.2021 06:09 19,2 C 18,9 C 18,3 C 20,6 C 18,9 C 17,2 C 88 % 83 % 3 cb 10 cb 6 cb 1012,8 hPa 0,0 l/m 4,8 km/h (1 Bft) W-SW 247 0,000 mm 0,0 UV-I 21 W/m 17,2 C 19,2 C 9,7 km/h (2 Bft)
28.07.2021 06:08 19,2 C 18,9 C 18,3 C 20,6 C 18,9 C 17,2 C 88 % 83 % 3 cb 10 cb 6 cb 1012,8 hPa 0,0 l/m 6,4 km/h (2 Bft) W-SW 247 0,000 mm 0,0 UV-I 19 W/m 17,2 C 19,2 C 11,3 km/h (2 Bft)
28.07.2021 06:07 19,2 C 18,9 C 18,3 C 20,6 C 18,9 C 17,2 C 88 % 83 % 3 cb 10 cb 6 cb 1012,8 hPa 0,0 l/m 8,0 km/h (2 Bft) W-SW 247 0,000 mm 0,0 UV-I 19 W/m 17,2 C 18,5 C 11,3 km/h (2 Bft)
28.07.2021 06:06 19,2 C 18,9 C 18,3 C 20,6 C 18,9 C 17,2 C 88 % 84 % 3 cb 10 cb 6 cb 1012,8 hPa 0,0 l/m 9,7 km/h (2 Bft) W-SW 247 0,000 mm 0,0 UV-I 18 W/m 17,2 C 17,9 C 14,5 km/h (3 Bft)
28.07.2021 06:05 19,2 C 18,9 C 18,3 C 20,6 C 18,9 C 17,2 C 88 % 84 % 3 cb 10 cb 6 cb 1012,8 hPa 0,0 l/m 9,7 km/h (2 Bft) W-SW 247 0,000 mm 0,0 UV-I 16 W/m 17,2 C 17,9 C 14,5 km/h (3 Bft)
28.07.2021 06:04 19,3 C 18,9 C 18,3 C 20,6 C 18,9 C 17,2 C 89 % 84 % 3 cb 10 cb 6 cb 1012,9 hPa 0,0 l/m 6,4 km/h (2 Bft) SW 225 0,000 mm 0,0 UV-I 14 W/m 17,4 C 19,3 C 11,3 km/h (2 Bft)
28.07.2021 06:03 19,3 C 19,4 C 18,3 C 20,6 C 18,9 C 17,2 C 89 % 84 % 3 cb 10 cb 6 cb 1012,8 hPa 0,0 l/m 4,8 km/h (1 Bft) W-SW 247 0,000 mm 0,0 UV-I 14 W/m 17,4 C 19,3 C 8,0 km/h (2 Bft)
28.07.2021 06:02 19,3 C 19,4 C 18,3 C 20,6 C 18,9 C 17,2 C 89 % 84 % 3 cb 10 cb 6 cb 1012,9 hPa 0,0 l/m 4,8 km/h (1 Bft) W-SW 247 0,000 mm 0,0 UV-I 12 W/m 17,4 C 19,3 C 6,4 km/h (2 Bft)
28.07.2021 06:01 19,3 C 18,9 C 18,3 C 20,6 C 18,9 C 17,2 C 89 % 84 % 3 cb 10 cb 6 cb 1012,9 hPa 0,0 l/m 4,8 km/h (1 Bft) W-SW 247 0,000 mm 0,0 UV-I 11 W/m 17,4 C 19,3 C 6,4 km/h (2 Bft)
28.07.2021 06:00 19,4 C 18,9 C 18,3 C 20,6 C 18,9 C 17,2 C 89 % 84 % 3 cb 10 cb 6 cb 1012,8 hPa 0,0 l/m 6,4 km/h (2 Bft) W 270 0,000 mm 0,0 UV-I 9 W/m 17,5 C 19,4 C 8,0 km/h (2 Bft)
28.07.2021 05:59 19,4 C 19,4 C 18,3 C 20,6 C 18,9 C 17,2 C 89 % 84 % 3 cb 10 cb 6 cb 1012,8 hPa 0,0 l/m 4,8 km/h (1 Bft) W-SW 247 0,000 mm 0,0 UV-I 7 W/m 17,5 C 19,4 C 6,4 km/h (2 Bft)
28.07.2021 05:58 19,4 C 19,4 C 18,3 C 20,6 C 18,9 C 17,2 C 89 % 84 % 3 cb 10 cb 6 cb 1012,8 hPa 0,0 l/m 6,4 km/h (2 Bft) W-SW 247 0,000 mm 0,0 UV-I 7 W/m 17,5 C 19,4 C 6,4 km/h (2 Bft)
28.07.2021 05:57 19,4 C 19,4 C 18,3 C 20,6 C 18,9 C 17,2 C 89 % 84 % 3 cb 10 cb 6 cb 1012,8 hPa 0,0 l/m 6,4 km/h (2 Bft) W-SW 247 0,000 mm 0,0 UV-I 7 W/m 17,5 C 19,4 C 9,7 km/h (2 Bft)
28.07.2021 05:56 19,4 C 19,4 C 18,3 C 20,6 C 18,9 C 17,2 C 89 % 84 % 3 cb 10 cb 6 cb 1012,8 hPa 0,0 l/m 4,8 km/h (1 Bft) W-SW 247 0,000 mm 0,0 UV-I 7 W/m 17,5 C 19,4 C 8,0 km/h (2 Bft)
28.07.2021 05:55 19,4 C 19,4 C 17,8 C 20,6 C 18,9 C 17,2 C 89 % 84 % 3 cb 10 cb 6 cb 1012,8 hPa 0,0 l/m 3,2 km/h (1 Bft) W-SW 247 0,000 mm 0,0 UV-I 7 W/m 17,5 C 19,4 C 6,4 km/h (2 Bft)
28.07.2021 05:54 19,4 C 19,4 C 17,8 C 20,6 C 18,9 C 17,2 C 89 % 84 % 3 cb 10 cb 6 cb 1012,8 hPa 0,0 l/m 6,4 km/h (2 Bft) W-SW 247 0,000 mm 0,0 UV-I 7 W/m 17,5 C 19,4 C 8,0 km/h (2 Bft)
28.07.2021 05:53 19,4 C 19,4 C 17,8 C 20,6 C 18,9 C 17,2 C 89 % 84 % 3 cb 10 cb 6 cb 1012,7 hPa 0,0 l/m 3,2 km/h (1 Bft) S-SW 202 0,000 mm 0,0 UV-I 9 W/m 17,5 C 19,4 C 6,4 km/h (2 Bft)
28.07.2021 05:52 19,4 C 19,4 C 17,8 C 20,6 C 18,9 C 17,2 C 89 % 84 % 3 cb 10 cb 6 cb 1012,6 hPa 0,0 l/m 8,0 km/h (2 Bft) S-SW 202 0,000 mm 0,0 UV-I 9 W/m 17,5 C 18,7 C 11,3 km/h (2 Bft)
28.07.2021 05:51 19,4 C 19,4 C 17,8 C 20,6 C 18,9 C 17,2 C 90 % 85 % 3 cb 10 cb 6 cb 1012,6 hPa 0,0 l/m 6,4 km/h (2 Bft) SW 225 0,000 mm 0,0 UV-I 9 W/m 17,7 C 19,4 C 9,7 km/h (2 Bft)
28.07.2021 05:50 19,5 C 19,4 C 17,8 C 20,6 C 18,9 C 17,2 C 90 % 85 % 3 cb 10 cb 6 cb 1012,7 hPa 0,0 l/m 6,4 km/h (2 Bft) SW 225 0,000 mm 0,0 UV-I 9 W/m 17,8 C 19,5 C 8,0 km/h (2 Bft)
28.07.2021 05:49 19,5 C 19,4 C 17,8 C 20,6 C 18,9 C 17,2 C 90 % 85 % 3 cb 10 cb 6 cb 1012,8 hPa 0,0 l/m 3,2 km/h (1 Bft) W-SW 247 0,000 mm 0,0 UV-I 9 W/m 17,8 C 19,5 C 6,4 km/h (2 Bft)
28.07.2021 05:48 19,5 C 19,4 C 18,3 C 20,6 C 18,9 C 17,2 C 90 % 85 % 3 cb 10 cb 6 cb 1012,8 hPa 0,0 l/m 6,4 km/h (2 Bft) W-SW 247 0,000 mm 0,0 UV-I 9 W/m 17,8 C 19,5 C 8,0 km/h (2 Bft)
28.07.2021 05:47 19,6 C 19,4 C 18,3 C 20,6 C 18,9 C 17,2 C 90 % 85 % 3 cb 10 cb 6 cb 1012,7 hPa 0,0 l/m 4,8 km/h (1 Bft) W-SW 247 0,000 mm 0,0 UV-I 7 W/m 17,9 C 19,6 C 6,4 km/h (2 Bft)
28.07.2021 05:46 19,5 C 19,4 C 18,3 C 20,6 C 18,9 C 17,2 C 90 % 86 % 3 cb 10 cb 6 cb 1012,7 hPa 0,0 l/m 6,4 km/h (2 Bft) W-SW 247 0,000 mm 0,0 UV-I 7 W/m 17,8 C 19,5 C 8,0 km/h (2 Bft)
28.07.2021 05:45 19,6 C 19,4 C 18,3 C 20,6 C 18,9 C 17,2 C 90 % 86 % 3 cb 10 cb 6 cb 1012,7 hPa 0,0 l/m 3,2 km/h (1 Bft) W-SW 247 0,000 mm 0,0 UV-I 7 W/m 17,9 C 19,6 C 6,4 km/h (2 Bft)
28.07.2021 05:44 19,6 C 19,4 C 18,3 C 20,6 C 18,9 C 17,2 C 90 % 86 % 3 cb 10 cb 6 cb 1012,7 hPa 0,0 l/m 4,8 km/h (1 Bft) W-SW 247 0,000 mm 0,0 UV-I 5 W/m 17,9 C 19,6 C 6,4 km/h (2 Bft)
28.07.2021 05:43 19,6 C 19,4 C 18,3 C 20,6 C 18,9 C 17,2 C 90 % 86 % 3 cb 10 cb 6 cb 1012,8 hPa 0,0 l/m 4,8 km/h (1 Bft) W 270 0,000 mm 0,0 UV-I 5 W/m 17,9 C 19,6 C 6,4 km/h (2 Bft)
28.07.2021 05:42 19,6 C 19,4 C 18,3 C 20,6 C 18,9 C 17,2 C 90 % 86 % 3 cb 10 cb 6 cb 1012,8 hPa 0,0 l/m 4,8 km/h (1 Bft) W 270 0,000 mm 0,0 UV-I 0 W/m 17,9 C 19,6 C 6,4 km/h (2 Bft)
28.07.2021 05:41 19,6 C 19,4 C 18,3 C 20,6 C 18,9 C 17,2 C 90 % 86 % 3 cb 10 cb 6 cb 1012,8 hPa 0,0 l/m 4,8 km/h (1 Bft) W 270 0,000 mm 0,0 UV-I 0 W/m 17,9 C 19,6 C 6,4 km/h (2 Bft)
28.07.2021 05:40 19,6 C 19,4 C 18,3 C 20,6 C 18,9 C 17,2 C 90 % 86 % 3 cb 10 cb 6 cb 1012,8 hPa 0,0 l/m 3,2 km/h (1 Bft) W-SW 247 0,000 mm 0,0 UV-I 0 W/m 17,9 C 19,6 C 4,8 km/h (1 Bft)
28.07.2021 05:39 19,6 C 19,4 C 18,3 C 20,6 C 18,9 C 17,2 C 90 % 86 % 3 cb 10 cb 6 cb 1012,7 hPa 0,0 l/m 3,2 km/h (1 Bft) W-SW 247 0,000 mm 0,0 UV-I 0 W/m 17,9 C 19,6 C 4,8 km/h (1 Bft)
28.07.2021 05:38 19,6 C 19,4 C 18,3 C 20,6 C 18,9 C 17,2 C 90 % 87 % 3 cb 10 cb 6 cb 1012,7 hPa 0,0 l/m 3,2 km/h (1 Bft) W-SW 247 0,000 mm 0,0 UV-I 0 W/m 17,9 C 19,6 C 4,8 km/h (1 Bft)
28.07.2021 05:37 19,6 C 19,4 C 18,3 C 20,6 C 18,9 C 17,2 C 90 % 87 % 3 cb 10 cb 6 cb 1012,7 hPa 0,0 l/m 4,8 km/h (1 Bft) W-SW 247 0,000 mm 0,0 UV-I 0 W/m 17,9 C 19,6 C 8,0 km/h (2 Bft)
28.07.2021 05:36 19,6 C 19,4 C 18,3 C 20,6 C 18,9 C 17,2 C 91 % 87 % 3 cb 10 cb 6 cb 1012,7 hPa 0,0 l/m 3,2 km/h (1 Bft) W 270 0,000 mm 0,0 UV-I 0 W/m 18,1 C 19,6 C 6,4 km/h (2 Bft)
28.07.2021 05:35 19,6 C 19,4 C 18,3 C 20,6 C 18,9 C 17,2 C 91 % 87 % 3 cb 10 cb 6 cb 1012,7 hPa 0,0 l/m 0,0 km/h (0 Bft) W 270 0,000 mm 0,0 UV-I 0 W/m 18,1 C 19,6 C 3,2 km/h (1 Bft)
28.07.2021 05:34 19,6 C 19,4 C 18,3 C 20,6 C 18,9 C 17,2 C 91 % 87 % 3 cb 10 cb 6 cb 1012,7 hPa 0,0 l/m 1,6 km/h (1 Bft) W 270 0,000 mm 0,0 UV-I 0 W/m 18,1 C 19,6 C 3,2 km/h (1 Bft)
28.07.2021 05:33 19,6 C 19,4 C 18,3 C 20,6 C 18,9 C 17,2 C 91 % 87 % 3 cb 10 cb 6 cb 1012,7 hPa 0,0 l/m 3,2 km/h (1 Bft) W 270 0,000 mm 0,0 UV-I 0 W/m 18,1 C 19,6 C 3,2 km/h (1 Bft)
28.07.2021 05:32 19,6 C 19,4 C 18,3 C 20,6 C 18,9 C 17,2 C 91 % 87 % 3 cb 10 cb 6 cb 1012,7 hPa 0,0 l/m 3,2 km/h (1 Bft) W 270 0,000 mm 0,0 UV-I 0 W/m 18,1 C 19,6 C 4,8 km/h (1 Bft)
28.07.2021 05:31 19,6 C 19,4 C 18,3 C 20,6 C 18,9 C 17,2 C 91 % 87 % 3 cb 10 cb 6 cb 1012,7 hPa 0,0 l/m 3,2 km/h (1 Bft) W 270 0,000 mm 0,0 UV-I 0 W/m 18,1 C 19,6 C 4,8 km/h (1 Bft)
28.07.2021 05:30 19,6 C 19,4 C 18,3 C 20,6 C 18,9 C 17,2 C 91 % 87 % 3 cb 10 cb 6 cb 1012,8 hPa 0,0 l/m 4,8 km/h (1 Bft) W 270 0,000 mm 0,0 UV-I 0 W/m 18,1 C 19,6 C 6,4 km/h (2 Bft)
28.07.2021 05:29 19,6 C 19,4 C 18,3 C 20,6 C 18,9 C 17,2 C 91 % 87 % 3 cb 10 cb 6 cb 1012,8 hPa 0,0 l/m 4,8 km/h (1 Bft) W 270 0,000 mm 0,0 UV-I 0 W/m 18,1 C 19,6 C 4,8 km/h (1 Bft)
28.07.2021 05:28 19,6 C 19,4 C 18,3 C 20,6 C 18,9 C 17,2 C 92 % 87 % 3 cb 10 cb 6 cb 1012,7 hPa 0,0 l/m 3,2 km/h (1 Bft) W 270 0,000 mm 0,0 UV-I 0 W/m 18,3 C 19,6 C 4,8 km/h (1 Bft)
28.07.2021 05:27 19,6 C 19,4 C 18,3 C 20,6 C 18,9 C 17,2 C 92 % 87 % 3 cb 10 cb 6 cb 1012,7 hPa 0,0 l/m 6,4 km/h (2 Bft) W 270 0,000 mm 0,0 UV-I 0 W/m 18,3 C 19,6 C 8,0 km/h (2 Bft)
28.07.2021 05:26 19,6 C 19,4 C 18,3 C 20,6 C 18,9 C 17,2 C 92 % 87 % 3 cb 10 cb 6 cb 1012,8 hPa 0,0 l/m 3,2 km/h (1 Bft) W-SW 247 0,000 mm 0,0 UV-I 0 W/m 18,3 C 19,6 C 4,8 km/h (1 Bft)
28.07.2021 05:25 19,6 C 19,4 C 18,3 C 20,6 C 18,9 C 17,2 C 92 % 88 % 3 cb 10 cb 6 cb 1012,7 hPa 0,0 l/m 3,2 km/h (1 Bft) W-SW 247 0,000 mm 0,0 UV-I 0 W/m 18,3 C 19,6 C 4,8 km/h (1 Bft)
28.07.2021 05:24 19,6 C 19,4 C 18,3 C 20,6 C 18,9 C 17,2 C 92 % 88 % 3 cb 10 cb 6 cb 1012,7 hPa 0,0 l/m 0,0 km/h (0 Bft) W-SW 247 0,000 mm 0,0 UV-I 0 W/m 18,3 C 19,6 C 1,6 km/h (1 Bft)
28.07.2021 05:23 19,6 C 19,4 C 18,3 C 20,6 C 18,9 C 17,2 C 92 % 88 % 3 cb 10 cb 6 cb 1012,7 hPa 0,0 l/m 1,6 km/h (1 Bft) W-SW 247 0,000 mm 0,0 UV-I 0 W/m 18,3 C 19,6 C 3,2 km/h (1 Bft)
28.07.2021 05:22 19,6 C 19,4 C 18,3 C 20,6 C 18,9 C 17,2 C 92 % 88 % 3 cb 10 cb 6 cb 1012,7 hPa 0,0 l/m 1,6 km/h (1 Bft) W-SW 247 0,000 mm 0,0 UV-I 0 W/m 18,3 C 19,6 C 4,8 km/h (1 Bft)
28.07.2021 05:21 19,6 C 19,4 C 18,9 C 20,6 C 18,9 C 17,2 C 92 % 88 % 3 cb 10 cb 6 cb 1012,7 hPa 0,0 l/m 4,8 km/h (1 Bft) W-SW 247 0,000 mm 0,0 UV-I 0 W/m 18,3 C 19,6 C 6,4 km/h (2 Bft)
28.07.2021 05:20 19,6 C 19,4 C 18,9 C 20,6 C 18,9 C 17,2 C 93 % 88 % 3 cb 10 cb 6 cb 1012,7 hPa 0,0 l/m 4,8 km/h (1 Bft) W-SW 247 0,000 mm 0,0 UV-I 0 W/m 18,4 C 19,6 C 6,4 km/h (2 Bft)
28.07.2021 05:19 19,6 C 19,4 C 18,9 C 20,6 C 18,9 C 17,2 C 93 % 88 % 3 cb 10 cb 6 cb 1012,7 hPa 0,0 l/m 3,2 km/h (1 Bft) W-SW 247 0,000 mm 0,0 UV-I 0 W/m 18,4 C 19,6 C 4,8 km/h (1 Bft)
28.07.2021 05:18 19,6 C 19,4 C 18,9 C 20,6 C 18,9 C 17,2 C 93 % 88 % 3 cb 10 cb 6 cb 1012,7 hPa 0,0 l/m 6,4 km/h (2 Bft) W-SW 247 0,000 mm 0,0 UV-I 0 W/m 18,4 C 19,6 C 8,0 km/h (2 Bft)
28.07.2021 05:17 19,6 C 19,4 C 18,9 C 20,6 C 18,9 C 17,2 C 93 % 88 % 3 cb 10 cb 6 cb 1012,7 hPa 0,0 l/m 6,4 km/h (2 Bft) W-SW 247 0,000 mm 0,0 UV-I 0 W/m 18,4 C 19,6 C 8,0 km/h (2 Bft)
28.07.2021 05:16 19,6 C 19,4 C 18,9 C 20,6 C 18,9 C 17,2 C 93 % 88 % 3 cb 10 cb 6 cb 1012,7 hPa 0,0 l/m 4,8 km/h (1 Bft) SW 225 0,000 mm 0,0 UV-I 0 W/m 18,4 C 19,6 C 6,4 km/h (2 Bft)
28.07.2021 05:15 19,7 C 19,4 C 18,9 C 20,6 C 18,9 C 17,2 C 93 % 88 % 3 cb 10 cb 6 cb 1012,7 hPa 0,0 l/m 4,8 km/h (1 Bft) SW 225 0,000 mm 0,0 UV-I 0 W/m 18,5 C 19,7 C 6,4 km/h (2 Bft)
28.07.2021 05:14 19,7 C 19,4 C 18,9 C 20,6 C 18,9 C 17,2 C 93 % 88 % 3 cb 10 cb 6 cb 1012,8 hPa 0,0 l/m 4,8 km/h (1 Bft) W-SW 247 0,000 mm 0,0 UV-I 0 W/m 18,5 C 19,7 C 6,4 km/h (2 Bft)
28.07.2021 05:13 19,7 C 19,4 C 18,9 C 20,6 C 18,9 C 17,2 C 93 % 88 % 3 cb 10 cb 6 cb 1012,8 hPa 0,0 l/m 4,8 km/h (1 Bft) W-SW 247 0,000 mm 0,0 UV-I 0 W/m 18,5 C 19,7 C 4,8 km/h (1 Bft)
28.07.2021 05:12 19,6 C 19,4 C 18,9 C 20,6 C 18,9 C 17,2 C 93 % 88 % 3 cb 10 cb 6 cb 1012,7 hPa 0,0 l/m 3,2 km/h (1 Bft) W-SW 247 0,000 mm 0,0 UV-I 0 W/m 18,4 C 19,6 C 4,8 km/h (1 Bft)
28.07.2021 05:11 19,6 C 19,4 C 18,9 C 20,6 C 18,9 C 17,2 C 93 % 88 % 3 cb 10 cb 6 cb 1012,8 hPa 0,0 l/m 3,2 km/h (1 Bft) W-SW 247 0,000 mm 0,0 UV-I 0 W/m 18,4 C 19,6 C 6,4 km/h (2 Bft)
28.07.2021 05:10 19,6 C 19,4 C 18,9 C 20,6 C 18,9 C 17,2 C 93 % 88 % 3 cb 10 cb 6 cb 1012,8 hPa 0,0 l/m 6,4 km/h (2 Bft) W-SW 247 0,000 mm 0,0 UV-I 0 W/m 18,4 C 19,6 C 8,0 km/h (2 Bft)
28.07.2021 05:09 19,6 C 19,4 C 18,9 C 20,6 C 18,9 C 17,2 C 93 % 88 % 3 cb 10 cb 6 cb 1012,8 hPa 0,0 l/m 8,0 km/h (2 Bft) W-SW 247 0,000 mm 0,0 UV-I 0 W/m 18,4 C 18,9 C 9,7 km/h (2 Bft)
28.07.2021 05:08 19,6 C 19,4 C 18,9 C 20,6 C 18,9 C 17,2 C 94 % 88 % 3 cb 10 cb 6 cb 1012,8 hPa 0,0 l/m 8,0 km/h (2 Bft) SW 225 0,000 mm 0,0 UV-I 0 W/m 18,6 C 18,9 C 11,3 km/h (2 Bft)
28.07.2021 05:07 19,6 C 19,4 C 18,9 C 20,6 C 18,9 C 17,2 C 94 % 88 % 3 cb 10 cb 6 cb 1012,8 hPa 0,0 l/m 8,0 km/h (2 Bft) SW 225 0,000 mm 0,0 UV-I 0 W/m 18,6 C 18,9 C 11,3 km/h (2 Bft)
28.07.2021 05:06 19,6 C 19,4 C 18,9 C 20,6 C 18,9 C 17,2 C 94 % 88 % 3 cb 10 cb 6 cb 1012,8 hPa 0,0 l/m 6,4 km/h (2 Bft) SW 225 0,000 mm 0,0 UV-I 0 W/m 18,6 C 19,6 C 11,3 km/h (2 Bft)
28.07.2021 05:05 19,6 C 19,4 C 18,9 C 20,6 C 18,9 C 17,2 C 94 % 88 % 3 cb 10 cb 6 cb 1012,8 hPa 0,0 l/m 4,8 km/h (1 Bft) W-SW 247 0,000 mm 0,0 UV-I 0 W/m 18,6 C 19,6 C 6,4 km/h (2 Bft)
28.07.2021 05:04 19,6 C 19,4 C 18,9 C 20,6 C 18,9 C 17,2 C 94 % 88 % 3 cb 10 cb 6 cb 1012,8 hPa 0,0 l/m 4,8 km/h (1 Bft) W-SW 247 0,000 mm 0,0 UV-I 0 W/m 18,6 C 19,6 C 6,4 km/h (2 Bft)
28.07.2021 05:03 19,6 C 19,4 C 18,9 C 20,6 C 18,9 C 17,2 C 94 % 88 % 3 cb 10 cb 6 cb 1012,8 hPa 0,0 l/m 4,8 km/h (1 Bft) W-SW 247 0,000 mm 0,0 UV-I 0 W/m 18,6 C 19,6 C 8,0 km/h (2 Bft)
28.07.2021 05:02 19,6 C 19,4 C 18,9 C 20,6 C 18,9 C 17,2 C 94 % 88 % 3 cb 10 cb 6 cb 1012,8 hPa 0,0 l/m 4,8 km/h (1 Bft) W 270 0,000 mm 0,0 UV-I 0 W/m 18,6 C 19,6 C 8,0 km/h (2 Bft)
28.07.2021 05:01 19,6 C 19,4 C 18,9 C 20,6 C 18,9 C 17,2 C 94 % 88 % 3 cb 10 cb 6 cb 1012,8 hPa 0,0 l/m 4,8 km/h (1 Bft) W-SW 247 0,000 mm 0,0 UV-I 0 W/m 18,6 C 19,6 C 6,4 km/h (2 Bft)
28.07.2021 05:00 19,6 C 19,4 C 18,9 C 20,6 C 18,9 C 17,2 C 94 % 88 % 3 cb 10 cb 6 cb 1012,8 hPa 0,0 l/m 6,4 km/h (2 Bft) SW 225 0,000 mm 0,0 UV-I 0 W/m 18,6 C 19,6 C 8,0 km/h (2 Bft)
28.07.2021 04:59 19,6 C 19,4 C 18,9 C 20,6 C 18,9 C 17,2 C 94 % 88 % 3 cb 10 cb 6 cb 1012,8 hPa 0,0 l/m 3,2 km/h (1 Bft) SW 225 0,000 mm 0,0 UV-I 0 W/m 18,6 C 19,6 C 8,0 km/h (2 Bft)
28.07.2021 04:58 19,6 C 19,4 C 18,9 C 20,6 C 18,9 C 17,2 C 94 % 88 % 3 cb 10 cb 6 cb 1012,8 hPa 0,0 l/m 4,8 km/h (1 Bft) SW 225 0,000 mm 0,0 UV-I 0 W/m 18,6 C 19,6 C 6,4 km/h (2 Bft)
28.07.2021 04:57 19,6 C 19,4 C 18,9 C 20,6 C 18,9 C 17,2 C 94 % 88 % 3 cb 10 cb 6 cb 1012,8 hPa 0,0 l/m 6,4 km/h (2 Bft) SW 225 0,000 mm 0,0 UV-I 0 W/m 18,6 C 19,6 C 9,7 km/h (2 Bft)
28.07.2021 04:56 19,6 C 19,4 C 18,9 C 20,6 C 18,9 C 17,2 C 94 % 88 % 3 cb 10 cb 6 cb 1012,8 hPa 0,0 l/m 6,4 km/h (2 Bft) SW 225 0,000 mm 0,0 UV-I 0 W/m 18,6 C 19,6 C 8,0 km/h (2 Bft)
28.07.2021 04:55 19,5 C 19,4 C 18,9 C 20,6 C 18,9 C 17,2 C 94 % 88 % 3 cb 10 cb 6 cb 1012,7 hPa 0,0 l/m 8,0 km/h (2 Bft) SW 225 0,000 mm 0,0 UV-I 0 W/m 18,5 C 18,8 C 12,9 km/h (3 Bft)
28.07.2021 04:54 19,5 C 19,4 C 18,9 C 20,6 C 18,9 C 17,2 C 94 % 88 % 3 cb 10 cb 6 cb 1012,7 hPa 0,0 l/m 4,8 km/h (1 Bft) S-SW 202 0,000 mm 0,0 UV-I 0 W/m 18,5 C 19,5 C 9,7 km/h (2 Bft)
28.07.2021 04:53 19,5 C 19,4 C 18,3 C 20,6 C 18,9 C 17,2 C 94 % 88 % 3 cb 10 cb 6 cb 1012,7 hPa 0,0 l/m 6,4 km/h (2 Bft) S-SW 202 0,000 mm 0,0 UV-I 0 W/m 18,5 C 19,5 C 9,7 km/h (2 Bft)
28.07.2021 04:52 19,5 C 19,4 C 18,3 C 20,6 C 18,9 C 17,2 C 94 % 88 % 3 cb 10 cb 6 cb 1012,7 hPa 0,0 l/m 4,8 km/h (1 Bft) SW 225 0,000 mm 0,0 UV-I 0 W/m 18,5 C 19,5 C 9,7 km/h (2 Bft)
28.07.2021 04:51 19,5 C 19,4 C 18,3 C 21,1 C 18,9 C 17,2 C 94 % 88 % 3 cb 10 cb 6 cb 1012,7 hPa 0,0 l/m 4,8 km/h (1 Bft) S-SW 202 0,000 mm 0,0 UV-I 0 W/m 18,5 C 19,5 C 8,0 km/h (2 Bft)
28.07.2021 04:50 19,4 C 19,4 C 18,3 C 21,1 C 18,9 C 17,2 C 94 % 88 % 3 cb 10 cb 6 cb 1012,7 hPa 0,0 l/m 1,6 km/h (1 Bft) SW 225 0,000 mm 0,0 UV-I 0 W/m 18,4 C 19,4 C 4,8 km/h (1 Bft)
28.07.2021 04:49 19,4 C 19,4 C 18,3 C 21,1 C 18,9 C 17,2 C 94 % 88 % 3 cb 10 cb 6 cb 1012,7 hPa 0,0 l/m 4,8 km/h (1 Bft) SW 225 0,000 mm 0,0 UV-I 0 W/m 18,4 C 19,4 C 8,0 km/h (2 Bft)
28.07.2021 04:48 19,4 C 19,4 C 18,3 C 21,1 C 18,9 C 17,2 C 94 % 88 % 3 cb 10 cb 6 cb 1012,7 hPa 0,0 l/m 3,2 km/h (1 Bft) W-SW 247 0,000 mm 0,0 UV-I 0 W/m 18,4 C 19,4 C 6,4 km/h (2 Bft)
28.07.2021 04:47 19,4 C 19,4 C 18,3 C 21,1 C 18,9 C 17,2 C 94 % 88 % 3 cb 10 cb 6 cb 1012,7 hPa 0,0 l/m 4,8 km/h (1 Bft) W-SW 247 0,000 mm 0,0 UV-I 0 W/m 18,4 C 19,4 C 4,8 km/h (1 Bft)
28.07.2021 04:46 19,4 C 19,4 C 18,3 C 21,1 C 18,9 C 17,2 C 94 % 88 % 3 cb 10 cb 6 cb 1012,7 hPa 0,0 l/m 6,4 km/h (2 Bft) W-SW 247 0,000 mm 0,0 UV-I 0 W/m 18,4 C 19,4 C 8,0 km/h (2 Bft)
28.07.2021 04:45 19,4 C 19,4 C 18,3 C 21,1 C 18,9 C 17,2 C 94 % 88 % 3 cb 10 cb 6 cb 1012,7 hPa 0,0 l/m 4,8 km/h (1 Bft) W-SW 247 0,000 mm 0,0 UV-I 0 W/m 18,4 C 19,4 C 6,4 km/h (2 Bft)
28.07.2021 04:44 19,4 C 19,4 C 18,3 C 21,1 C 18,9 C 17,2 C 94 % 88 % 3 cb 10 cb 6 cb 1012,7 hPa 0,0 l/m 4,8 km/h (1 Bft) SW 225 0,000 mm 0,0 UV-I 0 W/m 18,4 C 19,4 C 4,8 km/h (1 Bft)
28.07.2021 04:43 19,4 C 19,4 C 18,3 C 21,1 C 18,9 C 17,2 C 94 % 88 % 3 cb 10 cb 6 cb 1012,6 hPa 0,0 l/m 4,8 km/h (1 Bft) SW 225 0,000 mm 0,0 UV-I 0 W/m 18,4 C 19,4 C 8,0 km/h (2 Bft)
28.07.2021 04:42 19,4 C 19,4 C 18,3 C 21,1 C 18,9 C 17,2 C 94 % 88 % 3 cb 10 cb 6 cb 1012,7 hPa 0,0 l/m 6,4 km/h (2 Bft) W-SW 247 0,000 mm 0,0 UV-I 0 W/m 18,4 C 19,4 C 9,7 km/h (2 Bft)
28.07.2021 04:41 19,4 C 19,4 C 18,3 C 21,1 C 18,9 C 17,2 C 94 % 88 % 3 cb 10 cb 6 cb 1012,6 hPa 0,0 l/m 4,8 km/h (1 Bft) W-SW 247 0,000 mm 0,0 UV-I 0 W/m 18,4 C 19,4 C 8,0 km/h (2 Bft)
28.07.2021 04:40 19,4 C 19,4 C 18,3 C 21,1 C 18,9 C 17,2 C 94 % 88 % 3 cb 10 cb 6 cb 1012,6 hPa 0,0 l/m 1,6 km/h (1 Bft) W-SW 247 0,000 mm 0,0 UV-I 0 W/m 18,4 C 19,4 C 4,8 km/h (1 Bft)
28.07.2021 04:39 19,4 C 19,4 C 18,3 C 21,1 C 18,9 C 17,2 C 94 % 88 % 3 cb 10 cb 6 cb 1012,5 hPa 0,0 l/m 6,4 km/h (2 Bft) W-SW 247 0,000 mm 0,0 UV-I 0 W/m 18,4 C 19,4 C 11,3 km/h (2 Bft)
28.07.2021 04:38 19,4 C 19,4 C 18,3 C 21,1 C 18,9 C 17,2 C 94 % 88 % 3 cb 10 cb 6 cb 1012,5 hPa 0,0 l/m 4,8 km/h (1 Bft) W-SW 247 0,000 mm 0,0 UV-I 0 W/m 18,4 C 19,4 C 6,4 km/h (2 Bft)
28.07.2021 04:37 19,4 C 19,4 C 18,3 C 21,1 C 18,9 C 17,2 C 94 % 88 % 3 cb 10 cb 6 cb 1012,5 hPa 0,0 l/m 8,0 km/h (2 Bft) W-SW 247 0,000 mm 0,0 UV-I 0 W/m 18,4 C 18,7 C 9,7 km/h (2 Bft)
28.07.2021 04:36 19,4 C 19,4 C 18,3 C 21,1 C 18,9 C 17,2 C 94 % 88 % 3 cb 10 cb 6 cb 1012,4 hPa 0,0 l/m 6,4 km/h (2 Bft) SW 225 0,000 mm 0,0 UV-I 0 W/m 18,4 C 19,4 C 8,0 km/h (2 Bft)
28.07.2021 04:35 19,4 C 19,4 C 18,3 C 21,1 C 18,9 C 17,2 C 94 % 88 % 3 cb 10 cb 6 cb 1012,5 hPa 0,0 l/m 6,4 km/h (2 Bft) W-SW 247 0,000 mm 0,0 UV-I 0 W/m 18,4 C 19,4 C 8,0 km/h (2 Bft)
28.07.2021 04:34 19,4 C 19,4 C 18,3 C 21,1 C 18,9 C 17,2 C 94 % 88 % 3 cb 10 cb 6 cb 1012,5 hPa 0,0 l/m 9,7 km/h (2 Bft) W-SW 247 0,000 mm 0,0 UV-I 0 W/m 18,4 C 18,1 C 12,9 km/h (3 Bft)
28.07.2021 04:33 19,4 C 19,4 C 18,3 C 21,1 C 18,9 C 17,2 C 94 % 88 % 3 cb 10 cb 6 cb 1012,4 hPa 0,0 l/m 6,4 km/h (2 Bft) W-SW 247 0,000 mm 0,0 UV-I 0 W/m 18,4 C 19,4 C 8,0 km/h (2 Bft)
28.07.2021 04:32 19,4 C 19,4 C 18,3 C 21,1 C 18,9 C 17,2 C 94 % 88 % 3 cb 10 cb 6 cb 1012,5 hPa 0,0 l/m 6,4 km/h (2 Bft) W-SW 247 0,000 mm 0,0 UV-I 0 W/m 18,4 C 19,4 C 8,0 km/h (2 Bft)
28.07.2021 04:31 19,4 C 19,4 C 18,3 C 21,1 C 18,9 C 17,2 C 94 % 88 % 3 cb 10 cb 6 cb 1012,4 hPa 0,0 l/m 6,4 km/h (2 Bft) W-SW 247 0,000 mm 0,0 UV-I 0 W/m 18,4 C 19,4 C 9,7 km/h (2 Bft)
28.07.2021 04:30 19,4 C 19,4 C 18,3 C 21,1 C 18,9 C 17,2 C 94 % 88 % 3 cb 10 cb 6 cb 1012,4 hPa 0,0 l/m 6,4 km/h (2 Bft) W-SW 247 0,000 mm 0,0 UV-I 0 W/m 18,4 C 19,4 C 6,4 km/h (2 Bft)
28.07.2021 04:29 19,4 C 19,4 C 18,3 C 21,1 C 18,9 C 17,2 C 94 % 88 % 3 cb 10 cb 6 cb 1012,4 hPa 0,0 l/m 4,8 km/h (1 Bft) W-SW 247 0,000 mm 0,0 UV-I 0 W/m 18,4 C 19,4 C 6,4 km/h (2 Bft)
28.07.2021 04:28 19,5 C 19,4 C 18,3 C 21,1 C 18,9 C 17,2 C 94 % 88 % 3 cb 10 cb 6 cb 1012,4 hPa 0,0 l/m 4,8 km/h (1 Bft) SW 225 0,000 mm 0,0 UV-I 0 W/m 18,5 C 19,5 C 6,4 km/h (2 Bft)
28.07.2021 04:27 19,5 C 19,4 C 18,3 C 21,1 C 18,9 C 17,2 C 94 % 88 % 3 cb 10 cb 6 cb 1012,4 hPa 0,0 l/m 6,4 km/h (2 Bft) SW 225 0,000 mm 0,0 UV-I 0 W/m 18,5 C 19,5 C 8,0 km/h (2 Bft)
28.07.2021 04:26 19,5 C 19,4 C 18,3 C 21,1 C 18,9 C 17,2 C 94 % 88 % 3 cb 10 cb 6 cb 1012,4 hPa 0,0 l/m 6,4 km/h (2 Bft) W-SW 247 0,000 mm 0,0 UV-I 0 W/m 18,5 C 19,5 C 9,7 km/h (2 Bft)
28.07.2021 04:25 19,5 C 19,4 C 18,3 C 21,1 C 18,9 C 17,2 C 94 % 88 % 3 cb 10 cb 6 cb 1012,3 hPa 0,0 l/m 3,2 km/h (1 Bft) W-SW 247 0,000 mm 0,0 UV-I 0 W/m 18,5 C 19,5 C 4,8 km/h (1 Bft)
28.07.2021 04:24 19,5 C 19,4 C 18,3 C 21,1 C 18,9 C 17,2 C 94 % 88 % 3 cb 10 cb 6 cb 1012,3 hPa 0,0 l/m 6,4 km/h (2 Bft) W-SW 247 0,000 mm 0,0 UV-I 0 W/m 18,5 C 19,5 C 9,7 km/h (2 Bft)
28.07.2021 04:23 19,5 C 19,4 C 18,3 C 21,1 C 18,9 C 17,2 C 94 % 88 % 3 cb 10 cb 6 cb 1012,3 hPa 0,0 l/m 4,8 km/h (1 Bft) W-SW 247 0,000 mm 0,0 UV-I 0 W/m 18,5 C 19,5 C 8,0 km/h (2 Bft)
28.07.2021 04:22 19,5 C 19,4 C 18,3 C 21,1 C 18,9 C 17,2 C 94 % 87 % 3 cb 10 cb 6 cb 1012,3 hPa 0,0 l/m 4,8 km/h (1 Bft) W-SW 247 0,000 mm 0,0 UV-I 0 W/m 18,5 C 19,5 C 6,4 km/h (2 Bft)
28.07.2021 04:21 19,5 C 19,4 C 18,3 C 21,1 C 18,9 C 17,2 C 94 % 87 % 3 cb 10 cb 6 cb 1012,3 hPa 0,0 l/m 4,8 km/h (1 Bft) W 270 0,000 mm 0,0 UV-I 0 W/m 18,5 C 19,5 C 8,0 km/h (2 Bft)
28.07.2021 04:20 19,5 C 19,4 C 18,3 C 21,1 C 18,9 C 17,2 C 94 % 87 % 3 cb 10 cb 6 cb 1012,2 hPa 0,0 l/m 4,8 km/h (1 Bft) SW 225 0,000 mm 0,0 UV-I 0 W/m 18,5 C 19,5 C 6,4 km/h (2 Bft)
28.07.2021 04:19 19,5 C 19,4 C 18,3 C 21,1 C 18,9 C 17,2 C 93 % 87 % 3 cb 10 cb 6 cb 1012,2 hPa 0,0 l/m 4,8 km/h (1 Bft) SW 225 0,000 mm 0,0 UV-I 0 W/m 18,3 C 19,5 C 6,4 km/h (2 Bft)
28.07.2021 04:18 19,5 C 19,4 C 18,3 C 21,1 C 18,9 C 17,2 C 93 % 87 % 3 cb 10 cb 6 cb 1012,2 hPa 0,0 l/m 4,8 km/h (1 Bft) SW 225 0,000 mm 0,0 UV-I 0 W/m 18,3 C 19,5 C 6,4 km/h (2 Bft)
28.07.2021 04:17 19,5 C 19,4 C 18,3 C 21,1 C 18,9 C 17,2 C 93 % 87 % 3 cb 10 cb 6 cb 1012,2 hPa 0,0 l/m 3,2 km/h (1 Bft) W-SW 247 0,000 mm 0,0 UV-I 0 W/m 18,3 C 19,5 C 4,8 km/h (1 Bft)
28.07.2021 04:16 19,5 C 19,4 C 18,3 C 21,1 C 18,9 C 17,2 C 93 % 87 % 3 cb 10 cb 6 cb 1012,2 hPa 0,0 l/m 3,2 km/h (1 Bft) W-SW 247 0,000 mm 0,0 UV-I 0 W/m 18,3 C 19,5 C 4,8 km/h (1 Bft)
28.07.2021 04:15 19,6 C 19,4 C 18,3 C 21,1 C 18,9 C 17,2 C 93 % 87 % 3 cb 10 cb 6 cb 1012,2 hPa 0,0 l/m 3,2 km/h (1 Bft) W-SW 247 0,000 mm 0,0 UV-I 0 W/m 18,4 C 19,6 C 4,8 km/h (1 Bft)
28.07.2021 04:14 19,6 C 19,4 C 18,3 C 21,1 C 18,9 C 17,2 C 93 % 87 % 3 cb 10 cb 6 cb 1012,2 hPa 0,0 l/m 3,2 km/h (1 Bft) W-SW 247 0,000 mm 0,0 UV-I 0 W/m 18,4 C 19,6 C 4,8 km/h (1 Bft)
28.07.2021 04:13 19,6 C 19,4 C 18,3 C 21,1 C 18,9 C 17,2 C 93 % 87 % 3 cb 10 cb 6 cb 1012,2 hPa 0,0 l/m 3,2 km/h (1 Bft) W-SW 247 0,000 mm 0,0 UV-I 0 W/m 18,4 C 19,6 C 4,8 km/h (1 Bft)
28.07.2021 04:12 19,6 C 19,4 C 18,3 C 21,1 C 18,9 C 17,2 C 93 % 87 % 3 cb 10 cb 6 cb 1012,2 hPa 0,0 l/m 4,8 km/h (1 Bft) W-SW 247 0,000 mm 0,0 UV-I 0 W/m 18,4 C 19,6 C 6,4 km/h (2 Bft)
28.07.2021 04:11 19,6 C 19,4 C 18,3 C 21,1 C 18,9 C 17,2 C 93 % 87 % 3 cb 10 cb 6 cb 1012,2 hPa 0,0 l/m 3,2 km/h (1 Bft) W-SW 247 0,000 mm 0,0 UV-I 0 W/m 18,4 C 19,6 C 4,8 km/h (1 Bft)
28.07.2021 04:10 19,6 C 19,4 C 18,3 C 21,1 C 18,9 C 17,2 C 93 % 87 % 3 cb 10 cb 6 cb 1012,2 hPa 0,0 l/m 4,8 km/h (1 Bft) W-SW 247 0,000 mm 0,0 UV-I 0 W/m 18,4 C 19,6 C 6,4 km/h (2 Bft)
28.07.2021 04:09 19,6 C 19,4 C 18,3 C 21,1 C 18,9 C 17,2 C 93 % 87 % 3 cb 10 cb 6 cb 1012,2 hPa 0,0 l/m 4,8 km/h (1 Bft) W-SW 247 0,000 mm 0,0 UV-I 0 W/m 18,4 C 19,6 C 6,4 km/h (2 Bft)
28.07.2021 04:08 19,6 C 19,4 C 18,3 C 21,1 C 18,9 C 17,2 C 93 % 87 % 3 cb 10 cb 6 cb 1012,3 hPa 0,0 l/m 4,8 km/h (1 Bft) W-SW 247 0,000 mm 0,0 UV-I 0 W/m 18,4 C 19,6 C 6,4 km/h (2 Bft)
28.07.2021 04:07 19,6 C 19,4 C 18,3 C 21,1 C 18,9 C 17,2 C 93 % 87 % 3 cb 10 cb 6 cb 1012,2 hPa 0,0 l/m 4,8 km/h (1 Bft) W-SW 247 0,000 mm 0,0 UV-I 0 W/m 18,4 C 19,6 C 6,4 km/h (2 Bft)
28.07.2021 04:06 19,6 C 19,4 C 18,3 C 21,1 C 18,9 C 17,2 C 93 % 87 % 3 cb 10 cb 6 cb 1012,2 hPa 0,0 l/m 4,8 km/h (1 Bft) W-SW 247 0,000 mm 0,0 UV-I 0 W/m 18,4 C 19,6 C 6,4 km/h (2 Bft)
28.07.2021 04:05 19,6 C 19,4 C 18,3 C 21,1 C 18,9 C 17,2 C 93 % 87 % 3 cb 10 cb 6 cb 1012,2 hPa 0,0 l/m 3,2 km/h (1 Bft) W-SW 247 0,000 mm 0,0 UV-I 0 W/m 18,4 C 19,6 C 6,4 km/h (2 Bft)
28.07.2021 04:04 19,6 C 19,4 C 18,3 C 21,1 C 18,9 C 17,2 C 92 % 87 % 3 cb 10 cb 6 cb 1012,2 hPa 0,0 l/m 4,8 km/h (1 Bft) W-SW 247 0,000 mm 0,0 UV-I 0 W/m 18,3 C 19,6 C 8,0 km/h (2 Bft)
28.07.2021 04:03 19,6 C 19,4 C 18,3 C 21,1 C 18,9 C 17,2 C 93 % 87 % 3 cb 10 cb 6 cb 1012,2 hPa 0,0 l/m 4,8 km/h (1 Bft) W-SW 247 0,000 mm 0,0 UV-I 0 W/m 18,4 C 19,6 C 8,0 km/h (2 Bft)
28.07.2021 04:02 19,6 C 19,4 C 18,3 C 21,1 C 18,9 C 17,2 C 92 % 87 % 3 cb 10 cb 6 cb 1012,2 hPa 0,0 l/m 4,8 km/h (1 Bft) W-SW 247 0,000 mm 0,0 UV-I 0 W/m 18,3 C 19,6 C 6,4 km/h (2 Bft)
28.07.2021 04:01 19,6 C 19,4 C 18,3 C 21,1 C 18,9 C 17,2 C 92 % 87 % 3 cb 10 cb 6 cb 1012,2 hPa 0,0 l/m 3,2 km/h (1 Bft) W-SW 247 0,000 mm 0,0 UV-I 0 W/m 18,3 C 19,6 C 6,4 km/h (2 Bft)
28.07.2021 04:00 19,6 C 19,4 C 18,3 C 21,1 C 18,9 C 17,2 C 92 % 87 % 3 cb 10 cb 6 cb 1012,2 hPa 0,0 l/m 8,0 km/h (2 Bft) SW 225 0,000 mm 0,0 UV-I 0 W/m 18,3 C 18,9 C 9,7 km/h (2 Bft)
28.07.2021 03:59 19,6 C 19,4 C 18,3 C 21,1 C 18,9 C 17,2 C 92 % 87 % 3 cb 10 cb 6 cb 1012,2 hPa 0,0 l/m 6,4 km/h (2 Bft) SW 225 0,000 mm 0,0 UV-I 0 W/m 18,3 C 19,6 C 9,7 km/h (2 Bft)
28.07.2021 03:58 19,6 C 19,4 C 18,3 C 21,1 C 18,9 C 17,2 C 92 % 87 % 3 cb 10 cb 6 cb 1012,3 hPa 0,0 l/m 6,4 km/h (2 Bft) W-SW 247 0,000 mm 0,0 UV-I 0 W/m 18,3 C 19,6 C 9,7 km/h (2 Bft)
28.07.2021 03:57 19,6 C 19,4 C 18,3 C 21,1 C 18,9 C 17,2 C 92 % 87 % 3 cb 10 cb 6 cb 1012,3 hPa 0,0 l/m 8,0 km/h (2 Bft) W-SW 247 0,000 mm 0,0 UV-I 0 W/m 18,3 C 18,9 C 9,7 km/h (2 Bft)
28.07.2021 03:56 19,6 C 19,4 C 18,3 C 21,1 C 18,9 C 17,2 C 92 % 87 % 3 cb 10 cb 6 cb 1012,2 hPa 0,0 l/m 6,4 km/h (2 Bft) W-SW 247 0,000 mm 0,0 UV-I 0 W/m 18,3 C 19,6 C 8,0 km/h (2 Bft)
28.07.2021 03:55 19,7 C 19,4 C 18,3 C 21,1 C 18,9 C 17,2 C 92 % 87 % 3 cb 10 cb 6 cb 1012,3 hPa 0,0 l/m 8,0 km/h (2 Bft) W-SW 247 0,000 mm 0,0 UV-I 0 W/m 18,4 C 19,0 C 12,9 km/h (3 Bft)
28.07.2021 03:54 19,7 C 19,4 C 18,3 C 21,1 C 18,9 C 17,2 C 92 % 87 % 3 cb 10 cb 6 cb 1012,3 hPa 0,0 l/m 8,0 km/h (2 Bft) W-SW 247 0,000 mm 0,0 UV-I 0 W/m 18,4 C 19,0 C 12,9 km/h (3 Bft)
28.07.2021 03:53 19,7 C 19,4 C 18,3 C 21,1 C 18,9 C 17,2 C 92 % 87 % 3 cb 10 cb 6 cb 1012,3 hPa 0,0 l/m 8,0 km/h (2 Bft) W-SW 247 0,000 mm 0,0 UV-I 0 W/m 18,4 C 19,0 C 9,7 km/h (2 Bft)
28.07.2021 03:52 19,7 C 19,4 C 18,3 C 21,1 C 18,9 C 17,2 C 92 % 87 % 3 cb 10 cb 6 cb 1012,3 hPa 0,0 l/m 8,0 km/h (2 Bft) W-SW 247 0,000 mm 0,0 UV-I 0 W/m 18,4 C 19,0 C 11,3 km/h (2 Bft)
28.07.2021 03:51 19,7 C 19,4 C 18,3 C 21,1 C 18,9 C 17,2 C 92 % 87 % 3 cb 10 cb 6 cb 1012,3 hPa 0,0 l/m 6,4 km/h (2 Bft) W-SW 247 0,000 mm 0,0 UV-I 0 W/m 18,4 C 19,7 C 9,7 km/h (2 Bft)
28.07.2021 03:50 19,7 C 19,4 C 18,3 C 21,1 C 18,9 C 17,2 C 92 % 87 % 3 cb 10 cb 6 cb 1012,2 hPa 0,0 l/m 8,0 km/h (2 Bft) W 270 0,000 mm 0,0 UV-I 0 W/m 18,4 C 19,0 C 11,3 km/h (2 Bft)
28.07.2021 03:49 19,7 C 19,4 C 18,3 C 21,1 C 18,9 C 17,2 C 92 % 87 % 3 cb 10 cb 6 cb 1012,3 hPa 0,0 l/m 8,0 km/h (2 Bft) W 270 0,000 mm 0,0 UV-I 0 W/m 18,4 C 19,0 C 9,7 km/h (2 Bft)
28.07.2021 03:48 19,7 C 19,4 C 18,3 C 21,1 C 18,9 C 17,2 C 92 % 87 % 3 cb 10 cb 6 cb 1012,3 hPa 0,0 l/m 6,4 km/h (2 Bft) W-SW 247 0,000 mm 0,0 UV-I 0 W/m 18,4 C 19,7 C 9,7 km/h (2 Bft)
28.07.2021 03:47 19,7 C 19,4 C 18,3 C 21,1 C 18,9 C 17,2 C 92 % 87 % 3 cb 10 cb 6 cb 1012,3 hPa 0,0 l/m 4,8 km/h (1 Bft) SW 225 0,000 mm 0,0 UV-I 0 W/m 18,4 C 19,7 C 9,7 km/h (2 Bft)
28.07.2021 03:46 19,7 C 19,4 C 18,3 C 21,1 C 18,9 C 17,2 C 92 % 87 % 3 cb 10 cb 6 cb 1012,3 hPa 0,0 l/m 4,8 km/h (1 Bft) W-SW 247 0,000 mm 0,0 UV-I 0 W/m 18,4 C 19,7 C 8,0 km/h (2 Bft)
28.07.2021 03:45 19,7 C 19,4 C 18,3 C 21,1 C 18,9 C 17,2 C 92 % 87 % 3 cb 10 cb 6 cb 1012,3 hPa 0,0 l/m 6,4 km/h (2 Bft) SW 225 0,000 mm 0,0 UV-I 0 W/m 18,4 C 19,7 C 8,0 km/h (2 Bft)
28.07.2021 03:44 19,7 C 19,4 C 18,3 C 21,1 C 18,9 C 17,2 C 92 % 87 % 3 cb 10 cb 6 cb 1012,3 hPa 0,0 l/m 4,8 km/h (1 Bft) SW 225 0,000 mm 0,0 UV-I 0 W/m 18,4 C 19,7 C 8,0 km/h (2 Bft)
28.07.2021 03:43 19,7 C 19,4 C 18,3 C 21,1 C 18,9 C 17,2 C 92 % 87 % 3 cb 10 cb 6 cb 1012,3 hPa 0,0 l/m 4,8 km/h (1 Bft) SW 225 0,000 mm 0,0 UV-I 0 W/m 18,4 C 19,7 C 6,4 km/h (2 Bft)
28.07.2021 03:42 19,7 C 19,4 C 18,3 C 21,1 C 18,9 C 17,2 C 92 % 87 % 3 cb 10 cb 6 cb 1012,3 hPa 0,0 l/m 8,0 km/h (2 Bft) W-SW 247 0,000 mm 0,0 UV-I 0 W/m 18,4 C 19,0 C 9,7 km/h (2 Bft)
28.07.2021 03:41 19,6 C 19,4 C 18,3 C 21,1 C 18,9 C 17,2 C 92 % 87 % 3 cb 10 cb 6 cb 1012,3 hPa 0,0 l/m 4,8 km/h (1 Bft) W-SW 247 0,000 mm 0,0 UV-I 0 W/m 18,3 C 19,6 C 8,0 km/h (2 Bft)
28.07.2021 03:40 19,6 C 19,4 C 18,3 C 21,1 C 18,9 C 17,2 C 92 % 87 % 3 cb 10 cb 6 cb 1012,3 hPa 0,0 l/m 4,8 km/h (1 Bft) W-SW 247 0,000 mm 0,0 UV-I 0 W/m 18,3 C 19,6 C 6,4 km/h (2 Bft)
28.07.2021 03:39 19,7 C 19,4 C 18,3 C 21,1 C 18,9 C 17,2 C 91 % 87 % 3 cb 10 cb 6 cb 1012,3 hPa 0,0 l/m 3,2 km/h (1 Bft) W-SW 247 0,000 mm 0,0 UV-I 0 W/m 18,2 C 19,7 C 4,8 km/h (1 Bft)
28.07.2021 03:38 19,7 C 19,4 C 18,3 C 21,1 C 18,9 C 17,2 C 91 % 87 % 3 cb 10 cb 6 cb 1012,3 hPa 0,0 l/m 4,8 km/h (1 Bft) W-SW 247 0,000 mm 0,0 UV-I 0 W/m 18,2 C 19,7 C 8,0 km/h (2 Bft)
28.07.2021 03:37 19,7 C 19,4 C 18,3 C 21,1 C 18,9 C 17,2 C 91 % 88 % 3 cb 10 cb 6 cb 1012,3 hPa 0,0 l/m 3,2 km/h (1 Bft) W-SW 247 0,000 mm 0,0 UV-I 0 W/m 18,2 C 19,7 C 6,4 km/h (2 Bft)
28.07.2021 03:36 19,8 C 18,9 C 18,3 C 21,1 C 18,9 C 17,2 C 91 % 88 % 3 cb 10 cb 6 cb 1012,3 hPa 0,0 l/m 3,2 km/h (1 Bft) W-SW 247 0,000 mm 0,0 UV-I 0 W/m 18,3 C 19,8 C 4,8 km/h (1 Bft)
28.07.2021 03:35 19,8 C 18,9 C 18,3 C 21,1 C 18,9 C 17,2 C 91 % 88 % 3 cb 10 cb 6 cb 1012,4 hPa 0,0 l/m 4,8 km/h (1 Bft) W-SW 247 0,000 mm 0,0 UV-I 0 W/m 18,3 C 19,8 C 6,4 km/h (2 Bft)
28.07.2021 03:34 19,8 C 18,9 C 18,3 C 21,1 C 18,9 C 17,2 C 91 % 87 % 3 cb 10 cb 6 cb 1012,3 hPa 0,0 l/m 4,8 km/h (1 Bft) W-SW 247 0,000 mm 0,0 UV-I 0 W/m 18,3 C 19,8 C 6,4 km/h (2 Bft)
28.07.2021 03:33 19,8 C 19,4 C 18,3 C 21,1 C 18,9 C 17,2 C 91 % 87 % 3 cb 10 cb 6 cb 1012,4 hPa 0,0 l/m 4,8 km/h (1 Bft) W-SW 247 0,000 mm 0,0 UV-I 0 W/m 18,3 C 19,8 C 6,4 km/h (2 Bft)
28.07.2021 03:32 19,9 C 18,9 C 18,3 C 21,1 C 18,9 C 17,2 C 91 % 87 % 3 cb 10 cb 6 cb 1012,3 hPa 0,0 l/m 8,0 km/h (2 Bft) W-SW 247 0,000 mm 0,0 UV-I 0 W/m 18,4 C 19,2 C 9,7 km/h (2 Bft)
28.07.2021 03:31 19,9 C 18,9 C 18,3 C 21,1 C 18,9 C 17,2 C 91 % 87 % 3 cb 10 cb 6 cb 1012,3 hPa 0,0 l/m 6,4 km/h (2 Bft) W 270 0,000 mm 0,0 UV-I 0 W/m 18,4 C 19,9 C 9,7 km/h (2 Bft)
28.07.2021 03:30 19,9 C 18,9 C 18,3 C 21,1 C 18,9 C 17,2 C 91 % 87 % 3 cb 10 cb 6 cb 1012,3 hPa 0,0 l/m 6,4 km/h (2 Bft) W-SW 247 0,000 mm 0,0 UV-I 0 W/m 18,4 C 19,9 C 8,0 km/h (2 Bft)
28.07.2021 03:29 20,0 C 18,9 C 18,3 C 21,1 C 18,9 C 17,2 C 91 % 87 % 3 cb 10 cb 6 cb 1012,3 hPa 0,0 l/m 4,8 km/h (1 Bft) W-SW 247 0,000 mm 0,0 UV-I 0 W/m 18,5 C 20,0 C 6,4 km/h (2 Bft)
28.07.2021 03:28 20,1 C 18,9 C 18,3 C 21,1 C 18,9 C 17,2 C 91 % 87 % 3 cb 10 cb 6 cb 1012,3 hPa 0,0 l/m 6,4 km/h (2 Bft) W-SW 247 0,000 mm 0,0 UV-I 0 W/m 18,6 C 20,1 C 8,0 km/h (2 Bft)
28.07.2021 03:27 20,1 C 18,9 C 18,3 C 21,1 C 18,9 C 17,2 C 91 % 87 % 3 cb 10 cb 6 cb 1012,3 hPa 0,0 l/m 6,4 km/h (2 Bft) S-SW 202 0,000 mm 0,0 UV-I 0 W/m 18,6 C 20,1 C 8,0 km/h (2 Bft)
28.07.2021 03:26 20,1 C 18,9 C 18,3 C 21,1 C 18,9 C 17,2 C 91 % 87 % 3 cb 10 cb 6 cb 1012,4 hPa 0,0 l/m 4,8 km/h (1 Bft) S-SW 202 0,000 mm 0,0 UV-I 0 W/m 18,6 C 20,1 C 11,3 km/h (2 Bft)
28.07.2021 03:25 20,0 C 18,9 C 18,9 C 21,1 C 18,9 C 17,2 C 91 % 87 % 3 cb 10 cb 6 cb 1012,5 hPa 0,0 l/m 4,8 km/h (1 Bft) S-SW 202 0,000 mm 0,0 UV-I 0 W/m 18,5 C 20,0 C 8,0 km/h (2 Bft)
28.07.2021 03:24 20,0 C 18,9 C 18,9 C 21,1 C 18,9 C 17,2 C 91 % 87 % 3 cb 10 cb 6 cb 1012,4 hPa 0,0 l/m 4,8 km/h (1 Bft) S-SW 202 0,000 mm 0,0 UV-I 0 W/m 18,5 C 20,0 C 8,0 km/h (2 Bft)
28.07.2021 03:23 19,9 C 18,9 C 18,9 C 21,1 C 18,9 C 17,2 C 92 % 87 % 3 cb 10 cb 6 cb 1012,4 hPa 0,0 l/m 6,4 km/h (2 Bft) S-SW 202 0,000 mm 0,0 UV-I 0 W/m 18,6 C 19,9 C 8,0 km/h (2 Bft)
28.07.2021 03:22 19,9 C 18,9 C 18,9 C 21,1 C 18,9 C 17,2 C 92 % 87 % 3 cb 10 cb 6 cb 1012,4 hPa 0,0 l/m 4,8 km/h (1 Bft) S-SW 202 0,000 mm 0,0 UV-I 0 W/m 18,6 C 19,9 C 8,0 km/h (2 Bft)
28.07.2021 03:21 19,9 C 18,9 C 18,9 C 21,1 C 18,9 C 17,2 C 92 % 87 % 3 cb 10 cb 6 cb 1012,3 hPa 0,0 l/m 8,0 km/h (2 Bft) S-SW 202 0,000 mm 0,0 UV-I 0 W/m 18,6 C 19,2 C 11,3 km/h (2 Bft)
28.07.2021 03:20 19,9 C 18,9 C 18,9 C 21,1 C 18,9 C 17,2 C 92 % 87 % 3 cb 10 cb 6 cb 1012,3 hPa 0,0 l/m 6,4 km/h (2 Bft) SW 225 0,000 mm 0,0 UV-I 0 W/m 18,6 C 19,9 C 9,7 km/h (2 Bft)
28.07.2021 03:19 19,8 C 18,9 C 18,9 C 21,1 C 18,9 C 17,2 C 92 % 87 % 3 cb 10 cb 6 cb 1012,3 hPa 0,0 l/m 6,4 km/h (2 Bft) S-SW 202 0,000 mm 0,0 UV-I 0 W/m 18,5 C 19,8 C 8,0 km/h (2 Bft)
28.07.2021 03:18 19,8 C 18,9 C 18,9 C 21,1 C 18,9 C 17,2 C 93 % 87 % 3 cb 10 cb 6 cb 1012,3 hPa 0,0 l/m 3,2 km/h (1 Bft) S 180 0,000 mm 0,0 UV-I 0 W/m 18,6 C 19,8 C 6,4 km/h (2 Bft)
28.07.2021 03:17 19,7 C 18,9 C 18,9 C 21,1 C 18,9 C 17,2 C 93 % 87 % 3 cb 10 cb 6 cb 1012,3 hPa 0,0 l/m 4,8 km/h (1 Bft) S 180 0,000 mm 0,0 UV-I 0 W/m 18,5 C 19,7 C 6,4 km/h (2 Bft)
28.07.2021 03:16 19,7 C 18,9 C 18,9 C 21,1 C 18,9 C 17,2 C 93 % 87 % 3 cb 10 cb 6 cb 1012,3 hPa 0,0 l/m 6,4 km/h (2 Bft) S 180 0,000 mm 0,0 UV-I 0 W/m 18,5 C 19,7 C 8,0 km/h (2 Bft)
28.07.2021 03:15 19,6 C 18,9 C 18,3 C 21,1 C 18,9 C 17,2 C 93 % 87 % 3 cb 10 cb 6 cb 1012,3 hPa 0,0 l/m 8,0 km/h (2 Bft) S 180 0,000 mm 0,0 UV-I 0 W/m 18,4 C 18,9 C 11,3 km/h (2 Bft)
28.07.2021 03:14 19,6 C 18,9 C 18,3 C 21,1 C 18,9 C 17,2 C 93 % 87 % 3 cb 10 cb 6 cb 1012,4 hPa 0,0 l/m 6,4 km/h (2 Bft) S 180 0,000 mm 0,0 UV-I 0 W/m 18,4 C 19,6 C 9,7 km/h (2 Bft)
28.07.2021 03:13 19,5 C 18,9 C 18,3 C 21,1 C 18,9 C 17,2 C 93 % 87 % 3 cb 10 cb 6 cb 1012,4 hPa 0,0 l/m 3,2 km/h (1 Bft) S 180 0,000 mm 0,0 UV-I 0 W/m 18,3 C 19,5 C 9,7 km/h (2 Bft)
28.07.2021 03:12 19,4 C 18,9 C 18,3 C 21,1 C 18,9 C 17,2 C 93 % 87 % 3 cb 10 cb 6 cb 1012,3 hPa 0,0 l/m 1,6 km/h (1 Bft) S 180 0,000 mm 0,0 UV-I 0 W/m 18,2 C 19,4 C 6,4 km/h (2 Bft)
28.07.2021 03:11 19,4 C 18,9 C 18,3 C 21,1 C 18,9 C 17,2 C 93 % 87 % 3 cb 10 cb 6 cb 1012,3 hPa 0,0 l/m 0,0 km/h (0 Bft) N 0 0,000 mm 0,0 UV-I 0 W/m 18,2 C 19,4 C 0,0 km/h (0 Bft)
28.07.2021 03:10 19,4 C 18,9 C 18,3 C 21,1 C 18,9 C 17,2 C 93 % 87 % 3 cb 10 cb 6 cb 1012,4 hPa 0,0 l/m 0,0 km/h (0 Bft) N 0 0,000 mm 0,0 UV-I 0 W/m 18,2 C 19,4 C 0,0 km/h (0 Bft)
28.07.2021 03:09 19,4 C 18,9 C 18,3 C 21,1 C 18,9 C 17,2 C 94 % 87 % 3 cb 10 cb 6 cb 1012,3 hPa 0,0 l/m 0,0 km/h (0 Bft) N 0 0,000 mm 0,0 UV-I 0 W/m 18,4 C 19,4 C 0,0 km/h (0 Bft)
28.07.2021 03:08 19,4 C 18,9 C 18,3 C 21,1 C 18,9 C 17,2 C 94 % 87 % 3 cb 10 cb 6 cb 1012,3 hPa 0,0 l/m 0,0 km/h (0 Bft) N 0 0,000 mm 0,0 UV-I 0 W/m 18,4 C 19,4 C 0,0 km/h (0 Bft)
28.07.2021 03:07 19,4 C 18,9 C 18,3 C 21,1 C 18,9 C 17,2 C 94 % 87 % 3 cb 10 cb 6 cb 1012,3 hPa 0,0 l/m 0,0 km/h (0 Bft) N 0 0,000 mm 0,0 UV-I 0 W/m 18,4 C 19,4 C 0,0 km/h (0 Bft)
28.07.2021 03:06 19,3 C 18,9 C 18,3 C 21,1 C 18,9 C 17,2 C 94 % 87 % 3 cb 10 cb 6 cb 1012,3 hPa 0,0 l/m 0,0 km/h (0 Bft) N 0 0,000 mm 0,0 UV-I 0 W/m 18,3 C 19,3 C 0,0 km/h (0 Bft)
28.07.2021 03:05 19,3 C 18,9 C 18,3 C 21,1 C 18,9 C 17,2 C 94 % 87 % 3 cb 10 cb 6 cb 1012,3 hPa 0,0 l/m 0,0 km/h (0 Bft) N 0 0,000 mm 0,0 UV-I 0 W/m 18,3 C 19,3 C 0,0 km/h (0 Bft)
28.07.2021 03:04 19,3 C 18,9 C 18,3 C 21,1 C 18,9 C 17,2 C 94 % 87 % 3 cb 10 cb 6 cb 1012,3 hPa 0,0 l/m 0,0 km/h (0 Bft) N 0 0,000 mm 0,0 UV-I 0 W/m 18,3 C 19,3 C 0,0 km/h (0 Bft)
28.07.2021 03:03 19,3 C 18,9 C 18,3 C 21,1 C 18,9 C 17,2 C 94 % 87 % 3 cb 10 cb 6 cb 1012,3 hPa 0,0 l/m 0,0 km/h (0 Bft) N 0 0,000 mm 0,0 UV-I 0 W/m 18,3 C 19,3 C 0,0 km/h (0 Bft)
28.07.2021 03:02 19,2 C 18,9 C 18,3 C 21,1 C 18,9 C 17,2 C 94 % 87 % 3 cb 10 cb 6 cb 1012,3 hPa 0,0 l/m 0,0 km/h (0 Bft) N 0 0,000 mm 0,0 UV-I 0 W/m 18,2 C 19,2 C 0,0 km/h (0 Bft)
28.07.2021 03:01 19,2 C 18,9 C 18,3 C 21,1 C 18,9 C 17,2 C 94 % 87 % 3 cb 10 cb 6 cb 1012,3 hPa 0,0 l/m 0,0 km/h (0 Bft) N 0 0,000 mm 0,0 UV-I 0 W/m 18,2 C 19,2 C 0,0 km/h (0 Bft)
28.07.2021 03:00 19,2 C 18,9 C 18,3 C 21,1 C 18,9 C 17,2 C 94 % 87 % 3 cb 10 cb 6 cb 1012,3 hPa 0,0 l/m 0,0 km/h (0 Bft) N 0 0,000 mm 0,0 UV-I 0 W/m 18,2 C 19,2 C 0,0 km/h (0 Bft)
28.07.2021 02:59 19,2 C 18,9 C 18,3 C 21,1 C 18,9 C 17,2 C 94 % 87 % 3 cb 10 cb 6 cb 1012,4 hPa 0,0 l/m 0,0 km/h (0 Bft) SW 225 0,000 mm 0,0 UV-I 0 W/m 18,2 C 19,2 C 1,6 km/h (1 Bft)
28.07.2021 02:58 19,2 C 18,9 C 18,3 C 21,1 C 18,9 C 17,2 C 94 % 87 % 3 cb 10 cb 6 cb 1012,3 hPa 0,0 l/m 0,0 km/h (0 Bft) N 0 0,000 mm 0,0 UV-I 0 W/m 18,2 C 19,2 C 0,0 km/h (0 Bft)
28.07.2021 02:57 19,2 C 18,9 C 18,3 C 21,1 C 18,9 C 17,2 C 95 % 87 % 3 cb 10 cb 6 cb 1012,3 hPa 0,0 l/m 0,0 km/h (0 Bft) N 0 0,000 mm 0,0 UV-I 0 W/m 18,4 C 19,2 C 0,0 km/h (0 Bft)
28.07.2021 02:56 19,2 C 18,9 C 18,3 C 21,1 C 18,9 C 17,2 C 95 % 87 % 3 cb 10 cb 6 cb 1012,3 hPa 0,0 l/m 0,0 km/h (0 Bft) N 0 0,000 mm 0,0 UV-I 0 W/m 18,4 C 19,2 C 0,0 km/h (0 Bft)
28.07.2021 02:55 19,1 C 18,9 C 18,3 C 21,1 C 18,9 C 17,2 C 95 % 87 % 3 cb 10 cb 6 cb 1012,3 hPa 0,0 l/m 0,0 km/h (0 Bft) N 0 0,000 mm 0,0 UV-I 0 W/m 18,3 C 19,1 C 0,0 km/h (0 Bft)
28.07.2021 02:54 19,1 C 18,9 C 18,3 C 21,1 C 18,9 C 17,2 C 95 % 87 % 3 cb 10 cb 6 cb 1012,2 hPa 0,0 l/m 1,6 km/h (1 Bft) W-SW 247 0,000 mm 0,0 UV-I 0 W/m 18,3 C 19,1 C 4,8 km/h (1 Bft)
28.07.2021 02:53 19,2 C 18,9 C 18,3 C 21,1 C 18,9 C 17,2 C 95 % 87 % 3 cb 10 cb 6 cb 1012,3 hPa 0,0 l/m 6,4 km/h (2 Bft) SW 225 0,000 mm 0,0 UV-I 0 W/m 18,4 C 19,2 C 11,3 km/h (2 Bft)
28.07.2021 02:52 19,2 C 18,9 C 18,3 C 21,1 C 18,9 C 17,2 C 95 % 87 % 3 cb 10 cb 6 cb 1012,2 hPa 0,0 l/m 4,8 km/h (1 Bft) SW 225 0,000 mm 0,0 UV-I 0 W/m 18,4 C 19,2 C 11,3 km/h (2 Bft)
28.07.2021 02:51 19,2 C 18,9 C 18,3 C 21,1 C 18,9 C 17,2 C 95 % 87 % 3 cb 10 cb 6 cb 1012,2 hPa 0,0 l/m 0,0 km/h (0 Bft) N 0 0,000 mm 0,0 UV-I 0 W/m 18,4 C 19,2 C 0,0 km/h (0 Bft)
28.07.2021 02:50 19,2 C 18,9 C 18,3 C 21,1 C 18,9 C 17,2 C 95 % 87 % 3 cb 10 cb 6 cb 1012,2 hPa 0,0 l/m 0,0 km/h (0 Bft) N 0 0,000 mm 0,0 UV-I 0 W/m 18,4 C 19,2 C 0,0 km/h (0 Bft)
28.07.2021 02:49 19,1 C 18,9 C 18,3 C 21,1 C 18,9 C 17,2 C 95 % 87 % 3 cb 10 cb 6 cb 1012,2 hPa 0,0 l/m 0,0 km/h (0 Bft) S-SW 202 0,000 mm 0,0 UV-I 0 W/m 18,3 C 19,1 C 1,6 km/h (1 Bft)
28.07.2021 02:48 19,1 C 18,9 C 18,3 C 21,1 C 18,9 C 17,2 C 95 % 87 % 3 cb 10 cb 6 cb 1012,1 hPa 0,0 l/m 0,0 km/h (0 Bft) N 0 0,000 mm 0,0 UV-I 0 W/m 18,3 C 19,1 C 0,0 km/h (0 Bft)
28.07.2021 02:47 19,1 C 18,9 C 18,3 C 21,1 C 18,9 C 17,2 C 95 % 87 % 3 cb 10 cb 6 cb 1012,2 hPa 0,0 l/m 0,0 km/h (0 Bft) N 0 0,000 mm 0,0 UV-I 0 W/m 18,3 C 19,1 C 0,0 km/h (0 Bft)
28.07.2021 02:46 19,1 C 18,9 C 18,3 C 21,1 C 18,9 C 17,2 C 95 % 87 % 3 cb 10 cb 6 cb 1012,1 hPa 0,0 l/m 0,0 km/h (0 Bft) N 0 0,000 mm 0,0 UV-I 0 W/m 18,3 C 19,1 C 0,0 km/h (0 Bft)
28.07.2021 02:45 19,1 C 18,9 C 18,3 C 21,1 C 18,9 C 17,2 C 95 % 87 % 3 cb 10 cb 6 cb 1012,1 hPa 0,0 l/m 0,0 km/h (0 Bft) N 0 0,000 mm 0,0 UV-I 0 W/m 18,3 C 19,1 C 0,0 km/h (0 Bft)
28.07.2021 02:44 19,0 C 18,9 C 18,3 C 21,1 C 18,9 C 17,2 C 95 % 88 % 3 cb 10 cb 6 cb 1012,1 hPa 0,0 l/m 0,0 km/h (0 Bft) N 0 0,000 mm 0,0 UV-I 0 W/m 18,2 C 19,0 C 0,0 km/h (0 Bft)
28.07.2021 02:43 18,9 C 18,9 C 18,3 C 21,1 C 18,9 C 17,2 C 96 % 88 % 3 cb 10 cb 6 cb 1012,1 hPa 0,0 l/m 0,0 km/h (0 Bft) N 0 0,000 mm 0,0 UV-I 0 W/m 18,2 C 18,9 C 0,0 km/h (0 Bft)
28.07.2021 02:42 18,9 C 18,9 C 18,3 C 21,1 C 18,9 C 17,2 C 96 % 88 % 3 cb 10 cb 6 cb 1012,1 hPa 0,0 l/m 0,0 km/h (0 Bft) SW 225 0,000 mm 0,0 UV-I 0 W/m 18,2 C 18,9 C 4,8 km/h (1 Bft)
28.07.2021 02:41 18,9 C 18,9 C 18,3 C 21,1 C 18,9 C 17,2 C 96 % 88 % 3 cb 9 cb 6 cb 1012,1 hPa 0,0 l/m 0,0 km/h (0 Bft) N 0 0,000 mm 0,0 UV-I 0 W/m 18,2 C 18,9 C 0,0 km/h (0 Bft)
28.07.2021 02:40 18,9 C 18,9 C 18,3 C 21,1 C 18,9 C 17,2 C 96 % 88 % 3 cb 10 cb 6 cb 1012,1 hPa 0,0 l/m 0,0 km/h (0 Bft) N 0 0,000 mm 0,0 UV-I 0 W/m 18,2 C 18,9 C 0,0 km/h (0 Bft)
28.07.2021 02:39 18,9 C 18,9 C 18,3 C 21,1 C 18,9 C 17,2 C 96 % 88 % 3 cb 9 cb 6 cb 1012,1 hPa 0,0 l/m 0,0 km/h (0 Bft) N 0 0,000 mm 0,0 UV-I 0 W/m 18,2 C 18,9 C 0,0 km/h (0 Bft)
28.07.2021 02:38 18,9 C 18,9 C 18,3 C 21,1 C 18,9 C 17,2 C 96 % 88 % 3 cb 9 cb 6 cb 1012,1 hPa 0,0 l/m 0,0 km/h (0 Bft) N 0 0,000 mm 0,0 UV-I 0 W/m 18,2 C 18,9 C 0,0 km/h (0 Bft)
28.07.2021 02:37 18,9 C 18,9 C 18,3 C 21,1 C 18,9 C 17,2 C 96 % 88 % 3 cb 9 cb 6 cb 1012,1 hPa 0,0 l/m 0,0 km/h (0 Bft) N 0 0,000 mm 0,0 UV-I 0 W/m 18,2 C 18,9 C 0,0 km/h (0 Bft)
28.07.2021 02:36 18,9 C 18,9 C 18,3 C 21,1 C 18,9 C 17,2 C 96 % 88 % 3 cb 9 cb 6 cb 1012,1 hPa 0,0 l/m 0,0 km/h (0 Bft) SW 225 0,000 mm 0,0 UV-I 0 W/m 18,2 C 18,9 C 4,8 km/h (1 Bft)
28.07.2021 02:35 18,9 C 18,9 C 18,3 C 21,1 C 18,9 C 17,2 C 96 % 88 % 3 cb 9 cb 6 cb 1012,1 hPa 0,0 l/m 0,0 km/h (0 Bft) N 0 0,000 mm 0,0 UV-I 0 W/m 18,2 C 18,9 C 0,0 km/h (0 Bft)
28.07.2021 02:34 18,9 C 18,9 C 18,3 C 21,1 C 18,9 C 17,2 C 96 % 88 % 3 cb 9 cb 6 cb 1012,1 hPa 0,0 l/m 0,0 km/h (0 Bft) N 0 0,000 mm 0,0 UV-I 0 W/m 18,2 C 18,9 C 0,0 km/h (0 Bft)
28.07.2021 02:33 18,9 C 18,9 C 18,3 C 21,1 C 18,9 C 17,2 C 96 % 88 % 3 cb 9 cb 6 cb 1012,1 hPa 0,0 l/m 0,0 km/h (0 Bft) N 0 0,000 mm 0,0 UV-I 0 W/m 18,2 C 18,9 C 0,0 km/h (0 Bft)
28.07.2021 02:32 18,9 C 18,9 C 18,3 C 21,1 C 18,9 C 17,2 C 96 % 88 % 3 cb 9 cb 6 cb 1012,0 hPa 0,0 l/m 0,0 km/h (0 Bft) N 0 0,000 mm 0,0 UV-I 0 W/m 18,2 C 18,9 C 0,0 km/h (0 Bft)
28.07.2021 02:31 18,8 C 18,9 C 18,3 C 21,1 C 18,9 C 17,2 C 96 % 88 % 3 cb 9 cb 6 cb 1012,0 hPa 0,0 l/m 0,0 km/h (0 Bft) N 0 0,000 mm 0,0 UV-I 0 W/m 18,1 C 18,8 C 0,0 km/h (0 Bft)
28.07.2021 02:30 18,8 C 18,9 C 18,3 C 21,1 C 18,9 C 17,2 C 96 % 88 % 3 cb 9 cb 6 cb 1012,0 hPa 0,0 l/m 0,0 km/h (0 Bft) N 0 0,000 mm 0,0 UV-I 0 W/m 18,1 C 18,8 C 0,0 km/h (0 Bft)
28.07.2021 02:29 18,8 C 18,9 C 18,3 C 21,1 C 18,9 C 17,2 C 96 % 88 % 3 cb 9 cb 6 cb 1012,0 hPa 0,0 l/m 0,0 km/h (0 Bft) N 0 0,000 mm 0,0 UV-I 0 W/m 18,1 C 18,8 C 0,0 km/h (0 Bft)
28.07.2021 02:28 18,8 C 18,9 C 18,3 C 21,1 C 18,9 C 17,2 C 96 % 88 % 3 cb 9 cb 6 cb 1012,0 hPa 0,0 l/m 0,0 km/h (0 Bft) N 0 0,000 mm 0,0 UV-I 0 W/m 18,1 C 18,8 C 0,0 km/h (0 Bft)
28.07.2021 02:27 18,8 C 18,9 C 18,3 C 21,1 C 18,9 C 17,2 C 96 % 88 % 3 cb 9 cb 6 cb 1012,0 hPa 0,0 l/m 0,0 km/h (0 Bft) N 0 0,000 mm 0,0 UV-I 0 W/m 18,1 C 18,8 C 0,0 km/h (0 Bft)
28.07.2021 02:26 18,8 C 18,9 C 18,3 C 21,1 C 18,9 C 17,2 C 96 % 88 % 3 cb 9 cb 6 cb 1011,9 hPa 0,0 l/m 1,6 km/h (1 Bft) W-NW 292 0,000 mm 0,0 UV-I 0 W/m 18,1 C 18,8 C 8,0 km/h (2 Bft)
28.07.2021 02:25 18,9 C 18,9 C 18,3 C 21,1 C 18,9 C 17,2 C 96 % 88 % 3 cb 9 cb 6 cb 1012,0 hPa 0,0 l/m 1,6 km/h (1 Bft) W-SW 247 0,000 mm 0,0 UV-I 0 W/m 18,2 C 18,9 C 6,4 km/h (2 Bft)
28.07.2021 02:24 18,9 C 18,9 C 18,3 C 21,1 C 18,9 C 17,2 C 96 % 88 % 3 cb 9 cb 6 cb 1012,0 hPa 0,0 l/m 1,6 km/h (1 Bft) W 270 0,000 mm 0,0 UV-I 0 W/m 18,2 C 18,9 C 8,0 km/h (2 Bft)
28.07.2021 02:23 18,9 C 18,9 C 18,3 C 21,1 C 18,9 C 17,2 C 96 % 88 % 3 cb 9 cb 6 cb 1012,0 hPa 0,0 l/m 0,0 km/h (0 Bft) N 0 0,000 mm 0,0 UV-I 0 W/m 18,2 C 18,9 C 0,0 km/h (0 Bft)
28.07.2021 02:22 18,9 C 18,9 C 18,3 C 21,1 C 18,9 C 17,2 C 96 % 87 % 3 cb 9 cb 6 cb 1011,9 hPa 0,0 l/m 0,0 km/h (0 Bft) N 0 0,000 mm 0,0 UV-I 0 W/m 18,2 C 18,9 C 0,0 km/h (0 Bft)
28.07.2021 02:21 18,9 C 18,9 C 18,3 C 21,1 C 18,9 C 17,2 C 96 % 87 % 3 cb 9 cb 6 cb 1011,8 hPa 0,0 l/m 0,0 km/h (0 Bft) N 0 0,000 mm 0,0 UV-I 0 W/m 18,2 C 18,9 C 0,0 km/h (0 Bft)
28.07.2021 02:20 18,9 C 18,9 C 18,3 C 21,1 C 18,9 C 17,2 C 96 % 87 % 3 cb 9 cb 6 cb 1011,8 hPa 0,0 l/m 0,0 km/h (0 Bft) N 0 0,000 mm 0,0 UV-I 0 W/m 18,2 C 18,9 C 0,0 km/h (0 Bft)
28.07.2021 02:19 18,9 C 18,9 C 18,3 C 21,1 C 18,9 C 17,2 C 96 % 87 % 3 cb 9 cb 6 cb 1011,7 hPa 0,0 l/m 0,0 km/h (0 Bft) N 0 0,000 mm 0,0 UV-I 0 W/m 18,2 C 18,9 C 0,0 km/h (0 Bft)
28.07.2021 02:18 18,9 C 18,9 C 18,3 C 21,1 C 18,9 C 17,2 C 96 % 87 % 3 cb 9 cb 6 cb 1011,7 hPa 0,0 l/m 0,0 km/h (0 Bft) N 0 0,000 mm 0,0 UV-I 0 W/m 18,2 C 18,9 C 0,0 km/h (0 Bft)
28.07.2021 02:17 18,9 C 18,9 C 18,3 C 21,1 C 18,9 C 17,2 C 96 % 87 % 3 cb 9 cb 6 cb 1011,6 hPa 0,0 l/m 0,0 km/h (0 Bft) N 0 0,000 mm 0,0 UV-I 0 W/m 18,2 C 18,9 C 0,0 km/h (0 Bft)
28.07.2021 02:16 18,9 C 18,9 C 18,3 C 21,1 C 18,9 C 17,2 C 96 % 87 % 3 cb 9 cb 6 cb 1011,6 hPa 0,0 l/m 0,0 km/h (0 Bft) N 0 0,000 mm 0,0 UV-I 0 W/m 18,2 C 18,9 C 0,0 km/h (0 Bft)
28.07.2021 02:15 18,9 C 18,9 C 18,3 C 21,1 C 18,9 C 17,2 C 96 % 87 % 3 cb 9 cb 6 cb 1011,6 hPa 0,0 l/m 0,0 km/h (0 Bft) N 0 0,000 mm 0,0 UV-I 0 W/m 18,2 C 18,9 C 0,0 km/h (0 Bft)
28.07.2021 02:14 18,9 C 18,9 C 18,3 C 21,1 C 18,9 C 17,2 C 96 % 87 % 3 cb 9 cb 6 cb 1011,6 hPa 0,0 l/m 0,0 km/h (0 Bft) N 0 0,000 mm 0,0 UV-I 0 W/m 18,2 C 18,9 C 0,0 km/h (0 Bft)
28.07.2021 02:13 18,8 C 18,9 C 18,3 C 21,1 C 18,9 C 17,2 C 96 % 87 % 3 cb 9 cb 6 cb 1011,6 hPa 0,0 l/m 0,0 km/h (0 Bft) N 0 0,000 mm 0,0 UV-I 0 W/m 18,1 C 18,8 C 0,0 km/h (0 Bft)
28.07.2021 02:12 18,8 C 18,9 C 18,3 C 21,1 C 18,9 C 17,2 C 96 % 87 % 3 cb 9 cb 6 cb 1011,6 hPa 0,0 l/m 0,0 km/h (0 Bft) N 0 0,000 mm 0,0 UV-I 0 W/m 18,1 C 18,8 C 0,0 km/h (0 Bft)
28.07.2021 02:11 18,8 C 18,9 C 18,3 C 21,1 C 18,9 C 17,2 C 96 % 87 % 3 cb 9 cb 6 cb 1011,6 hPa 0,0 l/m 0,0 km/h (0 Bft) N 0 0,000 mm 0,0 UV-I 0 W/m 18,1 C 18,8 C 0,0 km/h (0 Bft)
28.07.2021 02:10 18,8 C 18,9 C 18,3 C 21,1 C 18,9 C 17,2 C 96 % 87 % 3 cb 9 cb 6 cb 1011,6 hPa 0,0 l/m 0,0 km/h (0 Bft) N 0 0,000 mm 0,0 UV-I 0 W/m 18,1 C 18,8 C 0,0 km/h (0 Bft)
28.07.2021 02:09 18,8 C 18,9 C 18,3 C 21,1 C 18,9 C 17,2 C 96 % 87 % 3 cb 9 cb 6 cb 1011,5 hPa 0,0 l/m 0,0 km/h (0 Bft) N 0 0,000 mm 0,0 UV-I 0 W/m 18,1 C 18,8 C 0,0 km/h (0 Bft)
28.07.2021 02:08 18,8 C 18,9 C 18,3 C 21,1 C 18,9 C 17,2 C 96 % 87 % 3 cb 9 cb 6 cb 1011,5 hPa 0,0 l/m 0,0 km/h (0 Bft) N 0 0,000 mm 0,0 UV-I 0 W/m 18,1 C 18,8 C 0,0 km/h (0 Bft)
28.07.2021 02:07 18,8 C 18,9 C 18,3 C 21,1 C 18,9 C 17,2 C 96 % 87 % 3 cb 9 cb 6 cb 1011,5 hPa 0,0 l/m 0,0 km/h (0 Bft) N 0 0,000 mm 0,0 UV-I 0 W/m 18,1 C 18,8 C 0,0 km/h (0 Bft)
28.07.2021 02:06 18,8 C 18,9 C 18,3 C 21,1 C 18,9 C 17,2 C 96 % 87 % 3 cb 9 cb 6 cb 1011,5 hPa 0,0 l/m 0,0 km/h (0 Bft) N 0 0,000 mm 0,0 UV-I 0 W/m 18,1 C 18,8 C 0,0 km/h (0 Bft)
28.07.2021 02:05 18,8 C 18,9 C 18,3 C 21,1 C 18,9 C 17,2 C 96 % 87 % 3 cb 9 cb 6 cb 1011,5 hPa 0,0 l/m 0,0 km/h (0 Bft) N 0 0,000 mm 0,0 UV-I 0 W/m 18,1 C 18,8 C 0,0 km/h (0 Bft)
28.07.2021 02:04 18,8 C 18,9 C 18,3 C 21,1 C 18,9 C 17,2 C 96 % 87 % 3 cb 9 cb 6 cb 1011,5 hPa 0,0 l/m 0,0 km/h (0 Bft) N 0 0,000 mm 0,0 UV-I 0 W/m 18,1 C 18,8 C 0,0 km/h (0 Bft)
28.07.2021 02:03 18,8 C 18,9 C 18,3 C 21,1 C 18,9 C 17,2 C 96 % 87 % 3 cb 9 cb 6 cb 1011,5 hPa 0,0 l/m 0,0 km/h (0 Bft) N 0 0,000 mm 0,0 UV-I 0 W/m 18,1 C 18,8 C 0,0 km/h (0 Bft)
28.07.2021 02:02 18,8 C 18,9 C 18,3 C 21,1 C 18,9 C 17,2 C 96 % 87 % 3 cb 9 cb 6 cb 1011,5 hPa 0,0 l/m 0,0 km/h (0 Bft) N 0 0,000 mm 0,0 UV-I 0 W/m 18,1 C 18,8 C 0,0 km/h (0 Bft)
28.07.2021 02:01 18,8 C 18,9 C 18,3 C 21,1 C 18,9 C 17,2 C 96 % 87 % 3 cb 9 cb 6 cb 1011,5 hPa 0,0 l/m 0,0 km/h (0 Bft) N 0 0,000 mm 0,0 UV-I 0 W/m 18,1 C 18,8 C 0,0 km/h (0 Bft)
28.07.2021 02:00 18,8 C 18,9 C 18,3 C 21,1 C 18,9 C 17,2 C 96 % 87 % 3 cb 9 cb 6 cb 1011,5 hPa 0,0 l/m 0,0 km/h (0 Bft) N 0 0,000 mm 0,0 UV-I 0 W/m 18,1 C 18,8 C 0,0 km/h (0 Bft)
28.07.2021 01:59 18,8 C 18,9 C 18,3 C 21,1 C 18,9 C 17,2 C 96 % 87 % 3 cb 9 cb 6 cb 1011,5 hPa 0,0 l/m 0,0 km/h (0 Bft) N 0 0,000 mm 0,0 UV-I 0 W/m 18,1 C 18,8 C 0,0 km/h (0 Bft)
28.07.2021 01:58 18,8 C 18,9 C 18,3 C 21,1 C 18,9 C 17,2 C 96 % 87 % 3 cb 9 cb 6 cb 1011,5 hPa 0,0 l/m 0,0 km/h (0 Bft) N 0 0,000 mm 0,0 UV-I 0 W/m 18,1 C 18,8 C 0,0 km/h (0 Bft)
28.07.2021 01:57 18,8 C 18,9 C 18,3 C 21,1 C 18,9 C 17,2 C 96 % 87 % 3 cb 9 cb 6 cb 1011,4 hPa 0,0 l/m 0,0 km/h (0 Bft) N 0 0,000 mm 0,0 UV-I 0 W/m 18,1 C 18,8 C 0,0 km/h (0 Bft)
28.07.2021 01:56 18,8 C 18,9 C 18,3 C 21,1 C 18,9 C 17,2 C 96 % 87 % 3 cb 9 cb 6 cb 1011,5 hPa 0,0 l/m 0,0 km/h (0 Bft) N 0 0,000 mm 0,0 UV-I 0 W/m 18,1 C 18,8 C 0,0 km/h (0 Bft)
28.07.2021 01:55 18,8 C 18,9 C 18,3 C 21,1 C 18,9 C 17,2 C 96 % 87 % 3 cb 9 cb 6 cb 1011,5 hPa 0,0 l/m 0,0 km/h (0 Bft) N 0 0,000 mm 0,0 UV-I 0 W/m 18,1 C 18,8 C 0,0 km/h (0 Bft)
28.07.2021 01:54 18,8 C 18,9 C 18,3 C 21,1 C 18,9 C 17,2 C 96 % 87 % 3 cb 9 cb 6 cb 1011,5 hPa 0,0 l/m 0,0 km/h (0 Bft) N 0 0,000 mm 0,0 UV-I 0 W/m 18,1 C 18,8 C 0,0 km/h (0 Bft)
28.07.2021 01:53 18,8 C 18,9 C 18,3 C 21,1 C 18,9 C 17,2 C 96 % 87 % 3 cb 9 cb 6 cb 1011,5 hPa 0,0 l/m 0,0 km/h (0 Bft) N 0 0,000 mm 0,0 UV-I 0 W/m 18,1 C 18,8 C 0,0 km/h (0 Bft)
28.07.2021 01:52 18,8 C 18,9 C 18,3 C 21,1 C 18,9 C 17,2 C 96 % 87 % 3 cb 9 cb 6 cb 1011,6 hPa 0,0 l/m 0,0 km/h (0 Bft) N 0 0,000 mm 0,0 UV-I 0 W/m 18,1 C 18,8 C 0,0 km/h (0 Bft)
28.07.2021 01:51 18,8 C 18,9 C 18,3 C 21,1 C 18,9 C 17,2 C 96 % 87 % 3 cb 9 cb 6 cb 1011,6 hPa 0,0 l/m 0,0 km/h (0 Bft) N 0 0,000 mm 0,0 UV-I 0 W/m 18,1 C 18,8 C 0,0 km/h (0 Bft)
28.07.2021 01:50 18,8 C 18,9 C 18,3 C 21,1 C 18,9 C 17,2 C 96 % 87 % 3 cb 9 cb 6 cb 1011,6 hPa 0,0 l/m 0,0 km/h (0 Bft) N 0 0,000 mm 0,0 UV-I 0 W/m 18,1 C 18,8 C 0,0 km/h (0 Bft)
28.07.2021 01:49 18,8 C 18,9 C 18,3 C 21,1 C 18,9 C 17,2 C 96 % 87 % 3 cb 9 cb 6 cb 1011,6 hPa 0,0 l/m 0,0 km/h (0 Bft) N 0 0,000 mm 0,0 UV-I 0 W/m 18,1 C 18,8 C 0,0 km/h (0 Bft)
28.07.2021 01:48 18,8 C 18,9 C 18,3 C 21,1 C 18,9 C 17,2 C 96 % 87 % 3 cb 9 cb 6 cb 1011,6 hPa 0,0 l/m 0,0 km/h (0 Bft) N 0 0,000 mm 0,0 UV-I 0 W/m 18,1 C 18,8 C 0,0 km/h (0 Bft)
28.07.2021 01:47 18,8 C 18,9 C 18,3 C 21,1 C 18,9 C 17,2 C 96 % 87 % 3 cb 9 cb 6 cb 1011,6 hPa 0,0 l/m 0,0 km/h (0 Bft) N 0 0,000 mm 0,0 UV-I 0 W/m 18,1 C 18,8 C 0,0 km/h (0 Bft)
28.07.2021 01:46 18,8 C 18,9 C 18,3 C 21,1 C 18,9 C 17,2 C 96 % 87 % 3 cb 9 cb 6 cb 1011,6 hPa 0,0 l/m 0,0 km/h (0 Bft) N 0 0,000 mm 0,0 UV-I 0 W/m 18,1 C 18,8 C 0,0 km/h (0 Bft)
28.07.2021 01:45 18,8 C 18,9 C 18,3 C 21,1 C 18,9 C 17,2 C 96 % 87 % 3 cb 9 cb 6 cb 1011,6 hPa 0,0 l/m 0,0 km/h (0 Bft) N 0 0,000 mm 0,0 UV-I 0 W/m 18,1 C 18,8 C 0,0 km/h (0 Bft)
28.07.2021 01:44 18,8 C 18,9 C 18,3 C 21,1 C 18,9 C 17,2 C 96 % 87 % 3 cb 9 cb 6 cb 1011,6 hPa 0,0 l/m 0,0 km/h (0 Bft) N 0 0,000 mm 0,0 UV-I 0 W/m 18,1 C 18,8 C 0,0 km/h (0 Bft)
28.07.2021 01:43 18,8 C 18,9 C 18,3 C 21,1 C 18,9 C 17,2 C 96 % 87 % 3 cb 9 cb 6 cb 1011,5 hPa 0,0 l/m 0,0 km/h (0 Bft) N 0 0,000 mm 0,0 UV-I 0 W/m 18,1 C 18,8 C 0,0 km/h (0 Bft)
28.07.2021 01:42 18,8 C 18,9 C 18,3 C 21,1 C 18,9 C 17,2 C 96 % 87 % 3 cb 9 cb 6 cb 1011,6 hPa 0,0 l/m 0,0 km/h (0 Bft) N 0 0,000 mm 0,0 UV-I 0 W/m 18,1 C 18,8 C 0,0 km/h (0 Bft)
28.07.2021 01:41 18,8 C 18,9 C 18,3 C 21,1 C 18,9 C 17,2 C 96 % 87 % 3 cb 9 cb 6 cb 1011,6 hPa 0,0 l/m 0,0 km/h (0 Bft) N 0 0,000 mm 0,0 UV-I 0 W/m 18,1 C 18,8 C 0,0 km/h (0 Bft)
28.07.2021 01:40 18,8 C 18,9 C 18,3 C 21,1 C 18,9 C 17,2 C 96 % 87 % 3 cb 9 cb 6 cb 1011,5 hPa 0,0 l/m 0,0 km/h (0 Bft) N 0 0,000 mm 0,0 UV-I 0 W/m 18,1 C 18,8 C 0,0 km/h (0 Bft)
28.07.2021 01:39 18,8 C 18,9 C 18,3 C 21,1 C 18,9 C 17,2 C 96 % 87 % 3 cb 9 cb 6 cb 1011,6 hPa 0,0 l/m 0,0 km/h (0 Bft) N 0 0,000 mm 0,0 UV-I 0 W/m 18,1 C 18,8 C 0,0 km/h (0 Bft)
28.07.2021 01:38 18,8 C 18,9 C 18,3 C 21,1 C 18,9 C 17,2 C 96 % 87 % 3 cb 9 cb 6 cb 1011,5 hPa 0,0 l/m 0,0 km/h (0 Bft) N 0 0,000 mm 0,0 UV-I 0 W/m 18,1 C 18,8 C 0,0 km/h (0 Bft)
28.07.2021 01:37 18,8 C 18,9 C 18,3 C 21,1 C 18,9 C 17,2 C 96 % 87 % 3 cb 9 cb 6 cb 1011,5 hPa 0,0 l/m 0,0 km/h (0 Bft) N 0 0,000 mm 0,0 UV-I 0 W/m 18,1 C 18,8 C 0,0 km/h (0 Bft)
28.07.2021 01:36 18,8 C 18,9 C 18,3 C 21,1 C 18,9 C 17,2 C 96 % 87 % 3 cb 9 cb 6 cb 1011,5 hPa 0,0 l/m 0,0 km/h (0 Bft) N 0 0,000 mm 0,0 UV-I 0 W/m 18,1 C 18,8 C 0,0 km/h (0 Bft)
28.07.2021 01:35 18,8 C 18,9 C 18,3 C 21,1 C 18,9 C 17,2 C 96 % 87 % 3 cb 9 cb 6 cb 1011,5 hPa 0,0 l/m 0,0 km/h (0 Bft) N 0 0,000 mm 0,0 UV-I 0 W/m 18,1 C 18,8 C 0,0 km/h (0 Bft)
28.07.2021 01:34 18,8 C 18,9 C 18,3 C 21,7 C 18,9 C 17,2 C 96 % 87 % 3 cb 9 cb 6 cb 1011,5 hPa 0,0 l/m 0,0 km/h (0 Bft) N 0 0,000 mm 0,0 UV-I 0 W/m 18,1 C 18,8 C 0,0 km/h (0 Bft)
28.07.2021 01:33 18,8 C 18,9 C 18,3 C 21,7 C 18,9 C 17,2 C 96 % 87 % 3 cb 9 cb 6 cb 1011,6 hPa 0,0 l/m 0,0 km/h (0 Bft) N 0 0,000 mm 0,0 UV-I 0 W/m 18,1 C 18,8 C 0,0 km/h (0 Bft)
28.07.2021 01:32 18,8 C 18,9 C 18,3 C 21,7 C 18,9 C 17,2 C 96 % 87 % 3 cb 9 cb 6 cb 1011,6 hPa 0,0 l/m 0,0 km/h (0 Bft) N 0 0,000 mm 0,0 UV-I 0 W/m 18,1 C 18,8 C 0,0 km/h (0 Bft)
28.07.2021 01:31 18,8 C 18,9 C 18,3 C 21,7 C 18,9 C 17,2 C 96 % 87 % 3 cb 9 cb 6 cb 1011,6 hPa 0,0 l/m 0,0 km/h (0 Bft) N 0 0,000 mm 0,0 UV-I 0 W/m 18,1 C 18,8 C 0,0 km/h (0 Bft)
28.07.2021 01:30 18,8 C 18,9 C 18,3 C 21,7 C 18,9 C 17,2 C 96 % 87 % 3 cb 9 cb 6 cb 1011,6 hPa 0,0 l/m 0,0 km/h (0 Bft) N 0 0,000 mm 0,0 UV-I 0 W/m 18,1 C 18,8 C 0,0 km/h (0 Bft)
28.07.2021 01:29 18,8 C 18,9 C 18,3 C 21,7 C 18,9 C 17,2 C 96 % 87 % 3 cb 9 cb 6 cb 1011,6 hPa 0,0 l/m 0,0 km/h (0 Bft) N 0 0,000 mm 0,0 UV-I 0 W/m 18,1 C 18,8 C 0,0 km/h (0 Bft)
28.07.2021 01:28 18,7 C 18,9 C 18,3 C 21,7 C 18,9 C 17,2 C 96 % 87 % 3 cb 9 cb 6 cb 1011,6 hPa 0,0 l/m 0,0 km/h (0 Bft) N 0 0,000 mm 0,0 UV-I 0 W/m 18,0 C 18,7 C 0,0 km/h (0 Bft)
28.07.2021 01:27 18,7 C 18,9 C 18,3 C 21,7 C 18,9 C 17,2 C 96 % 87 % 3 cb 9 cb 6 cb 1011,7 hPa 0,0 l/m 0,0 km/h (0 Bft) N 0 0,000 mm 0,0 UV-I 0 W/m 18,0 C 18,7 C 0,0 km/h (0 Bft)
28.07.2021 01:26 18,8 C 18,9 C 18,3 C 21,7 C 18,9 C 17,2 C 96 % 87 % 3 cb 9 cb 6 cb 1011,7 hPa 0,0 l/m 0,0 km/h (0 Bft) N 0 0,000 mm 0,0 UV-I 0 W/m 18,1 C 18,8 C 0,0 km/h (0 Bft)
28.07.2021 01:25 18,8 C 18,9 C 18,3 C 21,7 C 18,9 C 17,2 C 96 % 87 % 3 cb 9 cb 6 cb 1011,7 hPa 0,0 l/m 0,0 km/h (0 Bft) N 0 0,000 mm 0,0 UV-I 0 W/m 18,1 C 18,8 C 0,0 km/h (0 Bft)
28.07.2021 01:24 18,8 C 18,9 C 18,3 C 21,7 C 18,9 C 17,2 C 96 % 87 % 3 cb 9 cb 6 cb 1011,7 hPa 0,0 l/m 0,0 km/h (0 Bft) N 0 0,000 mm 0,0 UV-I 0 W/m 18,1 C 18,8 C 0,0 km/h (0 Bft)
28.07.2021 01:23 18,8 C 18,9 C 18,3 C 21,7 C 18,9 C 17,2 C 96 % 87 % 3 cb 9 cb 6 cb 1011,8 hPa 0,0 l/m 0,0 km/h (0 Bft) N 0 0,000 mm 0,0 UV-I 0 W/m 18,1 C 18,8 C 0,0 km/h (0 Bft)
28.07.2021 01:22 18,8 C 18,9 C 18,3 C 21,7 C 18,9 C 17,2 C 96 % 87 % 3 cb 9 cb 6 cb 1011,7 hPa 0,0 l/m 0,0 km/h (0 Bft) N 0 0,000 mm 0,0 UV-I 0 W/m 18,1 C 18,8 C 0,0 km/h (0 Bft)
28.07.2021 01:21 18,8 C 18,9 C 18,3 C 21,7 C 18,9 C 17,2 C 96 % 87 % 3 cb 9 cb 6 cb 1011,7 hPa 0,0 l/m 0,0 km/h (0 Bft) N 0 0,000 mm 0,0 UV-I 0 W/m 18,1 C 18,8 C 0,0 km/h (0 Bft)
28.07.2021 01:20 18,8 C 18,9 C 18,3 C 21,7 C 18,9 C 17,2 C 96 % 87 % 3 cb 9 cb 6 cb 1011,7 hPa 0,0 l/m 0,0 km/h (0 Bft) N 0 0,000 mm 0,0 UV-I 0 W/m 18,1 C 18,8 C 0,0 km/h (0 Bft)
28.07.2021 01:19 18,8 C 18,9 C 18,3 C 21,7 C 18,9 C 17,2 C 96 % 87 % 3 cb 9 cb 6 cb 1011,7 hPa 0,0 l/m 0,0 km/h (0 Bft) N 0 0,000 mm 0,0 UV-I 0 W/m 18,1 C 18,8 C 0,0 km/h (0 Bft)
28.07.2021 01:18 18,8 C 18,9 C 18,3 C 21,7 C 18,9 C 17,2 C 96 % 87 % 3 cb 9 cb 6 cb 1011,7 hPa 0,0 l/m 0,0 km/h (0 Bft) N 0 0,000 mm 0,0 UV-I 0 W/m 18,1 C 18,8 C 0,0 km/h (0 Bft)
28.07.2021 01:17 18,8 C 18,9 C 18,3 C 21,7 C 18,9 C 17,2 C 96 % 87 % 3 cb 9 cb 6 cb 1011,8 hPa 0,0 l/m 0,0 km/h (0 Bft) N 0 0,000 mm 0,0 UV-I 0 W/m 18,1 C 18,8 C 0,0 km/h (0 Bft)
28.07.2021 01:16 18,8 C 18,9 C 18,3 C 21,7 C 18,9 C 17,2 C 96 % 87 % 3 cb 9 cb 6 cb 1011,8 hPa 0,0 l/m 0,0 km/h (0 Bft) N 0 0,000 mm 0,0 UV-I 0 W/m 18,1 C 18,8 C 0,0 km/h (0 Bft)
28.07.2021 01:15 18,8 C 18,9 C 18,3 C 21,7 C 18,9 C 17,2 C 96 % 87 % 3 cb 9 cb 6 cb 1011,8 hPa 0,0 l/m 0,0 km/h (0 Bft) N 0 0,000 mm 0,0 UV-I 0 W/m 18,1 C 18,8 C 0,0 km/h (0 Bft)
28.07.2021 01:14 18,9 C 18,9 C 18,3 C 21,7 C 18,9 C 17,2 C 96 % 87 % 3 cb 9 cb 6 cb 1011,8 hPa 0,0 l/m 0,0 km/h (0 Bft) N 0 0,000 mm 0,0 UV-I 0 W/m 18,2 C 18,9 C 0,0 km/h (0 Bft)
28.07.2021 01:13 18,9 C 18,9 C 18,3 C 21,7 C 18,9 C 17,2 C 96 % 87 % 3 cb 9 cb 6 cb 1011,8 hPa 0,0 l/m 0,0 km/h (0 Bft) N 0 0,000 mm 0,0 UV-I 0 W/m 18,2 C 18,9 C 0,0 km/h (0 Bft)
28.07.2021 01:12 18,9 C 18,9 C 18,3 C 21,7 C 18,9 C 17,2 C 96 % 87 % 3 cb 9 cb 6 cb 1011,8 hPa 0,0 l/m 0,0 km/h (0 Bft) N 0 0,000 mm 0,0 UV-I 0 W/m 18,2 C 18,9 C 0,0 km/h (0 Bft)
28.07.2021 01:11 18,9 C 18,9 C 18,3 C 21,7 C 18,9 C 17,2 C 96 % 87 % 3 cb 9 cb 6 cb 1011,9 hPa 0,0 l/m 0,0 km/h (0 Bft) N 0 0,000 mm 0,0 UV-I 0 W/m 18,2 C 18,9 C 0,0 km/h (0 Bft)
28.07.2021 01:10 18,9 C 18,9 C 18,3 C 21,7 C 18,9 C 17,2 C 96 % 87 % 3 cb 9 cb 6 cb 1011,8 hPa 0,0 l/m 0,0 km/h (0 Bft) N 0 0,000 mm 0,0 UV-I 0 W/m 18,2 C 18,9 C 0,0 km/h (0 Bft)
28.07.2021 01:09 18,9 C 18,9 C 18,3 C 21,7 C 18,9 C 17,2 C 96 % 87 % 3 cb 9 cb 6 cb 1011,9 hPa 0,0 l/m 0,0 km/h (0 Bft) N 0 0,000 mm 0,0 UV-I 0 W/m 18,2 C 18,9 C 0,0 km/h (0 Bft)
28.07.2021 01:08 18,9 C 18,9 C 18,3 C 21,7 C 18,9 C 17,2 C 96 % 87 % 3 cb 9 cb 6 cb 1011,9 hPa 0,0 l/m 0,0 km/h (0 Bft) N 0 0,000 mm 0,0 UV-I 0 W/m 18,2 C 18,9 C 0,0 km/h (0 Bft)
28.07.2021 01:07 18,9 C 18,9 C 18,3 C 21,7 C 18,9 C 17,2 C 96 % 87 % 3 cb 9 cb 6 cb 1011,9 hPa 0,0 l/m 0,0 km/h (0 Bft) N 0 0,000 mm 0,0 UV-I 0 W/m 18,2 C 18,9 C 0,0 km/h (0 Bft)
28.07.2021 01:06 19,0 C 18,9 C 18,3 C 21,7 C 18,9 C 17,2 C 96 % 87 % 3 cb 9 cb 6 cb 1011,9 hPa 0,0 l/m 0,0 km/h (0 Bft) N 0 0,000 mm 0,0 UV-I 0 W/m 18,3 C 19,0 C 0,0 km/h (0 Bft)
28.07.2021 01:05 19,0 C 18,9 C 18,3 C 21,7 C 18,9 C 17,2 C 96 % 86 % 3 cb 9 cb 6 cb 1011,9 hPa 0,0 l/m 0,0 km/h (0 Bft) N 0 0,000 mm 0,0 UV-I 0 W/m 18,3 C 19,0 C 0,0 km/h (0 Bft)
28.07.2021 01:04 19,0 C 18,9 C 18,3 C 21,7 C 18,9 C 17,2 C 96 % 86 % 3 cb 9 cb 6 cb 1011,9 hPa 0,0 l/m 0,0 km/h (0 Bft) N 0 0,000 mm 0,0 UV-I 0 W/m 18,3 C 19,0 C 0,0 km/h (0 Bft)
28.07.2021 01:03 19,0 C 18,9 C 18,3 C 21,7 C 18,9 C 17,2 C 96 % 86 % 3 cb 9 cb 6 cb 1011,9 hPa 0,0 l/m 0,0 km/h (0 Bft) N 0 0,000 mm 0,0 UV-I 0 W/m 18,3 C 19,0 C 0,0 km/h (0 Bft)
28.07.2021 01:02 18,9 C 18,9 C 18,3 C 21,7 C 18,9 C 17,2 C 96 % 86 % 3 cb 9 cb 6 cb 1011,9 hPa 0,0 l/m 0,0 km/h (0 Bft) N 0 0,000 mm 0,0 UV-I 0 W/m 18,2 C 18,9 C 0,0 km/h (0 Bft)
28.07.2021 01:01 18,9 C 18,9 C 18,3 C 21,7 C 18,9 C 17,2 C 96 % 86 % 3 cb 9 cb 6 cb 1011,9 hPa 0,0 l/m 0,0 km/h (0 Bft) N 0 0,000 mm 0,0 UV-I 0 W/m 18,2 C 18,9 C 0,0 km/h (0 Bft)
28.07.2021 01:00 18,9 C 18,9 C 18,3 C 21,7 C 18,9 C 17,2 C 96 % 87 % 3 cb 9 cb 6 cb 1011,9 hPa 0,0 l/m 0,0 km/h (0 Bft) N 0 0,000 mm 0,0 UV-I 0 W/m 18,2 C 18,9 C 0,0 km/h (0 Bft)
28.07.2021 00:59 18,9 C 18,9 C 18,3 C 21,7 C 18,9 C 17,2 C 96 % 86 % 3 cb 9 cb 6 cb 1012,0 hPa 0,0 l/m 0,0 km/h (0 Bft) N 0 0,000 mm 0,0 UV-I 0 W/m 18,2 C 18,9 C 0,0 km/h (0 Bft)
28.07.2021 00:58 18,9 C 18,9 C 18,3 C 21,7 C 18,9 C 17,2 C 96 % 87 % 3 cb 9 cb 6 cb 1011,9 hPa 0,0 l/m 0,0 km/h (0 Bft) N 0 0,000 mm 0,0 UV-I 0 W/m 18,2 C 18,9 C 0,0 km/h (0 Bft)
28.07.2021 00:57 18,9 C 18,9 C 18,3 C 21,7 C 18,9 C 17,2 C 96 % 86 % 3 cb 9 cb 6 cb 1011,9 hPa 0,0 l/m 0,0 km/h (0 Bft) N 0 0,000 mm 0,0 UV-I 0 W/m 18,2 C 18,9 C 0,0 km/h (0 Bft)
28.07.2021 00:56 18,9 C 18,9 C 18,3 C 21,7 C 18,9 C 17,2 C 96 % 86 % 3 cb 9 cb 6 cb 1011,9 hPa 0,0 l/m 0,0 km/h (0 Bft) N 0 0,000 mm 0,0 UV-I 0 W/m 18,2 C 18,9 C 0,0 km/h (0 Bft)
28.07.2021 00:55 18,9 C 18,9 C 18,3 C 21,7 C 18,9 C 17,2 C 96 % 86 % 3 cb 9 cb 6 cb 1011,9 hPa 0,0 l/m 0,0 km/h (0 Bft) N 0 0,000 mm 0,0 UV-I 0 W/m 18,2 C 18,9 C 0,0 km/h (0 Bft)
28.07.2021 00:54 18,9 C 18,9 C 18,3 C 21,7 C 18,9 C 17,2 C 96 % 86 % 3 cb 9 cb 6 cb 1011,9 hPa 0,0 l/m 0,0 km/h (0 Bft) N 0 0,000 mm 0,0 UV-I 0 W/m 18,2 C 18,9 C 0,0 km/h (0 Bft)
28.07.2021 00:53 19,0 C 18,9 C 18,3 C 21,7 C 18,9 C 17,2 C 96 % 86 % 3 cb 9 cb 6 cb 1011,9 hPa 0,0 l/m 0,0 km/h (0 Bft) N 0 0,000 mm 0,0 UV-I 0 W/m 18,3 C 19,0 C 0,0 km/h (0 Bft)
28.07.2021 00:52 19,0 C 18,9 C 18,3 C 21,7 C 18,9 C 17,2 C 96 % 86 % 3 cb 9 cb 6 cb 1011,9 hPa 0,0 l/m 0,0 km/h (0 Bft) N 0 0,000 mm 0,0 UV-I 0 W/m 18,3 C 19,0 C 0,0 km/h (0 Bft)
28.07.2021 00:51 19,0 C 18,9 C 18,3 C 21,7 C 18,9 C 17,2 C 96 % 86 % 3 cb 9 cb 6 cb 1011,9 hPa 0,0 l/m 0,0 km/h (0 Bft) N 0 0,000 mm 0,0 UV-I 0 W/m 18,3 C 19,0 C 0,0 km/h (0 Bft)
28.07.2021 00:50 18,9 C 18,9 C 18,3 C 21,7 C 18,9 C 17,2 C 96 % 86 % 3 cb 9 cb 6 cb 1011,8 hPa 0,0 l/m 0,0 km/h (0 Bft) N 0 0,000 mm 0,0 UV-I 0 W/m 18,2 C 18,9 C 0,0 km/h (0 Bft)
28.07.2021 00:49 18,9 C 18,9 C 18,3 C 21,7 C 18,9 C 17,2 C 96 % 86 % 3 cb 9 cb 6 cb 1011,8 hPa 0,0 l/m 0,0 km/h (0 Bft) N 0 0,000 mm 0,0 UV-I 0 W/m 18,2 C 18,9 C 0,0 km/h (0 Bft)
28.07.2021 00:48 18,9 C 18,9 C 18,3 C 21,7 C 18,9 C 17,2 C 96 % 86 % 3 cb 9 cb 6 cb 1011,9 hPa 0,0 l/m 0,0 km/h (0 Bft) N 0 0,000 mm 0,0 UV-I 0 W/m 18,2 C 18,9 C 0,0 km/h (0 Bft)
28.07.2021 00:47 18,9 C 18,9 C 18,3 C 21,7 C 18,9 C 17,2 C 96 % 86 % 3 cb 9 cb 6 cb 1011,9 hPa 0,0 l/m 0,0 km/h (0 Bft) N 0 0,000 mm 0,0 UV-I 0 W/m 18,2 C 18,9 C 0,0 km/h (0 Bft)
28.07.2021 00:46 18,9 C 18,9 C 18,3 C 21,7 C 18,9 C 17,2 C 96 % 86 % 3 cb 9 cb 6 cb 1011,8 hPa 0,0 l/m 0,0 km/h (0 Bft) N 0 0,000 mm 0,0 UV-I 0 W/m 18,2 C 18,9 C 0,0 km/h (0 Bft)
28.07.2021 00:45 18,9 C 18,9 C 18,3 C 21,7 C 18,9 C 17,2 C 96 % 86 % 3 cb 9 cb 6 cb 1011,9 hPa 0,0 l/m 0,0 km/h (0 Bft) N 0 0,000 mm 0,0 UV-I 0 W/m 18,2 C 18,9 C 0,0 km/h (0 Bft)
28.07.2021 00:44 18,8 C 18,9 C 18,3 C 21,7 C 18,9 C 17,2 C 96 % 86 % 3 cb 9 cb 6 cb 1011,8 hPa 0,0 l/m 0,0 km/h (0 Bft) N 0 0,000 mm 0,0 UV-I 0 W/m 18,1 C 18,8 C 0,0 km/h (0 Bft)
28.07.2021 00:43 18,8 C 18,9 C 18,3 C 21,7 C 18,9 C 17,2 C 96 % 86 % 3 cb 9 cb 6 cb 1011,8 hPa 0,0 l/m 0,0 km/h (0 Bft) N 0 0,000 mm 0,0 UV-I 0 W/m 18,1 C 18,8 C 0,0 km/h (0 Bft)
28.07.2021 00:42 18,8 C 18,9 C 18,3 C 21,7 C 18,9 C 17,2 C 96 % 86 % 3 cb 9 cb 6 cb 1011,8 hPa 0,0 l/m 0,0 km/h (0 Bft) N 0 0,000 mm 0,0 UV-I 0 W/m 18,1 C 18,8 C 0,0 km/h (0 Bft)
28.07.2021 00:41 18,8 C 18,9 C 18,3 C 21,7 C 18,9 C 17,2 C 96 % 86 % 3 cb 9 cb 6 cb 1011,8 hPa 0,0 l/m 0,0 km/h (0 Bft) N 0 0,000 mm 0,0 UV-I 0 W/m 18,1 C 18,8 C 0,0 km/h (0 Bft)
28.07.2021 00:40 18,8 C 18,9 C 18,3 C 21,7 C 18,9 C 17,2 C 96 % 86 % 3 cb 9 cb 6 cb 1011,8 hPa 0,0 l/m 0,0 km/h (0 Bft) N 0 0,000 mm 0,0 UV-I 0 W/m 18,1 C 18,8 C 0,0 km/h (0 Bft)
28.07.2021 00:39 18,8 C 18,9 C 18,3 C 21,7 C 18,9 C 17,2 C 96 % 86 % 3 cb 9 cb 6 cb 1011,7 hPa 0,0 l/m 0,0 km/h (0 Bft) N 0 0,000 mm 0,0 UV-I 0 W/m 18,1 C 18,8 C 0,0 km/h (0 Bft)
28.07.2021 00:38 18,8 C 18,9 C 18,3 C 21,7 C 18,9 C 17,2 C 96 % 86 % 3 cb 9 cb 6 cb 1011,7 hPa 0,0 l/m 0,0 km/h (0 Bft) N 0 0,000 mm 0,0 UV-I 0 W/m 18,1 C 18,8 C 0,0 km/h (0 Bft)
28.07.2021 00:37 18,8 C 18,9 C 18,3 C 21,7 C 18,9 C 17,2 C 96 % 86 % 3 cb 9 cb 6 cb 1011,7 hPa 0,0 l/m 0,0 km/h (0 Bft) N 0 0,000 mm 0,0 UV-I 0 W/m 18,1 C 18,8 C 0,0 km/h (0 Bft)
28.07.2021 00:36 18,8 C 18,9 C 18,3 C 21,7 C 18,9 C 17,2 C 96 % 86 % 3 cb 9 cb 6 cb 1011,7 hPa 0,0 l/m 0,0 km/h (0 Bft) N 0 0,000 mm 0,0 UV-I 0 W/m 18,1 C 18,8 C 0,0 km/h (0 Bft)
28.07.2021 00:35 18,8 C 18,9 C 18,3 C 21,7 C 18,9 C 17,2 C 96 % 86 % 3 cb 9 cb 6 cb 1011,7 hPa 0,0 l/m 0,0 km/h (0 Bft) N 0 0,000 mm 0,0 UV-I 0 W/m 18,1 C 18,8 C 0,0 km/h (0 Bft)
28.07.2021 00:34 18,8 C 18,9 C 18,3 C 21,7 C 18,9 C 17,2 C 96 % 86 % 3 cb 9 cb 6 cb 1011,7 hPa 0,0 l/m 0,0 km/h (0 Bft) N 0 0,000 mm 0,0 UV-I 0 W/m 18,1 C 18,8 C 0,0 km/h (0 Bft)
28.07.2021 00:33 18,8 C 18,9 C 18,3 C 21,7 C 18,9 C 17,2 C 96 % 86 % 3 cb 9 cb 6 cb 1011,7 hPa 0,0 l/m 0,0 km/h (0 Bft) N 0 0,000 mm 0,0 UV-I 0 W/m 18,1 C 18,8 C 0,0 km/h (0 Bft)
28.07.2021 00:32 18,8 C 18,9 C 18,3 C 21,7 C 18,9 C 17,2 C 96 % 86 % 3 cb 9 cb 6 cb 1011,7 hPa 0,0 l/m 0,0 km/h (0 Bft) N 0 0,000 mm 0,0 UV-I 0 W/m 18,1 C 18,8 C 0,0 km/h (0 Bft)
28.07.2021 00:31 18,8 C 18,9 C 18,3 C 21,7 C 18,9 C 17,2 C 96 % 86 % 3 cb 9 cb 6 cb 1011,7 hPa 0,0 l/m 0,0 km/h (0 Bft) N 0 0,000 mm 0,0 UV-I 0 W/m 18,1 C 18,8 C 0,0 km/h (0 Bft)
28.07.2021 00:30 18,8 C 18,9 C 18,3 C 21,7 C 18,9 C 17,2 C 96 % 86 % 3 cb 9 cb 6 cb 1011,6 hPa 0,0 l/m 0,0 km/h (0 Bft) N 0 0,000 mm 0,0 UV-I 0 W/m 18,1 C 18,8 C 0,0 km/h (0 Bft)
28.07.2021 00:29 18,8 C 18,9 C 18,3 C 21,7 C 18,9 C 17,2 C 96 % 86 % 3 cb 9 cb 6 cb 1011,6 hPa 0,0 l/m 0,0 km/h (0 Bft) N 0 0,000 mm 0,0 UV-I 0 W/m 18,1 C 18,8 C 0,0 km/h (0 Bft)
28.07.2021 00:28 18,8 C 18,9 C 18,3 C 21,7 C 18,9 C 17,2 C 96 % 86 % 3 cb 9 cb 6 cb 1011,6 hPa 0,0 l/m 0,0 km/h (0 Bft) N 0 0,000 mm 0,0 UV-I 0 W/m 18,1 C 18,8 C 0,0 km/h (0 Bft)
28.07.2021 00:27 18,8 C 18,9 C 18,3 C 21,7 C 18,9 C 17,2 C 96 % 86 % 3 cb 9 cb 6 cb 1011,7 hPa 0,0 l/m 0,0 km/h (0 Bft) N 0 0,000 mm 0,0 UV-I 0 W/m 18,1 C 18,8 C 0,0 km/h (0 Bft)
28.07.2021 00:26 18,8 C 18,9 C 18,3 C 21,7 C 18,9 C 17,2 C 96 % 86 % 3 cb 9 cb 6 cb 1011,6 hPa 0,0 l/m 0,0 km/h (0 Bft) N 0 0,000 mm 0,0 UV-I 0 W/m 18,1 C 18,8 C 0,0 km/h (0 Bft)
28.07.2021 00:25 18,8 C 18,9 C 18,3 C 21,7 C 18,9 C 17,2 C 96 % 86 % 3 cb 9 cb 6 cb 1011,7 hPa 0,0 l/m 0,0 km/h (0 Bft) N 0 0,000 mm 0,0 UV-I 0 W/m 18,1 C 18,8 C 0,0 km/h (0 Bft)
28.07.2021 00:24 18,8 C 18,9 C 18,3 C 21,7 C 18,9 C 17,2 C 96 % 86 % 3 cb 9 cb 6 cb 1011,6 hPa 0,0 l/m 0,0 km/h (0 Bft) N 0 0,000 mm 0,0 UV-I 0 W/m 18,1 C 18,8 C 0,0 km/h (0 Bft)
28.07.2021 00:23 18,8 C 18,9 C 18,3 C 21,7 C 18,9 C 17,2 C 96 % 86 % 3 cb 9 cb 6 cb 1011,6 hPa 0,0 l/m 0,0 km/h (0 Bft) N 0 0,000 mm 0,0 UV-I 0 W/m 18,1 C 18,8 C 0,0 km/h (0 Bft)
28.07.2021 00:22 18,8 C 18,9 C 18,3 C 21,7 C 18,9 C 17,2 C 96 % 86 % 3 cb 9 cb 6 cb 1011,6 hPa 0,0 l/m 0,0 km/h (0 Bft) N 0 0,000 mm 0,0 UV-I 0 W/m 18,1 C 18,8 C 0,0 km/h (0 Bft)
28.07.2021 00:21 18,8 C 18,9 C 18,3 C 21,7 C 18,9 C 17,2 C 96 % 86 % 3 cb 9 cb 6 cb 1011,6 hPa 0,0 l/m 0,0 km/h (0 Bft) N 0 0,000 mm 0,0 UV-I 0 W/m 18,1 C 18,8 C 0,0 km/h (0 Bft)
28.07.2021 00:20 18,8 C 18,9 C 18,3 C 21,7 C 18,9 C 17,2 C 96 % 86 % 3 cb 9 cb 6 cb 1011,6 hPa 0,0 l/m 0,0 km/h (0 Bft) N 0 0,000 mm 0,0 UV-I 0 W/m 18,1 C 18,8 C 0,0 km/h (0 Bft)
28.07.2021 00:19 18,8 C 18,9 C 18,3 C 21,7 C 18,9 C 17,2 C 96 % 86 % 3 cb 9 cb 6 cb 1011,5 hPa 0,0 l/m 0,0 km/h (0 Bft) N 0 0,000 mm 0,0 UV-I 0 W/m 18,1 C 18,8 C 0,0 km/h (0 Bft)
28.07.2021 00:18 18,8 C 18,9 C 18,3 C 21,7 C 18,9 C 17,2 C 96 % 86 % 3 cb 9 cb 6 cb 1011,5 hPa 0,0 l/m 0,0 km/h (0 Bft) N 0 0,000 mm 0,0 UV-I 0 W/m 18,1 C 18,8 C 0,0 km/h (0 Bft)
28.07.2021 00:17 18,8 C 18,9 C 18,3 C 21,7 C 18,9 C 17,2 C 96 % 86 % 3 cb 9 cb 6 cb 1011,5 hPa 0,0 l/m 0,0 km/h (0 Bft) N 0 0,000 mm 0,0 UV-I 0 W/m 18,1 C 18,8 C 0,0 km/h (0 Bft)
28.07.2021 00:16 18,8 C 18,9 C 18,3 C 21,7 C 18,9 C 17,2 C 96 % 86 % 3 cb 9 cb 6 cb 1011,5 hPa 0,0 l/m 0,0 km/h (0 Bft) N 0 0,000 mm 0,0 UV-I 0 W/m 18,1 C 18,8 C 0,0 km/h (0 Bft)
28.07.2021 00:15 18,8 C 18,9 C 18,3 C 21,7 C 18,9 C 17,2 C 96 % 86 % 3 cb 9 cb 6 cb 1011,5 hPa 0,0 l/m 0,0 km/h (0 Bft) N 0 0,000 mm 0,0 UV-I 0 W/m 18,1 C 18,8 C 0,0 km/h (0 Bft)
28.07.2021 00:14 18,8 C 18,9 C 18,3 C 21,7 C 18,9 C 17,2 C 96 % 86 % 3 cb 9 cb 6 cb 1011,5 hPa 0,0 l/m 0,0 km/h (0 Bft) N 0 0,000 mm 0,0 UV-I 0 W/m 18,1 C 18,8 C 0,0 km/h (0 Bft)
28.07.2021 00:13 18,8 C 18,9 C 18,3 C 21,7 C 18,9 C 17,2 C 96 % 86 % 3 cb 9 cb 6 cb 1011,5 hPa 0,0 l/m 0,0 km/h (0 Bft) N 0 0,000 mm 0,0 UV-I 0 W/m 18,1 C 18,8 C 0,0 km/h (0 Bft)
28.07.2021 00:12 18,8 C 18,9 C 18,3 C 21,7 C 18,9 C 17,2 C 96 % 86 % 3 cb 9 cb 6 cb 1011,5 hPa 0,0 l/m 0,0 km/h (0 Bft) N 0 0,000 mm 0,0 UV-I 0 W/m 18,1 C 18,8 C 0,0 km/h (0 Bft)
28.07.2021 00:11 18,8 C 18,9 C 18,3 C 21,7 C 18,9 C 17,2 C 96 % 86 % 3 cb 9 cb 6 cb 1011,5 hPa 0,0 l/m 0,0 km/h (0 Bft) N 0 0,000 mm 0,0 UV-I 0 W/m 18,1 C 18,8 C 0,0 km/h (0 Bft)
28.07.2021 00:10 18,8 C 18,9 C 18,3 C 21,7 C 18,9 C 17,2 C 96 % 86 % 3 cb 9 cb 6 cb 1011,5 hPa 0,0 l/m 0,0 km/h (0 Bft) N 0 0,000 mm 0,0 UV-I 0 W/m 18,1 C 18,8 C 0,0 km/h (0 Bft)
28.07.2021 00:09 18,8 C 18,9 C 18,3 C 21,7 C 18,9 C 17,2 C 96 % 86 % 3 cb 9 cb 6 cb 1011,5 hPa 0,0 l/m 0,0 km/h (0 Bft) N 0 0,000 mm 0,0 UV-I 0 W/m 18,1 C 18,8 C 0,0 km/h (0 Bft)
28.07.2021 00:08 18,8 C 18,9 C 18,3 C 21,7 C 18,9 C 17,2 C 96 % 85 % 3 cb 9 cb 6 cb 1011,5 hPa 0,0 l/m 0,0 km/h (0 Bft) N 0 0,000 mm 0,0 UV-I 0 W/m 18,1 C 18,8 C 0,0 km/h (0 Bft)
28.07.2021 00:07 18,8 C 18,9 C 18,3 C 21,7 C 18,9 C 17,2 C 96 % 86 % 3 cb 9 cb 6 cb 1011,5 hPa 0,0 l/m 0,0 km/h (0 Bft) N 0 0,000 mm 0,0 UV-I 0 W/m 18,1 C 18,8 C 0,0 km/h (0 Bft)
28.07.2021 00:06 18,8 C 18,9 C 18,3 C 21,7 C 18,9 C 17,2 C 96 % 85 % 3 cb 9 cb 6 cb 1011,5 hPa 0,0 l/m 0,0 km/h (0 Bft) N 0 0,000 mm 0,0 UV-I 0 W/m 18,1 C 18,8 C 0,0 km/h (0 Bft)
28.07.2021 00:05 18,8 C 18,9 C 18,3 C 21,7 C 18,9 C 17,2 C 96 % 86 % 3 cb 9 cb 6 cb 1011,5 hPa 0,0 l/m 0,0 km/h (0 Bft) N 0 0,000 mm 0,0 UV-I 0 W/m 18,1 C 18,8 C 0,0 km/h (0 Bft)
28.07.2021 00:04 18,8 C 18,9 C 18,3 C 21,7 C 18,9 C 17,2 C 96 % 85 % 3 cb 9 cb 6 cb 1011,6 hPa 0,0 l/m 0,0 km/h (0 Bft) N 0 0,000 mm 0,0 UV-I 0 W/m 18,1 C 18,8 C 0,0 km/h (0 Bft)
28.07.2021 00:03 18,8 C 18,9 C 18,3 C 21,7 C 18,9 C 17,2 C 96 % 85 % 3 cb 9 cb 6 cb 1011,5 hPa 0,0 l/m 0,0 km/h (0 Bft) N 0 0,000 mm 0,0 UV-I 0 W/m 18,1 C 18,8 C 0,0 km/h (0 Bft)
28.07.2021 00:02 18,8 C 19,4 C 18,3 C 21,7 C 18,9 C 17,2 C 96 % 85 % 3 cb 9 cb 6 cb 1011,5 hPa 0,0 l/m 0,0 km/h (0 Bft) N 0 0,000 mm 0,0 UV-I 0 W/m 18,1 C 18,8 C 0,0 km/h (0 Bft)
28.07.2021 00:01 18,8 C 19,4 C 18,3 C 21,7 C 18,9 C 17,2 C 96 % 85 % 3 cb 9 cb 6 cb 1011,5 hPa 0,0 l/m 0,0 km/h (0 Bft) N 0 0,000 mm 0,0 UV-I 0 W/m 18,1 C 18,8 C 0,0 km/h (0 Bft)
28.07.2021 00:00 18,8 C 19,4 C 18,3 C 21,7 C 18,9 C 17,2 C 96 % 85 % 3 cb 9 cb 6 cb 1011,5 hPa 0,0 l/m 0,0 km/h (0 Bft) N 0 0,000 mm 0,0 UV-I 0 W/m 18,1 C 18,8 C 0,0 km/h (0 Bft)
_ Min-Zeit 01:27 00:03 05:49 04:52 00:00 00:00 11:10 11:31 11:13 00:00 00:00 12:01 - 00:00 - - - - - 11:29 06:05 00:00
Minimum _ 18,7 C 18,9 C 17,8 C 20,6 C 18,9 C 17,2 C 57 % 62 % 2 cb 9 cb 6 cb 1011,1 hPa - 0,0 km/h (0 Bft) - - - - - 15,9 C 17,9 C 0,0 km/h (0 Bft)
_ Max-Zeit 11:55 11:56 11:39 11:47 00:00 00:00 00:00 02:23 00:00 02:40 00:00 06:01 00:00 04:34 - - 12:00 12:01 12:00 09:28 11:55 06:05
Maximum _ 25,8 C 25,6 C 37,2 C 22,2 C 18,9 C 17,2 C 96 % 88 % 3 cb 10 cb 6 cb 1012,9 hPa 0,0 l/m 9,7 km/h
W-SW (2 Bft)
- - 0,483 mm 6,0 UV-I 867 W/m 18,7 C 25,8 C 14,5 km/h
SW (3 Bft)
Durchschnitt _ 20,5 C 20,1 C 21,2 C 21,0 C 18,9 C 17,2 C 86 % 82 % 3 cb 10 cb 6 cb 1012,1 hPa #0,0 l/m 3,4 km/h (1 Bft) W-SW - #1,347 mm 2,8 UV-I 326 W/m 17,9 C 20,4 C 5,1 km/h (1 Bft)